[[{"header":{"parameterUnit":"m.s-1","parameterCategory":1,"la1":30.6,"la2":28.766,"lo1":-90.7593,"lo2":-88.6598,"dx":0.0162,"dy":0.0183,"nx":116,"ny":114,"refTime":"2022-11-08T18:00:00:Z","depth":0,"parameterNumber":2,"parameterNumberName":"U-component_of_WINDS"},"data":[0.0,0.0,0.0,0.0,0.0,0.0,0.0,0.0,0.0,0.0,0.0,0.0,0.0,0.0,0.0,0.0,0.0,0.0,0.0,0.0,0.0,0.0,0.0,0.0,0.0,0.0,0.0,0.0,0.0,0.0,0.0,0.0,0.0,0.0,0.0,0.0,0.0,0.0,0.0,0.0,0.0,0.0,0.0,0.0,0.0,0.0,0.0,0.0,0.0,0.0,0.0,0.0,0.0,0.0,0.0,0.0,0.0,0.0,0.0,0.0,0.0,0.0,0.0,0.0,0.0,0.0,0.0,0.0,0.0,0.0,0.0,0.0,0.0,0.0,0.0,0.0,0.0,0.0,0.0,0.0,0.0,0.0,0.0,0.0,0.0,0.0,0.0,0.0,0.0,0.0,0.0,0.0,0.0,0.0,0.0,0.0,0.0,0.0,0.0,0.0,0.0,0.0,0.0,0.0,0.0,0.0,0.0,0.0,0.0,0.0,0.0,0.0,0.0,0.0,0.0,0.0,0.0,0.0,0.0,0.0,0.0,0.0,0.0,0.0,0.0,0.0,0.0,0.0,0.0,0.0,0.0,0.0,0.0,0.0,0.0,0.0,0.0,0.0,0.0,0.0,0.0,0.0,0.0,0.0,0.0,0.0,0.0,0.0,0.0,0.0,0.0,0.0,0.0,0.0,0.0,0.0,0.0,0.0,0.0,0.0,0.0,0.0,0.0,0.0,0.0,0.0,0.0,0.0,0.0,0.0,0.0,0.0,0.0,0.0,0.0,0.0,0.0,0.0,0.0,0.0,0.0,0.0,0.0,0.0,0.0,0.0,0.0,0.0,0.0,0.0,0.0,0.0,0.0,0.0,0.0,0.0,0.0,0.0,0.0,0.0,0.0,0.0,0.0,0.0,0.0,0.0,0.0,0.0,0.0,0.0,0.0,0.0,0.0,0.0,0.0,0.0,0.0,0.0,0.0,0.0,0.0,0.0,0.0,0.0,0.0,0.0,0.0,0.0,0.0,0.0,0.0,0.0,0.0,0.0,0.0,0.0,0.0,0.0,0.0,0.0,0.0,0.0,0.0,0.0,0.0,0.0,0.0,0.0,0.0,0.0,0.0,0.0,0.0,0.0,0.0,0.0,0.0,0.0,0.0,0.0,0.0,0.0,0.0,0.0,0.0,0.0,0.0,0.0,0.0,0.0,0.0,0.0,0.0,0.0,0.0,0.0,0.0,0.0,0.0,0.0,0.0,0.0,0.0,0.0,0.0,0.0,0.0,0.0,0.0,0.0,0.0,0.0,0.0,0.0,0.0,0.0,0.0,0.0,0.0,0.0,0.0,0.0,0.0,0.0,0.0,0.0,0.0,0.0,0.0,0.0,0.0,0.0,0.0,0.0,0.0,0.0,0.0,0.0,0.0,0.0,0.0,0.0,0.0,0.0,0.0,0.0,0.0,0.0,0.0,0.0,0.0,0.0,0.0,0.0,0.0,0.0,0.0,0.0,0.0,0.0,0.0,0.0,0.0,0.0,0.0,0.0,0.0,0.0,0.0,0.0,0.0,0.0,0.0,0.0,0.0,0.0,0.0,0.0,0.0,0.0,0.0,0.0,0.0,0.0,0.0,0.0,0.0,0.0,0.0,0.0,0.0,0.0,0.0,0.0,0.0,0.0,0.0,0.0,0.0,0.0,0.0,0.0,0.0,0.0,0.0,0.0,0.0,0.0,0.0,0.0,0.0,0.0,0.0,0.0,0.0,0.0,0.0,0.0,0.0,0.0,0.0,0.0,0.0,0.0,0.0,0.0,0.0,0.0,0.0,0.0,0.0,0.0,0.0,0.0,0.0,0.0,0.0,0.0,0.0,0.0,0.0,0.0,0.0,0.0,0.0,0.0,0.0,0.0,0.0,0.0,0.0,0.0,0.0,0.0,0.0,0.0,0.0,0.0,0.0,0.0,0.0,0.0,0.0,0.0,0.0,0.0,0.0,0.0,0.0,0.0,0.0,0.0,0.0,0.0,0.0,0.0,0.0,0.0,0.0,0.0,0.0,0.0,0.0,0.0,0.0,0.0,0.0,0.0,0.0,0.0,0.0,0.0,0.0,0.0,0.0,0.0,0.0,0.0,0.0,0.0,0.0,0.0,0.0,0.0,0.0,0.0,0.0,0.0,0.0,0.0,0.0,0.0,0.0,0.0,0.0,0.0,0.0,0.0,0.0,0.0,0.0,0.0,0.0,0.0,0.0,0.0,0.0,0.0,0.0,0.0,0.0,0.0,0.0,0.0,0.0,0.0,0.0,0.0,0.0,0.0,0.0,0.0,0.0,0.0,0.0,0.0,0.0,0.0,0.0,0.0,0.0,0.0,0.0,0.0,0.0,0.0,0.0,0.0,0.0,0.0,0.0,0.0,0.0,0.0,0.0,0.0,0.0,0.0,0.0,0.0,0.0,0.0,0.0,0.0,0.0,0.0,0.0,0.0,0.0,0.0,0.0,0.0,0.0,0.0,0.0,0.0,0.0,0.0,0.0,0.0,0.0,0.0,0.0,0.0,0.0,0.0,0.0,0.0,0.0,0.0,0.0,0.0,0.0,0.0,0.0,0.0,0.0,0.0,0.0,0.0,0.0,0.0,0.0,0.0,0.0,0.0,0.0,0.0,0.0,0.0,0.0,0.0,0.0,0.0,0.0,0.0,0.0,0.0,0.0,0.0,0.0,0.0,0.0,0.0,0.0,0.0,0.0,0.0,0.0,0.0,0.0,0.0,0.0,0.0,0.0,0.0,0.0,0.0,0.0,0.0,0.0,0.0,0.0,0.0,0.0,0.0,0.0,0.0,0.0,0.0,0.0,0.0,0.0,0.0,0.0,0.0,0.0,0.0,0.0,0.0,0.0,0.0,0.0,0.0,0.0,0.0,0.0,0.0,0.0,0.0,0.0,0.0,0.0,0.0,0.0,0.0,0.0,0.0,0.0,0.0,0.0,0.0,0.0,0.0,0.0,0.0,0.0,0.0,0.0,0.0,0.0,0.0,0.0,0.0,0.0,0.0,0.0,0.0,0.0,0.0,0.0,0.0,0.0,0.0,0.0,0.0,0.0,0.0,0.0,0.0,0.0,0.0,0.0,0.0,0.0,0.0,0.0,0.0,0.0,0.0,0.0,0.0,0.0,0.0,0.0,0.0,0.0,0.0,0.0,0.0,0.0,0.0,0.0,0.0,0.0,0.0,0.0,0.0,0.0,0.0,0.0,0.0,0.0,0.0,0.0,0.0,0.0,0.0,0.0,0.0,0.0,0.0,0.0,0.0,0.0,0.0,0.0,0.0,0.0,0.0,0.0,0.0,0.0,0.0,0.0,0.0,0.0,0.0,0.0,0.0,0.0,0.0,0.0,0.0,0.0,0.0,0.0,0.0,0.0,0.0,0.0,0.0,0.0,0.0,0.0,0.0,0.0,0.0,0.0,0.0,0.0,0.0,0.0,0.0,0.0,0.0,0.0,0.0,0.0,0.0,0.0,0.0,0.0,0.0,0.0,0.0,0.0,0.0,0.0,0.0,0.0,0.0,0.0,0.0,0.0,0.0,0.0,0.0,0.0,0.0,0.0,0.0,0.0,0.0,0.0,0.0,0.0,0.0,0.0,0.0,0.0,0.0,0.0,0.0,0.0,0.0,0.0,0.0,0.0,0.0,0.0,0.0,0.0,0.0,0.0,0.0,0.0,0.0,0.0,0.0,0.0,0.0,0.0,0.0,0.0,0.0,0.0,0.0,0.0,0.0,0.0,0.0,0.0,0.0,0.0,0.0,0.0,0.0,0.0,0.0,0.0,0.0,0.0,0.0,0.0,0.0,0.0,0.0,0.0,0.0,0.0,0.0,0.0,0.0,0.0,0.0,0.0,0.0,0.0,0.0,0.0,0.0,0.0,0.0,0.0,0.0,0.0,0.0,0.0,0.0,0.0,0.0,0.0,0.0,0.0,0.0,0.0,0.0,0.0,0.0,0.0,0.0,0.0,0.0,0.0,0.0,0.0,0.0,0.0,0.0,0.0,0.0,0.0,0.0,0.0,0.0,0.0,0.0,0.0,0.0,0.0,0.0,0.0,0.0,0.0,0.0,0.0,0.0,0.0,0.0,0.0,0.0,0.0,0.0,0.0,0.0,0.0,0.0,0.0,0.0,0.0,0.0,0.0,0.0,0.0,0.0,0.0,0.0,0.0,0.0,0.0,0.0,0.0,0.0,0.0,0.0,0.0,0.0,0.0,0.0,0.0,0.0,0.0,0.0,0.0,0.0,0.0,0.0,0.0,0.0,0.0,0.0,0.0,0.0,0.0,0.0,0.0,0.0,0.0,0.0,0.0,0.0,0.0,0.0,0.0,0.0,0.0,0.0,0.0,0.0,0.0,0.0,0.0,0.0,0.0,0.0,0.0,0.0,0.0,0.0,0.0,0.0,0.0,0.0,0.0,0.0,0.0,0.0,0.0,0.0,0.0,0.0,0.0,0.0,0.0,0.0,0.0,0.0,0.0,0.0,0.0,0.0,0.0,0.0,0.0,0.0,0.0,0.0,0.0,0.0,0.0,0.0,0.0,0.0,0.0,0.0,0.0,0.0,0.0,0.0,0.0,0.0,0.0,0.0,0.0,0.0,0.0,0.0,0.0,0.0,0.0,0.0,0.0,0.0,0.0,0.0,0.0,0.0,0.0,0.0,0.0,0.0,0.0,0.0,0.0,0.0,0.0,0.0,0.0,0.0,0.0,0.0,0.0,0.0,0.0,0.0,0.0,0.0,0.0,0.0,0.0,0.0,0.0,0.0,0.0,0.0,0.0,0.0,0.0,0.0,0.0,0.0,0.0,0.0,0.0,0.0,0.0,0.0,0.0,0.0,0.0,0.0,0.0,0.0,0.0,0.0,0.0,0.0,0.0,0.0,0.0,0.0,0.0,0.0,0.0,0.0,0.0,0.0,0.0,0.0,0.0,0.0,0.0,0.0,0.0,0.0,0.0,0.0,0.0,0.0,0.0,0.0,0.0,0.0,0.0,0.0,0.0,0.0,0.0,0.0,0.0,0.0,0.0,0.0,0.0,0.0,0.0,0.0,0.0,0.0,0.0,0.0,0.0,0.0,0.0,0.0,0.0,0.0,0.0,0.0,0.0,0.0,0.0,0.0,0.0,0.0,0.0,0.0,0.0,0.0,0.0,0.0,0.0,0.0,0.0,0.0,0.0,0.0,0.0,0.0,0.0,0.0,0.0,0.0,0.0,0.0,0.0,0.0,0.0,0.0,0.0,0.0,0.0,0.0,0.0,0.0,0.0,0.0,0.0,0.0,0.0,0.0,0.0,0.0,0.0,0.0,0.0,0.0,0.0,0.0,0.0,0.0,0.0,0.0,0.0,0.0,0.0,0.0,0.0,0.0,0.0,0.0,0.0,0.0,0.0,0.0,0.0,0.0,0.0,0.0,0.0,0.0,0.0,0.0,0.0,0.0,0.0,0.0,0.0,0.0,0.0,0.0,0.0,0.0,0.0,0.0,0.0,0.0,0.0,0.0,0.0,0.0,0.0,0.0,0.0,0.0,0.0,0.0,0.0,0.0,0.0,0.0,0.0,0.0,0.0,0.0,0.0,0.0,0.0,0.0,0.0,0.0,0.0,0.0,0.0,0.0,0.0,0.0,0.0,0.0,0.0,0.0,0.0,0.0,0.0,0.0,0.0,0.0,0.0,0.0,0.0,0.0,0.0,0.0,0.0,0.0,0.0,0.0,0.0,0.0,0.0,0.0,0.0,0.0,0.0,0.0,0.0,0.0,0.0,0.0,0.0,0.0,0.0,0.0,0.0,0.0,0.0,0.0,0.0,0.0,0.0,0.0,0.0,0.0,0.0,0.0,0.0,0.0,0.0,0.0,0.0,0.0,0.0,0.0,0.0,0.0,0.0,0.0,0.0,0.0,0.0,0.0,0.0,0.0,0.0,0.0,0.0,0.0,0.0,0.0,0.0,0.0,0.0,0.0,0.0,0.0,0.0,0.0,0.0,0.0,0.0,0.0,0.0,0.0,0.0,0.0,0.0,0.0,0.0,0.0,0.0,0.0,0.0,0.0,0.0,0.0,0.0,0.0,0.0,0.0,2.7569,2.5244,0.0,0.0,0.0,0.0,0.0,0.0,0.0,0.0,0.0,0.0,0.0,0.0,0.0,0.0,0.0,0.0,0.0,0.0,0.0,0.0,0.0,0.0,0.0,0.6978,0.7108,0.7397,0.7423,0.7543,0.7814,0.0,0.0,0.0,0.0,0.0,0.6928,0.7311,0.7944,0.884,1.0629,1.2725,1.5053,1.3865,1.2668,1.1465,0.0,0.0,0.0,0.0,0.0,0.0,0.0,0.0,0.0,0.0,0.0,0.0,0.0,0.0,0.0,0.0,0.0,0.0,0.0,0.0,0.0,0.0,0.0,0.0,0.0,0.0,0.0,0.0,0.0,0.0,0.0,0.0,0.0,0.0,0.0,0.0,0.0,0.0,0.0,0.0,0.0,0.0,0.0,0.0,0.0,0.0,0.0,0.0,0.0,0.0,0.0,0.0,0.0,0.0,0.0,0.0,0.0,0.0,0.0,0.0,0.0,0.0,0.0,0.0,0.0,0.0,0.0,0.0,0.0,0.0,2.9875,2.835,0.0,0.0,0.0,0.0,0.0,0.0,0.0,0.0,0.0,0.0,0.0,0.0,0.0,0.0,0.0,0.0,0.0,0.0,0.0,0.0,0.0,0.7033,0.7753,0.7828,0.8109,0.8807,0.8782,0.8727,0.8727,0.8581,0.0,0.0,0.7942,0.772,0.7652,0.8269,0.9359,1.0864,1.3969,1.668,1.9002,1.9947,1.8737,1.5682,1.397,0.0,0.0,0.0,0.0,0.0,0.0,0.0,0.0,0.0,0.0,0.0,0.0,0.0,0.0,0.0,0.0,0.0,0.0,0.0,0.0,0.0,0.0,0.0,0.0,0.0,0.0,0.0,0.0,0.0,0.0,0.0,0.0,0.0,0.0,0.0,0.0,0.0,0.0,0.0,0.0,0.0,0.0,0.0,0.0,0.0,0.0,0.0,0.0,0.0,0.0,0.0,0.0,0.0,0.0,0.0,0.0,0.0,0.0,0.0,0.0,0.0,0.0,0.0,3.1992,3.2645,3.3099,3.3099,3.4272,3.6123,3.2436,3.2214,3.408,2.9371,0.0,0.0,0.0,0.0,0.0,0.0,0.0,0.0,0.0,0.0,0.0,0.0,0.0,0.0,0.0,0.0,0.0,0.0,0.0,0.7878,0.941,0.956,0.9993,1.108,1.0689,1.0368,1.0368,0.9662,0.8939,0.8238,0.8061,0.7795,0.744,0.8474,1.0246,1.2752,1.8251,2.1612,2.2878,2.3028,2.2824,2.2262,2.036,1.9208,1.8581,0.0,0.0,0.0,0.0,0.0,0.0,0.0,0.0,0.0,0.0,0.0,0.0,0.0,0.0,0.0,0.0,0.0,0.0,0.0,0.0,0.0,0.0,0.0,0.0,0.0,0.0,0.0,0.0,0.0,0.0,0.0,0.0,0.0,0.0,0.0,0.0,0.0,0.0,0.0,0.0,0.0,2.3376,2.4064,0.0,0.0,0.0,0.0,0.0,0.0,0.0,0.0,0.0,0.0,0.0,0.0,0.0,3.0824,3.2756,3.4524,3.5767,3.6516,3.8283,3.8951,3.864,3.864,3.8817,3.912,3.8539,0.0,3.6164,3.4841,0.0,0.0,0.0,0.0,0.0,0.0,0.0,0.0,0.0,0.0,0.0,0.0,0.0,0.0,0.0,0.0,0.0,0.0,0.0,0.0,0.0,1.2328,1.33,1.4723,1.489,1.4378,1.314,1.2217,1.0993,0.94,0.8799,0.8552,0.8647,1.0832,1.4285,1.8994,2.1923,2.4032,2.536,2.57,2.5658,2.5338,2.5208,2.3294,2.0135,1.9158,0.0,0.0,0.0,0.0,0.0,0.0,0.0,0.0,0.0,0.0,0.0,0.0,0.0,0.0,0.0,0.0,0.0,0.0,0.0,0.0,0.0,0.0,0.0,0.0,0.0,0.0,0.0,0.0,0.0,0.0,0.0,0.0,0.0,0.0,0.0,0.0,0.0,0.0,0.0,2.2051,2.3826,2.4698,2.316,2.1807,0.0,0.0,0.0,0.0,0.0,0.0,0.0,0.0,0.0,3.2972,3.359,3.4895,3.6979,3.8131,3.8867,3.9193,4.0364,4.082,4.06,4.06,4.06,4.06,4.06,4.0083,3.9079,3.6923,3.4945,3.3185,0.0,0.0,0.0,0.0,3.2937,3.3238,0.0,0.0,0.0,0.0,0.0,0.0,0.0,0.0,0.0,0.0,0.0,0.0,1.4018,1.5552,1.6996,1.8517,1.8772,1.8019,1.6126,1.4458,1.2667,1.0772,0.9649,0.9414,1.0098,1.3764,1.8219,2.3454,2.4453,2.5503,2.6654,2.7177,2.7157,2.6657,2.7617,2.5827,2.2117,2.1694,2.0205,1.8043,0.0,0.0,0.0,0.0,0.0,0.0,0.0,0.0,0.0,0.0,0.0,0.0,0.0,0.0,0.0,0.0,0.0,0.0,0.0,0.0,0.0,0.0,0.0,0.0,0.0,0.0,0.0,0.0,0.0,0.0,0.0,0.0,0.0,0.0,0.0,0.0,0.0,2.379,2.5272,2.5996,2.5469,2.439,0.0,0.0,0.0,0.0,0.0,0.0,3.1322,3.248,3.4212,3.671,3.7337,3.8517,4.0326,4.0727,4.1078,4.1354,4.1754,4.2005,4.2155,4.2155,4.2155,4.2155,4.2155,4.2155,4.193,3.8893,3.7425,3.6975,3.5568,3.5078,3.5358,3.6796,3.732,3.7695,0.0,0.0,0.0,0.0,0.0,0.0,0.0,0.0,0.0,0.0,0.0,1.4084,1.6884,1.9108,2.0854,2.197,2.1154,2.0106,1.9057,1.5597,1.3117,1.2056,1.0436,1.0175,1.1471,1.6829,2.0762,2.3134,2.5262,2.6358,2.6427,2.6859,2.682,2.6427,2.6482,2.6557,2.6461,2.4864,2.3607,2.2358,1.8612,0.0,0.0,0.0,0.0,0.0,0.0,0.0,0.0,0.0,0.0,0.0,0.0,0.0,0.0,0.0,0.0,0.0,0.0,0.0,0.0,0.0,0.0,0.0,0.0,0.0,0.0,0.0,0.0,0.0,0.0,0.0,0.0,0.0,0.0,0.0,0.0,0.0,0.0,2.9603,2.9955,0.0,0.0,0.0,0.0,3.0125,3.1331,3.3165,3.5904,3.706,3.8467,4.0173,4.0775,4.1404,4.2087,4.2085,4.2637,4.3639,4.3664,4.394,4.4414,4.4414,4.4414,4.4414,4.4414,4.4414,4.4263,4.2005,4.0149,3.8868,3.9632,3.8974,3.7812,3.9492,4.0095,4.021,0.0,0.0,0.0,0.7713,0.7698,0.7749,0.7944,0.857,0.9554,1.1073,1.3986,1.6545,1.8245,2.1056,2.2964,2.3352,2.3357,2.2577,2.0794,1.7817,1.5819,1.5157,1.3193,1.4043,1.8142,2.0684,2.3162,2.5601,2.6406,2.6797,2.6797,2.6928,2.6908,2.6797,2.6797,2.6715,2.6542,2.6087,2.4701,2.2786,2.1726,1.9223,0.0,0.0,0.0,0.0,0.0,0.0,0.0,0.0,0.0,0.0,0.0,0.0,0.0,0.0,0.0,0.0,0.0,0.0,0.0,0.0,0.0,0.0,0.0,0.0,0.0,0.0,0.0,0.0,0.0,0.0,0.0,0.0,0.0,0.0,0.0,0.0,0.0,3.0884,3.2265,0.0,3.0889,3.2365,3.3693,3.4296,3.6332,3.8116,3.9496,4.0275,4.1306,4.2585,4.2811,4.3187,4.374,4.374,4.394,4.4288,4.4288,4.4414,4.4614,4.502,4.5171,4.5171,4.5171,4.5171,4.5095,4.3912,4.3084,4.2587,4.292,4.2703,4.2245,4.2829,4.3057,4.3079,0.0,0.0,0.0,0.8331,0.8306,0.8361,0.8543,0.9491,1.0794,1.2479,1.5747,1.8545,2.0174,2.2989,2.4827,2.4965,2.5135,2.4436,2.253,1.9847,1.7979,1.7237,1.6078,1.7617,2.2207,2.3281,2.482,2.6986,2.7279,2.7363,2.7246,2.7493,2.75,2.7226,2.7226,2.6992,2.6613,2.6742,2.5762,2.4072,2.3691,2.1628,1.8657,0.0,0.0,0.0,0.0,0.0,0.0,0.0,0.0,0.0,0.0,0.0,0.0,0.0,0.0,0.0,0.0,0.0,0.0,0.0,0.0,0.0,0.0,0.0,0.0,0.0,0.0,0.0,0.0,0.0,0.0,0.0,0.0,0.0,0.0,3.0387,3.2821,3.229,3.47,3.573,3.4048,3.6232,3.8014,3.8567,4.03,4.1681,4.2381,4.2785,4.3341,4.4066,4.4091,4.4242,4.4589,4.4819,4.4966,4.5167,4.5342,4.5543,4.5719,4.6125,4.6301,4.6301,4.6301,4.6301,4.6276,4.5899,4.5693,4.5618,4.489,4.4715,4.489,4.489,4.5045,4.5167,0.0,0.0,0.895,0.8437,0.8356,0.8512,0.902,1.0017,1.1737,1.4527,1.7312,2.0053,2.2681,2.4962,2.6435,2.6794,2.6341,2.5517,2.4262,2.1507,1.9376,1.8147,1.9004,2.0664,2.3113,2.4442,2.5752,2.7013,2.785,2.8098,2.7761,2.8555,2.8496,2.7761,2.7741,2.7487,2.7025,2.7031,2.6912,2.6505,2.4353,2.3532,2.3218,0.0,0.0,0.0,0.0,0.0,0.0,0.0,0.0,0.0,0.0,0.0,0.0,0.0,0.0,0.0,0.0,0.0,0.0,0.0,0.0,0.0,0.0,0.0,0.0,0.0,0.0,0.0,0.0,0.0,0.0,0.0,0.0,0.0,3.1019,3.3079,3.461,3.4081,3.734,3.9043,3.7464,3.9269,4.1225,4.2939,4.3065,4.3514,4.4564,4.4614,4.464,4.4665,4.4665,4.469,4.469,4.5271,4.5824,4.6376,4.6873,4.7369,4.7814,4.7839,4.7864,4.7864,4.7889,4.7921,4.7983,4.7958,4.7958,4.7757,4.5543,4.507,4.5573,4.5573,4.5899,4.6351,0.9623,0.9667,0.9623,0.9491,0.9466,0.9436,0.9325,1.0434,1.2039,1.4183,1.7698,2.0621,2.2173,2.4619,2.5857,2.5153,2.4934,2.4598,2.3943,2.1726,2.0371,2.0332,2.2969,2.4498,2.4626,2.5318,2.6141,2.7077,2.7298,2.8014,2.907,2.9305,2.9305,2.9051,2.8711,2.834,2.793,2.7643,2.7269,2.6834,2.5939,2.4453,2.2756,0.0,0.0,0.0,0.0,0.0,0.0,0.0,0.0,0.0,0.0,0.0,0.0,0.0,0.0,0.0,0.0,0.0,0.0,0.0,0.0,0.0,0.0,0.0,0.0,0.0,0.0,0.0,0.0,0.0,0.0,0.0,3.0627,3.2975,3.3491,3.5648,3.7108,3.6964,3.7582,3.847,3.9561,4.0568,4.1997,4.403,4.4166,4.4493,4.5221,4.5246,4.5623,4.6396,4.6421,4.6597,4.7004,4.7154,4.733,4.7481,4.7631,4.7077,4.5966,4.6697,4.7066,4.7108,4.7452,4.8395,4.9658,4.9289,4.9138,4.8987,4.7556,4.7104,4.723,4.723,4.733,4.7481,0.9503,0.9742,0.9893,0.9893,0.9893,0.9838,0.9675,1.0876,1.2657,1.4948,1.8059,2.0828,2.2833,2.4083,2.4614,2.4146,2.3473,2.2717,2.1886,2.1004,2.0787,2.1374,2.4146,2.5365,2.4744,2.5836,2.6627,2.7093,2.7961,2.8804,2.9598,2.9774,2.9774,2.9579,2.9297,2.9062,2.8836,2.8406,2.7949,2.7519,2.7115,2.5918,2.4339,2.3954,2.314,2.2077,2.1402,2.1519,2.1964,2.1351,0.0,0.0,0.0,0.0,0.0,0.0,0.0,0.0,0.0,0.0,0.0,0.0,0.0,0.0,0.0,0.0,0.0,0.0,0.0,0.0,0.0,0.0,0.0,0.0,3.2725,3.4872,3.5939,3.7099,3.7863,3.8042,3.8028,3.8588,3.9983,4.0426,4.1305,4.2968,4.3101,4.3412,4.4178,4.4225,4.4489,4.5111,4.5318,4.5494,4.5574,4.6212,4.6394,4.6212,4.6666,4.6295,4.5283,4.5884,4.6172,4.6241,4.6496,4.7256,4.828,4.7969,4.7849,4.7887,0.0,0.0,0.0,0.0,4.9314,4.9314,0.9163,0.9573,0.9893,0.9893,0.9861,0.9858,0.9937,1.1183,1.3197,1.616,1.8267,2.0703,2.3826,2.3468,2.3128,2.3448,2.2109,2.0699,1.9389,2.0114,2.0945,2.1739,2.3554,2.438,2.3965,2.5708,2.6665,2.6701,2.8551,2.9374,2.9181,2.9565,2.9527,2.9209,2.934,2.9405,2.9385,2.9097,2.875,2.834,2.7976,2.75,2.683,2.5269,2.4868,2.4937,2.339,2.2801,2.2754,2.269,0.0,0.0,0.0,0.0,0.0,0.0,0.0,0.0,0.0,0.0,0.0,0.0,0.0,0.0,0.0,0.0,0.0,0.0,0.0,0.0,0.0,0.0,0.0,0.0,3.5047,3.7169,3.7594,3.7316,3.7295,3.7834,3.8185,3.8671,3.9326,3.9392,3.9885,4.1055,4.1177,4.1556,4.2438,4.2549,0.0,0.0,0.0,4.3162,4.275,4.4043,4.4489,4.41,4.4971,4.5288,4.5074,4.5118,4.5176,4.5198,4.5243,4.5372,4.5587,4.5654,4.5685,4.5975,4.8251,4.9421,4.9917,5.0487,5.0686,5.072,0.9573,0.9818,0.9893,0.9893,0.9673,0.9509,0.9581,1.0452,1.2326,1.5752,1.776,1.987,2.2502,2.2901,2.2743,2.2156,2.1778,2.1271,2.0516,2.1279,2.1901,2.2176,2.3585,2.3974,2.3142,2.3519,2.3884,2.4284,2.4683,2.5489,2.67,2.6786,2.6769,2.676,2.7703,2.8147,2.8197,2.9104,2.9199,2.8789,2.8711,2.8008,2.6947,2.6641,2.654,2.6552,2.6192,2.6685,2.7411,2.6987,2.6474,2.5859,2.5199,2.3564,0.0,0.0,0.0,0.0,0.0,0.0,0.0,0.0,0.0,0.0,0.0,0.0,0.0,0.0,0.0,0.0,0.0,0.0,0.0,3.2746,3.4003,3.4883,3.5292,3.5272,3.5712,3.7108,3.6248,3.6359,3.8567,3.8783,3.9702,4.196,4.2126,4.2426,4.3096,4.3431,4.381,4.4246,4.4703,4.4926,4.4814,4.5105,4.5194,4.5105,4.5305,0.0,4.3149,4.3531,4.3774,4.389,4.4215,4.5255,4.6709,4.7112,4.744,4.7634,4.6618,4.6297,4.6399,4.6867,4.7049,4.7332,0.9692,0.9893,0.9893,0.9893,0.962,0.9486,0.9768,1.0368,1.1916,1.5032,1.6966,1.8683,2.0376,2.0364,1.9838,1.8788,1.821,1.8132,1.8711,2.0004,2.09,2.1228,2.2615,2.2975,2.2038,2.2811,2.3379,2.3605,2.4425,2.5192,2.6015,2.6015,2.6015,2.6029,2.6645,2.7351,2.8131,2.8533,2.9041,2.9531,2.9336,2.8867,2.8223,2.7578,2.7344,2.7305,2.709,2.7399,2.7869,2.7597,2.7614,2.762,2.6739,2.5655,2.434,0.0,0.0,0.0,0.0,0.0,0.0,0.0,0.0,0.0,0.0,0.0,0.0,0.0,0.0,2.7401,2.9599,0.0,3.1805,3.3656,3.4191,3.4609,3.5273,3.5351,3.5652,3.6461,3.5831,3.602,3.7792,3.7942,3.8548,4.0048,4.0368,4.0703,4.122,4.1644,4.2021,4.2266,4.2727,4.2852,4.2643,4.3083,4.3171,4.2941,4.3208,4.2811,4.1913,4.2358,4.2598,4.2657,4.3064,4.3808,4.4733,4.4964,4.5155,4.526,4.4263,4.5127,4.689,4.7076,4.7128,4.7321,0.9717,0.9893,0.9893,0.9893,0.9561,0.9475,1.0016,1.0362,1.1548,1.4298,1.5972,1.7245,1.8191,1.7603,1.6669,1.5489,1.4755,1.5044,1.6687,1.8331,1.9528,2.0177,2.1391,2.1734,2.1127,2.2435,2.3107,2.3107,2.4409,2.5039,2.5039,2.5039,2.5039,2.5069,2.5375,2.6258,2.7494,2.7789,2.8621,2.9728,2.9711,2.9676,2.9481,2.8464,2.8054,2.7995,2.7539,2.7357,2.7357,2.7357,2.7953,2.8558,2.7653,2.7464,2.7043,2.4383,2.3346,0.0,0.0,0.0,0.0,0.0,0.0,0.0,0.0,2.4191,2.5059,2.6847,2.7975,2.9226,3.1152,3.1855,3.2754,3.4648,3.4961,3.5254,3.6152,3.6235,3.6328,3.6504,3.6367,3.6562,3.7344,3.75,3.7715,3.8108,3.8574,3.8984,3.9316,3.9766,4.0019,4.0019,4.043,4.0488,4.0156,4.0918,4.1113,4.0781,4.1211,4.1426,4.1426,4.1758,4.1914,4.1933,4.2285,4.244,4.2558,4.2558,4.2557,4.2635,4.2635,4.4594,4.7399,4.7312,4.7269,4.7367,0.9792,0.9893,0.9893,0.9893,0.9336,0.9141,0.9977,0.9893,1.0802,1.3796,1.4707,1.5541,1.6705,1.6218,1.54,1.4379,1.4887,1.5802,1.7072,1.8063,1.9074,2.0144,2.0379,2.0661,2.1096,2.1299,2.1393,2.1393,2.1569,2.1664,2.1664,2.1664,2.1664,2.1713,2.3201,2.3962,2.4332,2.7129,2.8215,2.8199,2.9594,2.9931,2.9579,2.9442,2.9383,2.9324,2.8867,2.8684,2.8684,2.8684,2.8538,2.8389,2.8621,2.8481,2.7966,2.6849,2.5632,2.4345,2.2972,2.2186,2.2364,2.4707,2.5352,2.6424,0.0,3.0128,2.9815,3.1219,3.2152,3.2945,3.3625,3.4062,3.4687,3.5703,3.5845,3.6172,3.7031,3.7148,3.7441,3.8239,3.7617,3.7344,3.7777,3.8203,3.8613,3.9023,3.9492,3.9766,3.9824,4.0215,4.0411,4.0411,4.0879,4.1113,4.1074,4.1504,4.1699,4.166,4.209,4.2285,4.2245,4.2304,4.2323,4.2363,4.2362,4.2656,4.3008,4.3008,4.3223,4.3555,4.3555,4.3842,4.4173,4.3796,4.3657,4.3999,0.9742,0.9893,0.9893,0.9893,0.9279,0.9016,0.9647,0.9661,1.0225,1.202,1.3086,1.3689,1.3676,1.274,1.2128,1.2235,1.3391,1.4763,1.6286,1.7702,1.8931,1.9903,1.9987,2.0254,2.0842,2.0855,2.0935,2.1109,2.1109,2.1109,2.1109,2.1109,2.1109,2.1141,2.1821,2.2685,2.3698,2.5024,2.6597,2.8203,2.888,2.964,3.0341,3.0039,2.997,2.9833,2.8887,2.8215,0.0,2.8379,2.8281,2.8112,2.9004,2.8699,2.7839,2.7192,2.6231,2.5461,2.5892,2.591,2.6104,2.7348,2.7878,2.8591,3.0545,3.0977,3.1395,3.2964,3.375,3.4297,3.4766,3.498,3.5391,3.6269,3.6406,3.6699,3.7539,3.7871,3.8262,3.8867,3.8867,3.8887,3.9062,3.9238,3.9414,3.959,4.0019,4.0254,4.0254,4.0664,4.1016,4.1269,4.1445,4.166,4.1894,4.207,4.2168,4.2168,4.2304,4.2382,4.2401,4.2695,4.293,4.3164,4.3164,4.3281,4.3437,4.3437,4.3555,4.3711,4.3711,4.3711,4.3691,4.3496,4.3437,4.358,0.9522,0.9799,0.9893,0.9893,0.9389,0.9089,0.9433,0.9447,0.9689,1.0449,1.1504,1.196,1.1387,1.0391,1.0019,1.0625,1.2073,1.3647,1.5328,1.7208,1.8664,1.9639,1.976,2.004,2.0548,2.0548,2.0655,2.0837,2.0837,2.0909,2.0989,2.0989,2.0989,2.0989,2.0989,2.1624,2.269,2.3151,2.4707,2.687,2.7316,2.8219,2.9321,2.9374,2.8918,2.8219,2.8021,2.7539,2.7006,2.7168,2.7187,2.733,2.8223,2.8073,2.7448,2.7109,2.6303,2.5796,2.707,2.7907,2.8563,2.9124,2.9961,3.0771,3.1172,3.1855,3.2754,3.4016,3.459,3.5,3.5332,3.5586,3.5976,3.6719,3.6968,3.7266,3.8008,3.8379,3.8826,3.9336,3.9687,3.998,4.0234,4.0137,4.0078,4.0078,4.0469,4.0742,4.084,4.1172,4.1543,4.1953,4.1973,4.2129,4.2382,4.2539,4.2598,4.2617,4.2734,4.2733,4.2793,4.3105,4.3418,4.3711,4.3711,4.3711,4.3711,4.3711,4.3711,4.3711,4.3711,4.3711,4.3711,4.3711,4.3711,4.3711,0.9113,0.9554,0.9893,0.9893,0.9607,0.9423,0.9477,0.9174,0.9099,0.9569,1.0078,1.0431,1.0606,1.0357,1.0163,1.0122,1.1462,1.2959,1.4434,1.6473,1.817,1.9361,1.9653,1.9947,2.021,2.0224,2.0224,2.0224,2.0224,2.037,2.0726,2.0726,2.0726,2.0726,2.0726,2.0565,2.0406,2.2035,2.2766,2.3004,2.4564,2.5219,2.5422,2.6853,2.569,2.3639,2.6133,2.7006,2.6758,2.5074,2.5074,2.5776,2.5815,2.6381,2.7006,2.6986,2.6094,2.5121,2.518,2.6436,2.8126,2.9746,3.1738,3.3418,3.3899,3.4297,3.4609,3.4668,3.5039,3.5371,3.5391,3.6108,3.6812,3.7207,3.7617,3.8047,3.8496,3.8611,3.8943,3.9766,3.9883,4.0215,4.1093,4.0762,4.0469,4.0469,4.0898,4.1328,4.1738,4.1777,4.1973,4.2362,4.2362,4.2382,4.2382,4.2851,4.3066,4.3066,4.3476,4.3672,4.3672,4.3691,4.3691,4.3711,4.3711,4.3711,4.3711,4.3711,4.3711,4.3711,4.3711,4.3711,4.3711,4.3711,4.3711,4.3711,0.8956,0.9233,0.9478,0.9843,0.9803,0.9674,0.9463,0.9123,0.895,0.9115,0.9536,0.0,0.0,0.0,0.0,0.0,1.1008,1.2144,1.3786,1.5685,1.7274,1.8409,1.893,1.941,1.9933,1.9947,2.001,2.0197,2.0197,2.025,2.0374,2.0374,2.0374,2.0374,2.0374,2.029,2.0227,2.0788,2.1676,2.2736,2.3284,2.4052,2.4892,2.5292,2.4122,2.2306,0.0,2.2954,2.3054,2.3757,2.3981,2.4196,2.5347,2.5503,2.5269,2.5269,2.5801,2.6602,2.778,2.8933,3.0302,3.2296,3.332,3.3965,3.4394,3.4824,3.5156,3.5156,3.5039,3.5019,3.5332,3.5625,3.6055,3.6792,3.7461,3.8086,3.8516,3.8809,3.9219,3.9824,4.0137,4.0547,4.1152,4.1035,4.0957,4.0957,4.1348,4.166,4.1797,4.207,4.2422,4.2851,4.2851,4.2988,4.3262,4.3418,4.3496,4.3496,4.3633,4.3711,4.3711,4.3711,4.3711,4.3711,4.3711,4.3711,4.3711,4.3711,4.3711,4.3711,4.3711,4.3711,4.3711,4.3711,4.3711,4.3711,0.8668,0.9132,0.9503,0.9849,0.9893,0.0,0.0,0.0,0.0,0.0,0.0,0.0,0.0,0.0,0.0,0.0,0.0,1.1142,1.258,1.4349,1.5818,1.6875,1.7382,1.7943,1.8531,1.833,1.8464,1.8943,1.9078,1.9292,1.9583,1.969,1.973,1.973,1.973,1.9677,1.9583,1.9583,2.027,2.1321,2.1003,2.1406,2.2163,2.2188,2.1068,0.0,1.9817,1.9655,1.954,2.1177,2.1815,2.2186,2.3474,2.3778,2.3827,2.4644,2.5536,2.6862,2.9556,3.0684,3.1621,3.3801,3.4446,3.4446,3.4018,3.4284,3.4418,3.37,3.3625,3.3809,3.4094,3.4955,3.5742,3.6186,3.7305,3.8262,3.8571,3.8945,3.9434,4.0039,4.0351,4.0684,4.1133,4.1348,4.1328,4.123,4.1562,4.1875,4.2012,4.2422,4.2851,4.3281,4.3301,4.3437,4.3711,4.3711,4.3711,4.3711,4.3711,4.3711,4.3711,4.3711,4.3711,4.3711,4.3711,4.3711,4.3711,4.3711,4.3711,4.3711,4.3711,4.3808,4.3945,4.3945,4.4043,4.416,0.8281,0.9115,0.9843,0.0,0.0,0.0,0.0,0.0,0.0,0.0,0.0,0.0,0.0,0.0,0.0,0.0,0.0,0.0,1.0891,1.254,1.3914,1.4874,1.5186,1.5628,1.6217,1.5658,1.5778,1.662,1.6939,1.7528,1.8343,1.8624,1.873,1.873,1.8786,1.8666,1.8439,1.8439,1.8615,1.8776,1.7889,1.7527,1.7534,1.7888,1.6809,1.5388,1.726,1.7171,1.6401,1.7651,1.8932,2.01,2.0644,2.1528,2.2841,2.5077,2.5465,2.6104,3.0393,3.1512,3.1977,3.4089,3.486,3.4614,3.2816,3.2709,3.2508,3.0632,3.1012,3.1722,3.1753,3.3981,3.5699,3.5449,3.7207,3.865,3.8669,3.8984,3.9551,4.0372,4.0508,4.0723,4.1211,4.1582,4.166,4.1308,4.1621,4.2031,4.2401,4.2871,4.3301,4.3691,4.3711,4.3711,4.3711,4.3711,4.3711,4.3711,4.3711,4.3711,4.3711,4.3711,4.3711,4.3711,4.3711,4.3711,4.3711,4.3711,4.3711,4.373,4.373,4.4023,4.4433,4.4433,4.4687,4.4938,0.0,0.0,0.0,0.0,0.0,0.0,0.0,0.0,0.0,0.0,0.0,0.0,0.0,0.0,0.0,0.0,0.0,0.0,0.9982,1.1232,1.2473,1.3614,1.417,1.4718,1.533,1.5173,1.5213,1.5427,1.5722,1.5965,1.6192,1.6462,1.6595,1.662,1.7362,1.7675,1.7603,1.7603,1.7858,1.8162,1.7222,1.6593,1.6213,1.6556,1.5182,1.325,1.4797,1.46,1.4187,1.7757,2.0006,2.1567,2.2985,2.2961,2.2882,2.5424,2.6733,2.8075,3.1183,3.1664,3.1547,3.2765,3.211,3.1116,3.0919,3.0949,3.071,2.9577,2.9043,2.9019,2.9825,3.1561,3.342,3.5126,3.7441,3.916,3.9512,3.9648,3.9922,4.043,4.082,4.1172,4.1601,4.2031,4.2187,4.2109,4.25,4.2793,4.291,4.332,4.3594,4.3691,4.3711,4.3711,4.3711,4.3711,4.3711,4.3711,4.3711,4.3711,4.3711,4.3711,4.3711,4.3711,4.3711,4.3711,4.3711,4.3711,4.3906,4.4219,4.4219,4.4492,4.4863,4.4863,4.4899,4.5058,0.0,0.0,0.0,0.0,0.0,0.0,0.0,0.0,0.0,0.0,0.0,0.0,0.0,0.0,0.0,0.0,0.0,0.0,0.0,0.9857,1.0789,1.1623,1.238,1.3069,1.366,1.341,1.371,1.462,1.4398,1.4692,1.539,1.5475,1.5539,1.556,1.6131,1.639,1.639,1.639,1.6618,0.0,0.0,1.5511,1.5373,1.5006,1.3996,1.288,1.3673,1.4412,1.5554,1.9075,2.0847,2.1787,2.2932,2.2721,2.2557,2.5235,2.6206,2.7084,3.0062,3.0609,3.051,3.134,3.0748,2.9701,2.8726,2.8487,2.7981,2.6134,2.6343,2.6958,2.7219,3.045,3.341,3.4362,3.7324,3.959,3.9863,4.0059,4.0391,4.1016,4.1289,4.1621,4.2031,4.2461,4.2715,4.2715,4.2949,4.3127,4.3127,4.3476,4.3711,4.3711,4.3711,4.3711,4.3711,4.3711,4.3711,4.3711,4.3711,4.3711,4.3711,4.3711,4.3808,4.4004,4.4004,4.4004,4.4023,4.4219,4.4336,4.4414,4.4609,4.4941,4.5312,4.5312,4.543,4.5625,0.0,0.0,0.0,0.0,0.0,0.0,0.0,0.0,0.0,0.8844,0.8165,0.7688,0.7626,0.7551,0.0,0.0,0.0,0.0,0.0,0.0,0.9384,0.9727,1.0567,1.1301,1.1878,1.142,1.2027,1.3778,1.3112,1.353,1.4956,1.4891,1.4847,1.4866,1.4997,1.5053,1.5053,1.5053,1.5251,1.5504,1.4563,1.4444,1.4694,0.0,1.3122,1.3203,1.3284,1.5181,1.8017,2.0307,2.1259,2.1567,2.212,2.2053,2.2288,2.484,2.5015,2.5077,2.8287,2.8982,2.8972,2.9675,2.9676,2.8853,2.6392,2.5735,2.4838,2.1951,2.3281,2.4785,2.4253,2.9357,3.3559,3.3334,3.6852,3.9726,4.0019,4.043,4.0976,4.1719,4.1894,4.2109,4.248,4.291,4.3164,4.3164,4.3164,4.3164,4.3164,4.3496,4.3711,4.3711,4.3711,4.3711,4.3711,4.3711,4.3711,4.3711,4.3711,4.3711,4.3711,4.3711,4.3965,4.4394,4.4394,4.4433,4.4512,4.4883,4.4844,4.4609,4.498,4.5371,4.5762,4.5762,4.5996,4.6308,0.0,0.0,0.0,0.0,0.0,0.0,0.0,0.0,0.0,0.0,0.9303,0.7838,0.0,0.0,0.0,0.0,0.0,0.0,0.0,0.0,0.0,0.9931,1.0412,1.087,1.1255,1.1469,1.1776,1.2118,1.2203,1.2395,1.2676,1.2933,1.3044,1.3076,1.3854,1.42,1.42,1.42,1.4495,1.4866,1.3929,1.367,1.375,1.288,1.2346,0.0,1.2699,1.4178,1.6178,1.8294,2.0487,2.2527,2.3934,2.3569,2.304,2.4963,2.5402,2.5801,2.8223,2.7881,2.6998,2.7448,2.6408,2.501,2.4008,2.3249,2.2228,2.0479,2.0328,2.07,2.1284,2.504,2.9012,3.2151,3.5784,3.8887,4.0741,4.1308,4.1641,4.1777,4.2422,4.2891,4.2949,4.334,4.3594,4.3594,4.3594,4.3594,4.3594,4.3672,4.3711,4.3711,4.3711,4.3711,4.3711,4.3711,4.3711,4.3711,4.3711,4.3711,4.3711,4.3711,4.3965,4.4394,4.4394,4.459,4.4879,4.4957,4.5195,4.5469,4.5527,4.582,4.6191,4.6191,4.623,4.6308,0.0,0.0,0.0,0.0,0.0,0.0,0.0,1.1588,1.2292,1.3463,1.2098,1.0682,0.9801,0.8994,0.8594,0.0,0.0,0.0,0.0,0.0,0.0,0.953,1.0431,1.0986,1.1149,1.1546,1.2035,1.2649,0.0,1.2263,1.2823,1.2768,1.2755,1.2768,1.3236,1.3439,1.3439,1.3439,1.3581,1.3763,1.3331,1.3428,1.3774,1.2961,1.2492,0.0,1.2471,1.3782,1.5618,1.7074,1.9342,2.179,2.3182,2.3281,2.3065,2.389,2.4162,2.4388,2.5628,2.5351,2.4855,2.5236,2.4671,2.3661,2.2445,2.1724,2.0833,1.9011,1.9306,2.0099,2.0831,2.467,2.8624,3.1245,3.5153,3.8359,3.9648,4.0957,4.1875,4.2109,4.2695,4.3164,4.3379,4.3594,4.3711,4.3711,4.3711,4.3711,4.3711,4.3711,4.3711,4.3711,4.3711,4.3711,4.3711,4.3711,4.3711,4.3711,4.3711,4.3711,4.3711,4.3945,4.4297,4.4746,4.4961,4.5176,4.5371,4.5605,4.5683,4.5703,4.5918,4.6133,4.6308,4.6308,4.6308,4.6308,0.0,0.0,0.0,0.0,0.0,0.0,1.1994,1.2744,1.3662,1.5479,1.5048,1.3856,1.1934,1.0346,0.9334,0.0,0.0,0.0,0.0,0.0,0.0,0.0,1.0606,1.1285,1.1285,0.0,0.0,1.3379,1.247,0.0,0.0,0.0,0.0,0.0,1.3101,1.3101,1.3101,1.3101,1.3017,0.0,0.0,1.3379,1.4013,0.0,0.0,0.0,0.0,1.3587,1.5204,1.6393,1.8224,2.0177,2.1443,2.2271,2.28,2.28,2.28,2.2832,2.314,2.3273,2.3345,2.3621,2.3674,2.3233,2.1496,2.0735,1.987,1.7916,1.8551,1.9634,2.0235,2.424,2.802,2.9833,3.3888,3.7246,3.8454,4.0273,4.1758,4.2304,4.2891,4.334,4.3672,4.3711,4.3711,4.3711,4.3711,4.3711,4.3711,4.3711,4.3711,4.3711,4.3711,4.3711,4.3711,4.3711,4.3711,4.3711,4.3711,4.375,4.3867,4.4238,4.4687,4.5176,4.5527,4.5766,4.584,4.6172,4.6113,4.584,4.6172,4.6308,4.6308,4.6308,4.6308,4.6308,0.0,0.0,0.0,0.0,0.0,0.0,1.1994,1.334,1.5096,1.7967,1.7077,1.5738,1.4568,1.2586,1.1032,0.0,0.0,0.0,0.0,0.0,0.0,0.0,0.0,0.0,0.0,0.0,0.0,1.2974,1.2842,0.0,0.0,0.0,0.0,0.0,0.0,1.3709,1.3709,1.3709,0.0,0.0,0.0,0.0,0.0,0.0,0.0,0.0,0.0,1.3407,1.4106,1.6391,1.7326,1.7822,1.9506,2.1149,2.2458,2.2458,2.2458,2.2525,2.2853,2.3113,2.3305,2.3332,2.3332,2.2932,2.1456,2.0267,1.908,1.7554,1.6931,1.6839,1.7456,2.0592,2.4054,2.7069,3.0767,3.4512,3.8102,3.9766,4.1035,4.2245,4.3144,4.3672,4.3691,4.3711,4.3711,4.3711,4.3711,4.3711,4.3711,4.3711,4.3711,4.3711,4.3711,4.3711,4.3711,4.3711,4.3711,4.3711,4.3711,4.3926,4.4336,4.4375,4.4844,4.5668,4.5707,4.5898,4.625,4.6289,4.6289,4.625,4.6289,4.6308,4.6308,4.6308,4.6308,4.6308,0.0,0.0,0.0,0.0,0.0,0.0,1.2892,1.4041,1.5473,1.8056,1.7783,1.7003,1.6055,1.4539,1.2798,1.0889,0.0,0.0,0.0,0.0,0.0,0.0,0.0,0.0,0.0,0.0,1.3612,1.3978,1.3978,0.0,0.0,0.0,0.0,0.0,0.0,1.4341,1.4318,1.3945,0.0,0.0,0.0,0.0,0.0,0.0,0.0,0.0,0.0,0.0,1.38,1.5137,1.6297,1.7326,1.801,1.9321,2.0762,2.1676,2.2017,2.2258,2.2773,2.2987,2.3046,2.3046,2.2779,2.2138,2.0655,1.9559,1.8451,1.6953,1.6458,1.6918,1.8992,2.0893,2.3408,2.7259,3.0185,3.2832,3.5156,3.748,3.9396,4.0742,4.1894,4.2871,4.3633,4.3711,4.3711,4.3711,4.3711,4.3711,4.3711,4.3711,4.3711,4.3711,4.3711,4.3711,4.3711,4.3711,4.3711,4.3711,4.3711,4.3945,4.4414,4.4668,4.5098,4.5727,4.5937,4.6152,4.6308,4.6308,4.6308,4.6308,4.6308,4.6308,4.6308,4.6308,4.6308,4.6308,0.0,0.0,0.0,0.0,0.0,1.0335,1.3279,1.4347,1.5554,1.7684,1.7653,1.7256,1.6758,1.529,1.3768,1.2316,1.1604,0.0,0.0,0.0,0.0,0.0,0.0,0.0,0.0,0.0,1.4271,1.4698,1.4866,1.4866,0.0,0.0,1.4936,1.4971,0.0,0.0,0.0,0.0,0.0,0.0,0.0,0.0,0.0,0.0,0.0,0.0,0.0,0.0,0.0,0.0,0.0,1.6773,1.7156,1.7843,1.8839,2.0659,2.1462,2.1871,2.2586,2.2827,2.2893,2.2893,2.2452,2.1603,2.0134,1.9118,1.8063,1.6605,1.623,1.6877,1.916,2.0679,2.2782,2.6474,2.9143,3.1396,3.334,3.5664,3.7715,3.9141,4.0332,4.1543,4.2832,4.3418,4.3711,4.3711,4.3711,4.3711,4.3711,4.3711,4.3711,4.3711,4.3711,4.3711,4.3711,4.3711,4.3711,4.3711,4.3848,4.4141,4.459,4.5019,4.5449,4.5879,4.6172,4.6308,4.6308,4.6308,4.6308,4.6308,4.6308,4.6308,4.6308,4.6308,4.6308,4.6308,0.0,0.0,0.0,0.0,0.0,0.0,1.2782,1.4072,1.5442,1.7182,1.6672,1.6267,1.6645,1.4507,1.3531,1.4857,1.3024,0.0,0.0,0.0,0.0,0.0,0.0,0.0,0.0,0.0,1.4686,1.4698,1.5238,1.5204,1.472,1.5226,1.5532,1.5576,0.0,0.0,0.0,0.0,0.0,0.0,0.0,0.0,1.3043,0.0,0.0,0.0,0.0,0.0,0.0,0.0,0.0,0.0,0.0,1.6965,1.6846,1.9437,2.0624,2.1309,2.2191,2.2632,2.2893,2.2893,2.2452,2.1603,2.0134,1.9118,1.8063,1.6605,1.6046,1.5995,1.6618,1.8984,2.157,2.3869,2.6875,3.0156,3.3606,3.4844,3.6055,3.7718,3.8711,3.9746,4.1113,4.2715,4.3711,4.3711,4.3711,4.3711,4.3711,4.3711,4.3711,4.3711,4.3711,4.3711,4.3711,4.3711,4.3711,4.3711,4.418,4.4609,4.4996,4.5469,4.5898,4.6289,4.6308,4.6308,4.6308,4.6308,4.6308,4.6308,4.6308,4.6308,4.6308,4.6308,4.6308,4.6308,0.0,0.0,0.0,0.0,0.0,0.0,1.1803,1.2624,1.3622,1.5083,1.5041,1.5219,1.6185,1.489,1.422,1.4863,1.331,0.0,0.0,0.0,0.0,0.0,0.0,0.0,0.0,1.4805,1.5899,1.7095,1.7265,1.7447,1.763,1.7447,1.7151,1.6817,1.64,1.5985,0.0,0.0,0.0,0.0,0.0,1.3697,1.3795,0.0,0.0,0.0,0.0,0.0,0.0,0.0,0.0,0.0,0.0,0.0,0.0,1.8554,1.9402,2.0067,2.0704,2.1149,2.1355,2.1122,2.0628,1.995,1.8823,1.8063,1.7301,1.6192,1.5875,1.6269,1.7777,1.8763,2.0827,2.5316,2.6874,2.8766,3.231,3.4531,3.6348,3.7718,4.0508,4.2441,4.2871,4.3379,4.3711,4.3711,4.3711,4.3711,4.3711,4.3711,4.3711,4.3711,4.3711,4.3711,4.3711,4.3711,4.3867,4.418,4.4336,4.4766,4.5469,4.5605,4.5898,4.6308,4.6308,4.6308,4.6308,4.6308,4.6308,4.6308,4.6308,4.6308,4.6308,4.6308,4.6308,4.6308,0.0,0.0,0.0,0.0,0.0,0.0,0.0,1.1777,1.254,1.3411,1.3324,1.3915,1.5706,1.4395,1.3879,1.5101,1.372,0.0,0.0,0.0,0.0,0.0,0.0,0.0,1.4396,1.5198,1.6593,1.8493,1.8694,1.9083,1.9635,1.951,1.8807,1.7688,1.7325,1.6578,0.0,0.0,0.0,0.0,1.334,1.3737,1.4153,0.0,0.0,0.0,0.0,0.0,0.0,0.0,0.0,0.0,0.0,0.0,0.0,0.0,1.8796,1.9016,1.9569,1.996,2.0164,1.9947,1.9466,1.8866,1.8022,1.7408,1.6792,1.5968,1.5808,1.6204,1.756,1.8737,2.0805,2.4814,2.6573,2.8644,3.2174,3.416,3.5996,3.7949,4.0879,4.2812,4.2969,4.3418,4.3711,4.3711,4.3711,4.3711,4.3711,4.3711,4.3711,4.3711,4.3711,4.3711,4.3711,4.3711,4.3945,4.4394,4.4551,4.5,4.5727,4.584,4.6055,4.6308,4.6308,4.6308,0.0,4.6308,4.6308,4.6308,4.6308,4.6308,4.6308,4.6308,4.6308,4.6308,0.0,0.0,0.0,0.0,0.0,0.0,0.0,1.1434,1.2045,1.215,1.1755,1.2454,1.496,1.3188,1.2771,1.5186,0.0,0.0,0.0,0.0,0.0,0.0,0.0,0.0,1.4893,1.5427,1.6798,1.9058,1.961,2.0201,2.0893,2.1382,2.0439,1.8304,1.8267,1.7231,1.5454,1.426,1.3397,1.2935,1.334,1.3737,0.0,0.0,0.0,0.0,0.0,0.0,0.0,0.0,0.0,0.0,0.0,0.0,0.0,0.0,0.0,0.0,0.0,1.9045,1.9342,1.9243,1.8799,1.821,1.7648,1.7061,0.0,1.6034,1.595,1.6082,1.6603,1.8962,2.141,2.3125,2.6141,2.9497,3.2957,3.4082,3.5639,3.8532,4.037,4.1484,4.1855,4.2988,4.3711,4.3711,4.3711,4.3711,4.3711,4.3711,4.3711,4.3711,4.3711,4.3711,4.3711,4.3711,4.3945,4.4453,4.4844,4.5273,4.5785,4.6133,4.6308,4.6308,4.6308,4.6308,4.6308,4.6308,4.6308,4.6308,4.6308,4.6308,4.6308,4.6308,4.6308,4.6308,0.0,0.0,0.0,0.0,0.0,0.0,0.0,0.0,0.0,0.0,1.1996,1.207,1.1865,1.2456,1.2771,0.0,0.0,0.0,0.0,0.0,0.0,0.0,0.0,0.0,1.4893,1.5427,1.6974,1.9597,2.0201,2.1181,2.2533,2.2669,2.1554,1.9409,1.8995,1.7375,1.4835,1.3612,1.3029,1.2935,1.334,1.3737,0.0,0.0,0.0,0.0,1.6547,1.7447,0.0,0.0,0.0,0.0,0.0,0.0,0.0,0.0,1.8224,1.7032,1.7365,0.0,1.8803,1.7616,1.7221,1.7034,0.0,1.6498,1.6551,1.7116,1.7241,1.7942,2.0165,2.0867,2.2283,2.5876,2.745,2.9546,3.3389,3.6855,3.9629,4.1328,4.2461,4.3027,4.2793,4.334,4.3711,4.3711,4.3711,4.3711,4.3711,4.3711,4.3711,4.3711,4.3711,4.3711,4.3711,4.3711,4.4101,4.4883,4.4938,4.543,4.6152,4.625,4.6308,4.6308,4.6308,4.6308,4.6308,4.6308,4.6308,4.6308,4.6308,4.6308,4.6308,4.6308,4.6308,4.6348,0.0,0.0,0.0,0.0,0.0,0.0,0.0,0.0,0.0,0.0,1.1224,1.1216,1.1116,1.1678,0.0,0.0,0.0,0.0,0.0,0.0,0.0,0.0,0.0,1.3812,1.4868,1.5185,1.6945,2.0201,2.0792,2.202,2.3873,2.3873,2.2558,2.0124,1.7995,1.615,1.4618,1.3406,1.2915,1.2935,1.334,0.0,0.0,0.0,0.0,0.0,1.6547,1.7525,0.0,1.959,2.0488,2.121,0.0,0.0,0.0,0.0,1.8807,1.7406,1.8174,1.8427,1.8184,1.6845,1.7383,1.7911,1.6592,1.6636,1.708,1.7612,1.7684,1.8386,2.0654,2.2289,2.399,2.61,2.8965,3.2149,3.5675,3.8672,4.0957,4.2245,4.3008,4.3398,4.3359,4.3574,4.3711,4.3711,4.3711,4.3711,4.3711,4.3711,4.3711,4.3711,4.3711,4.3711,4.3711,4.3926,4.4355,4.4977,4.5234,4.5664,4.6308,4.6308,4.6308,4.6308,4.6308,4.6308,4.6308,4.6308,4.6308,4.6308,4.6308,4.6308,4.6308,4.6308,4.6308,4.6367,0.0,0.0,0.0,0.0,0.0,0.0,0.0,0.0,0.0,0.0,0.0,0.0,0.0,0.0,0.0,0.0,0.0,0.0,0.0,0.0,0.0,0.0,1.2488,1.3308,1.4994,1.4944,1.6744,2.0566,2.1281,2.2723,2.48,2.4895,2.3387,2.0435,1.6561,1.4805,1.4618,1.3406,1.2915,1.2954,1.3405,0.0,0.0,0.0,0.0,0.0,0.0,0.0,0.0,1.9921,2.0703,2.1249,2.1504,0.0,0.0,0.0,0.0,0.0,1.983,1.9485,1.8402,1.7036,1.8405,1.9516,1.7289,1.7255,1.7816,1.828,1.8202,1.8793,2.1124,2.4053,2.618,2.6411,3.0973,3.5502,3.8415,3.9961,4.1172,4.2265,4.2871,4.3281,4.3574,4.3672,4.3711,4.3711,4.3711,4.3711,4.3711,4.3711,4.3711,4.3711,4.3711,4.3711,4.3711,4.416,4.4609,4.4996,4.5469,4.5898,4.6308,4.6308,4.6308,4.6308,4.6308,4.6308,4.6308,4.6308,4.6308,4.6308,4.6308,4.6308,4.6308,4.6308,4.6308,4.6367,0.0,0.0,0.0,0.0,0.0,0.0,0.0,0.0,0.0,0.0,0.0,0.0,0.0,0.0,0.0,0.0,0.0,0.0,0.0,0.0,0.0,1.2388,1.2831,1.3867,1.5552,1.5135,1.6543,1.9949,2.1443,2.3085,2.4809,2.538,2.3668,1.997,1.6918,1.5236,1.4618,1.3406,1.2915,1.2961,1.3717,0.0,0.0,0.0,0.0,0.0,0.0,0.0,0.0,1.8849,1.9923,2.1073,2.041,0.0,0.0,0.0,0.0,0.0,2.0699,2.1859,2.1966,1.9118,1.9242,1.9896,1.9184,1.8326,1.8388,2.0836,2.0471,2.1455,2.7096,2.7733,2.8447,3.1623,3.4492,3.7105,3.9375,4.1094,4.2167,4.2362,4.3125,4.3496,4.3203,4.3496,4.3711,4.3711,4.3711,4.3711,4.3711,4.3711,4.3711,4.3711,4.3711,4.3711,4.3711,4.416,4.4609,4.4996,4.5469,4.5898,4.6308,4.6308,4.6308,4.6308,4.6308,4.6308,4.6308,4.6308,4.6308,4.6308,4.6308,4.6308,4.6308,4.6308,4.6308,4.6406,0.0,0.0,0.0,0.0,0.0,0.0,0.0,0.0,0.0,0.0,0.0,0.0,0.0,0.0,0.0,0.0,0.0,0.0,0.0,0.0,1.2554,1.3693,1.3995,1.4613,1.5678,1.6622,1.8153,2.0292,2.2468,2.3843,2.4343,2.3085,2.1445,1.9408,1.6134,1.4683,1.4618,1.3406,1.2915,1.2961,0.0,0.0,0.0,0.0,0.0,0.0,0.0,0.0,0.0,0.0,1.9962,2.1073,2.0469,0.0,0.0,0.0,0.0,0.0,2.0565,2.1903,2.2779,2.2034,2.3353,2.4455,2.2894,2.2654,2.3022,2.3881,2.3806,2.4783,2.8837,3.0263,3.2207,3.6508,3.7305,3.8184,4.0586,4.1406,4.2012,4.2695,4.3125,4.3379,4.3418,4.3594,4.3711,4.3711,4.3711,4.3711,4.3711,4.3711,4.3711,4.3711,4.3711,4.3828,4.4082,4.4512,4.4824,4.4996,4.5703,4.6113,4.6308,4.6308,4.6308,4.6308,4.6308,4.6308,4.6308,4.6308,4.6308,4.6308,4.6308,4.6308,4.6308,4.6308,4.6445,4.6738,0.0,0.0,0.0,0.0,0.0,0.0,0.0,0.0,0.0,0.0,0.0,0.0,0.0,0.0,0.0,0.0,0.0,0.0,0.0,1.2095,1.3082,1.4642,1.4883,1.5416,1.6307,1.797,1.9487,2.0894,2.3133,2.4131,2.3821,2.133,1.9767,1.8905,1.5545,1.4287,1.4618,1.3406,1.2915,1.2961,0.0,0.0,0.0,0.0,0.0,0.0,0.0,0.0,0.0,0.0,0.0,0.0,0.0,0.0,0.0,2.0835,2.0229,1.9753,2.0895,2.2072,2.324,2.4551,2.6309,2.7408,2.6238,2.6242,2.6545,2.6788,2.6985,2.7753,2.9937,3.2441,3.541,3.916,3.9045,3.9299,4.1621,4.1758,4.2012,4.3105,4.3223,4.3359,4.3672,4.3711,4.3711,4.3711,4.3711,4.3711,4.3711,4.3711,4.3711,4.3711,4.3711,4.3926,4.4394,4.4824,4.5078,4.5176,4.5937,4.6308,4.6308,4.6308,4.6308,4.6308,4.6308,4.6308,4.6308,4.6308,4.6308,4.6308,4.6308,4.6367,4.6445,4.6328,4.6699,4.7266,0.0,0.0,0.0,0.0,0.0,0.0,0.0,0.0,0.0,0.0,0.0,0.0,0.0,0.0,0.0,0.0,0.0,0.0,1.1588,1.2095,1.2939,1.4116,1.4814,1.6127,1.8166,1.8237,1.9295,2.1449,2.2624,2.3316,2.3518,2.2091,2.044,1.853,1.5906,1.4715,1.4618,1.3406,1.2915,1.2954,1.3379,0.0,0.0,0.0,0.0,0.0,0.0,0.0,0.0,0.0,0.0,0.0,0.0,0.0,2.1773,2.1816,2.1443,2.1324,2.2656,2.3613,2.4567,2.5918,2.5195,2.4953,2.7944,2.6586,2.57,2.9176,2.9305,2.958,3.211,3.4687,3.6714,3.7402,3.9101,4.0782,4.2148,4.2695,4.3125,4.3594,4.3652,4.3672,4.3691,4.3711,4.3711,4.3711,4.3711,4.3711,4.3711,4.3711,4.3711,4.3711,4.3711,4.3926,4.4394,4.4824,4.5234,4.5625,4.6094,4.6308,4.6308,4.6308,4.6308,4.6308,4.6308,4.6308,4.6308,4.6308,4.6308,4.6308,4.6308,4.6543,4.6792,4.6445,4.707,4.8066,0.0,0.0,0.0,0.0,0.0,0.0,0.0,0.0,0.0,0.0,0.0,0.0,0.0,0.0,0.0,0.0,0.0,0.0,1.1037,1.1568,1.2531,1.3968,1.4849,1.5919,1.7197,1.9372,2.1144,2.2433,2.2877,2.29,2.2452,2.0091,1.8504,1.7495,1.4801,1.3942,1.4433,1.3359,1.304,1.3281,1.3437,1.3737,0.0,0.0,0.0,0.0,0.0,0.0,0.0,0.0,1.8322,1.9864,1.965,2.082,2.2109,2.1329,2.1152,2.1307,2.1815,2.3142,2.4645,2.5698,2.6094,2.6979,2.9883,3.0277,3.0438,3.1871,3.2594,3.3341,3.455,3.6914,3.8633,3.8496,4.0293,4.1835,4.2323,4.3027,4.3535,4.3691,4.3711,4.3711,4.3711,4.3711,4.3711,4.3711,4.3711,4.3711,4.3711,4.3711,4.3711,4.3711,4.3984,4.4336,4.4785,4.5215,4.5644,4.6074,4.623,4.6308,4.6308,4.6308,4.6308,4.6308,4.6308,4.6308,4.6308,4.6308,4.6308,4.6308,4.6308,4.6719,4.7285,4.6855,4.7168,4.7832,0.0,0.0,0.0,0.0,0.0,0.0,0.0,0.0,0.0,0.0,0.0,0.0,0.0,0.0,0.0,0.0,0.0,0.0,1.0703,1.1267,1.2226,1.3643,1.4572,1.5549,1.6642,1.9429,2.13,2.223,2.2834,2.2479,2.1211,1.8867,1.7647,1.7301,1.4812,1.4192,1.494,1.3776,1.3359,1.3503,1.3503,1.3737,0.0,0.0,0.0,0.0,0.0,0.0,0.0,0.0,1.7868,1.9337,1.9571,2.0762,2.1953,2.1231,2.17,2.2362,2.2088,2.3279,2.4941,2.6206,2.7109,2.8484,3.1445,3.2598,3.3301,3.4258,3.4961,3.5644,3.643,3.7969,3.9141,3.9375,4.1113,4.244,4.2617,4.3242,4.3711,4.3711,4.3711,4.3711,4.3711,4.3711,4.3711,4.3711,4.3711,4.3711,4.3711,4.3711,4.3711,4.3711,4.4004,4.4453,4.4977,4.5312,4.5742,4.6308,4.6308,4.6308,4.6308,4.6308,4.6308,4.6308,4.6308,4.6308,4.6308,4.6308,4.6387,4.6504,4.6504,4.7031,4.7715,4.7148,4.7383,4.8053,0.0,0.0,0.0,0.0,0.0,0.0,0.0,0.0,0.0,0.0,0.0,0.0,0.0,0.0,0.0,0.0,0.0,0.0,1.0692,1.1249,1.2037,1.3033,1.3847,1.5133,1.6912,1.8015,1.924,2.0605,2.2327,2.2052,1.9864,1.9005,1.8469,1.8198,1.6262,1.5773,1.6284,1.4751,1.388,1.3503,1.3503,1.3756,1.4153,0.0,0.0,0.0,0.0,0.0,0.0,0.0,1.7991,1.844,2.1075,2.1562,2.1288,2.1758,2.3379,2.4844,2.4004,2.4414,2.5605,2.7754,2.8008,2.8758,3.2559,3.2793,3.3078,3.6089,3.6016,3.5937,3.7582,3.7598,3.7891,3.9609,4.1328,4.2578,4.3008,4.3437,4.3711,4.3711,4.3711,4.3711,4.3711,4.3711,4.3711,4.3711,4.3711,4.3711,4.3711,4.3711,4.3711,4.3711,4.3711,4.4141,4.4977,4.4996,4.5469,4.6308,4.6308,4.6308,4.6308,4.6308,4.6308,4.6308,4.6308,4.6308,4.6308,4.6308,4.6562,4.6889,4.6889,4.7461,4.8105,4.7246,4.7754,4.8835,0.0,0.0,0.0,0.0,0.0,0.0,0.0,0.0,0.0,0.0,0.0,0.0,0.0,0.0,0.0,0.0,0.0,0.0,1.017,1.1055,1.1689,1.1895,1.3178,1.3935,1.4113,1.5576,1.7754,2.0605,2.1134,2.0566,1.8968,1.8127,1.7399,1.6735,1.6444,1.5925,1.5243,1.479,1.4512,1.4414,1.4414,1.4506,1.4629,0.0,0.0,0.0,0.0,0.0,0.0,0.0,0.0,0.0,1.9629,2.019,2.0437,2.0874,2.0697,2.0426,2.0638,2.2954,2.5439,2.5979,2.8943,3.2168,3.3926,3.4121,3.4629,3.7051,3.7344,3.7324,3.7796,3.8791,3.9629,3.9863,4.1328,4.2578,4.3008,4.3437,4.3711,4.3711,4.3711,4.3711,4.3711,4.3711,4.3711,4.3711,4.3711,4.3711,4.3711,4.3711,4.3711,4.3711,4.4023,4.4453,4.4977,4.5332,4.5762,4.6308,4.6308,4.6308,4.6308,4.6308,4.6308,4.6308,4.6308,4.6308,4.6328,4.6621,4.6992,4.7363,4.7051,4.7637,4.86,4.7695,4.8008,4.8894,0.0,0.0,0.0,0.0,0.0,0.0,0.0,0.0,0.0,0.0,1.179,1.179,0.0,0.0,0.0,0.0,0.0,0.0,0.9925,1.098,1.1648,1.1745,1.3086,1.388,1.4003,1.5341,1.6867,1.8533,1.9061,1.8809,1.7857,1.7874,1.7712,1.7396,1.7988,1.7539,1.6289,1.5972,1.562,1.5322,1.5322,1.5322,1.5346,0.0,0.0,0.0,0.0,0.0,0.0,0.0,0.0,0.0,1.8965,1.924,1.9483,2.1121,2.0844,2.0532,2.2832,2.499,2.6986,2.8558,3.1093,3.3613,3.5332,3.5859,3.6445,3.8086,3.8301,3.834,3.883,3.9767,4.0605,4.0859,4.1914,4.2832,4.3262,4.3555,4.3711,4.3711,4.3711,4.3711,4.3711,4.3711,4.3711,4.3711,4.3711,4.3711,4.3711,4.3711,4.3711,4.3711,4.3984,4.4414,4.4977,4.5293,4.5723,4.6308,4.6308,4.6308,4.6308,4.6308,4.6308,4.6308,4.6308,4.6308,4.6348,4.6933,4.7344,4.7578,4.748,4.8027,4.8815,4.8086,4.8262,4.8913,0.0,0.0,0.0,0.0,0.0,0.0,0.0,0.0,0.0,1.186,1.1806,1.179,0.0,0.0,0.0,1.0977,1.0901,1.0625,0.9983,1.0969,1.18,1.2286,1.3437,1.4519,1.5495,1.6313,1.6189,1.5161,1.6559,1.7012,1.6668,1.7954,1.8791,1.9258,2.0136,1.9746,1.8364,1.7559,1.6735,1.5987,1.6065,1.6065,1.6085,1.6488,0.0,0.0,0.0,0.0,0.0,0.0,0.0,0.0,1.8778,1.8507,1.837,2.1583,2.2356,2.3125,2.7557,2.8632,2.9422,3.3315,3.3764,3.3926,3.6719,3.7715,3.8225,3.9043,3.8965,3.9121,4.0312,4.0547,4.0996,4.2187,4.2793,4.3223,4.3652,4.3711,4.3711,4.3711,4.3711,4.3711,4.3711,4.3711,4.3711,4.3711,4.3711,4.3711,4.3711,4.3711,4.3711,4.3711,4.3711,4.4121,4.4977,4.4977,4.5449,4.6308,4.6308,4.6308,4.6308,4.6308,4.6308,4.6308,4.6308,4.6308,4.6367,4.7187,4.7539,4.7617,4.8008,4.8418,4.8796,4.8359,4.8457,4.8855,0.0,0.0,0.0,0.0,0.0,0.0,0.0,0.0,1.1934,1.2086,1.1924,1.179,1.179,1.179,0.0,1.1239,1.1018,1.0727,1.0309,1.111,1.18,1.2286,1.3735,1.4436,1.4209,1.4394,1.4133,1.3431,1.5039,1.5957,1.6261,1.7539,1.8361,1.8791,1.9649,1.8965,1.7058,1.6196,1.5547,1.5146,1.5811,1.5889,1.5605,1.605,1.5879,0.0,0.0,0.0,0.0,0.0,0.0,0.0,1.7911,1.7393,1.6644,1.7874,1.8919,2.0055,2.182,2.5586,2.9386,3.086,3.3806,3.6582,3.7523,3.8379,3.8984,3.916,3.9687,4.0195,4.043,4.1074,4.1719,4.2284,4.2793,4.3223,4.3652,4.3711,4.3711,4.3711,4.3711,4.3711,4.3711,4.3711,4.3711,4.3711,4.3711,4.3711,4.3711,4.3711,4.3711,4.3711,4.3711,4.4121,4.4977,4.4977,4.5449,4.6308,4.6308,4.6308,4.6308,4.6308,4.6308,4.6308,4.6308,4.6308,4.6348,4.6855,4.7266,4.7598,4.7676,4.7969,4.834,4.8242,4.8262,4.8398,0.0,0.0,0.0,0.0,0.0,0.0,0.0,0.0,1.2149,1.2019,1.1881,1.179,1.179,1.179,0.0,0.0,1.0971,1.0685,1.0204,1.1054,1.2183,1.349,1.4602,1.4876,1.4248,1.4225,1.3789,1.2915,1.3783,1.4858,1.6139,1.7402,1.8574,1.957,2.0019,1.916,1.7288,1.6641,1.6113,1.5762,1.6211,1.625,1.6039,1.607,1.5542,1.4791,1.4785,0.0,0.0,0.0,0.0,0.0,0.0,0.0,1.6053,1.819,1.8469,1.9044,2.3384,2.6821,2.9824,3.2673,3.5341,3.7402,3.7832,3.8769,3.9531,3.9531,4.0059,4.0606,4.1055,4.166,4.2246,4.2676,4.3105,4.3457,4.3672,4.3711,4.3711,4.3711,4.3711,4.3711,4.3711,4.3711,4.3711,4.3711,4.3711,4.3711,4.3711,4.3711,4.3711,4.3711,4.3711,4.4121,4.4977,4.4977,4.5449,4.6308,4.6308,4.6308,4.6308,4.6308,4.6308,4.6308,4.6308,4.6308,4.6328,4.6714,4.7187,4.7598,4.7793,4.8008,4.8223,4.8437,4.8379,4.8281,0.0,0.0,0.0,0.0,0.0,0.0,0.0,0.0,0.0,1.1998,1.1854,1.179,1.179,1.179,1.1599,0.0,0.0,0.0,1.011,1.112,1.2596,1.4532,1.5122,1.5131,1.4474,1.4417,1.3873,1.2785,1.2922,1.4095,1.6242,1.7285,1.8711,2.037,2.0155,1.9198,1.7718,1.7031,1.6504,1.6141,1.6219,1.6258,1.6219,1.5894,1.5059,1.4133,1.4453,1.4883,1.5371,1.5928,0.0,0.0,0.0,0.0,1.6055,1.9173,1.9087,1.9466,2.6245,2.8836,3.0779,3.5593,3.7031,3.7441,3.8008,3.9062,3.9922,3.998,4.0332,4.0879,4.166,4.2148,4.2558,4.3008,4.3437,4.3711,4.3711,4.3711,4.3711,4.3711,4.3711,4.3711,4.3711,4.3711,4.3711,4.3711,4.3711,4.3711,4.3711,4.3711,4.3711,4.3711,4.3789,4.4219,4.4977,4.5098,4.5527,4.6308,4.6308,4.6308,4.6308,4.6308,4.6308,4.6308,4.6308,4.6308,4.6328,4.668,4.7129,4.7617,4.7969,4.8144,4.8242,4.8659,4.8516,4.8262,0.0,0.0,0.0,0.0,0.0,0.0,0.0,0.0,0.0,0.0,1.2102,1.179,1.179,1.179,1.1763,1.1681,1.1199,1.0847,1.0763,0.0,0.0,1.3382,1.3991,1.4018,1.341,1.3335,1.2977,1.2301,1.3054,1.4517,1.6609,1.6785,1.7796,1.9432,1.8318,1.7461,1.6746,1.483,1.3971,1.3952,1.4309,1.4445,1.4432,1.4387,1.425,1.4062,1.3776,1.4199,1.5014,1.5831,1.6422,0.0,0.0,0.0,1.6475,1.6767,1.8863,2.1468,2.3189,2.7624,3.2642,3.6313,3.7266,3.7598,3.8769,3.9473,4.0,4.0371,4.0781,4.123,4.1719,4.2148,4.2558,4.3008,4.3437,4.3711,4.3711,4.3711,4.3711,4.3711,4.3711,4.3711,4.3711,4.3711,4.3711,4.3711,4.3711,4.3711,4.3711,4.3711,4.3711,4.3711,4.4101,4.4531,4.5019,4.5391,4.582,4.6308,4.6308,4.6308,4.6308,4.6308,4.6308,4.6308,4.6308,4.6308,4.6308,4.6367,4.6855,4.7623,4.7637,4.7891,4.8223,4.8281,4.8262,4.8223,0.0,0.0,0.0,0.0,0.0,0.0,0.0,0.0,0.0,0.0,0.0,1.179,1.179,1.179,1.1659,1.1324,1.1042,1.0885,1.0801,1.1198,1.1979,1.3148,1.3192,1.3196,1.3209,1.3119,1.2804,1.2192,1.2852,1.4258,1.6348,1.6348,1.7519,1.959,1.8301,1.7227,1.6269,1.4838,1.4082,1.3841,1.4036,1.4972,1.6098,1.442,1.4504,1.5381,1.3991,1.3893,1.4537,1.541,1.6152,1.674,1.6978,0.0,0.0,0.0,1.8197,2.0842,2.5062,2.9331,3.3281,3.6504,3.7305,3.7637,3.8906,3.9551,4.0019,4.043,4.0879,4.1367,4.2031,4.2265,4.2656,4.332,4.3574,4.3711,4.3711,4.3711,4.3711,4.3711,4.3711,4.3711,4.3711,4.3711,4.3711,4.3711,4.3711,4.3711,4.3711,4.3711,4.3711,4.3711,4.3906,4.4336,4.4977,4.5215,4.5644,4.6308,4.6308,4.6308,4.6308,4.6308,4.6308,4.6308,4.6308,4.6308,4.6308,4.6308,4.6816,4.7578,4.7578,4.7832,4.8203,4.8203,4.8203,4.8203,0.0,0.0,0.0,0.0,0.0,0.0,0.0,0.0,0.0,0.0,0.0,1.179,1.179,0.0,0.0,0.0,1.093,1.0782,1.0498,1.0618,1.1252,1.2497,1.2255,1.2261,1.2607,1.269,1.2505,1.2059,1.2715,1.4154,1.6261,1.6378,1.7673,1.9844,1.8477,1.7246,1.6168,1.5092,1.4492,1.4322,1.464,1.5927,1.7503,1.602,1.6449,1.7564,1.5415,1.4894,1.5284,1.5493,1.6079,1.6804,1.7363,1.728,0.0,0.0,0.0,2.0362,2.6439,2.9609,3.2031,3.5586,3.6562,3.7109,3.8965,3.9648,4.0039,4.0586,4.0957,4.1426,4.2226,4.2382,4.2715,4.3574,4.3711,4.3711,4.3711,4.3711,4.3711,4.3711,4.3711,4.3711,4.3711,4.3711,4.3711,4.3711,4.3711,4.3711,4.3711,4.3711,4.3711,4.3711,4.3828,4.4258,4.4977,4.5234,4.5664,4.6308,4.6308,4.6308,4.6308,4.6308,4.6308,4.6308,4.6308,4.6308,4.6308,4.6426,4.6914,4.7598,4.7695,4.8008,4.834,4.8125,4.8183,4.834,0.0,0.0,0.0,0.0,0.0,0.0,0.0,0.0,0.0,0.0,0.0,1.179,1.179,1.179,1.1665,1.1301,1.1048,1.0639,0.9988,1.0432,1.0744,1.0826,1.0928,0.0,1.1031,1.145,1.1667,1.1634,1.2864,1.4576,1.6668,1.7109,1.8242,1.9825,1.8164,1.7148,1.6551,1.4855,1.4381,1.4877,1.6079,1.6648,1.7058,1.9767,2.0859,2.0683,1.8537,1.803,1.813,1.6578,1.6363,1.6843,1.7698,1.7954,1.8,0.0,0.0,0.0,2.4898,2.6284,2.7956,3.3019,3.4531,3.5723,3.9082,3.9883,4.0137,4.1015,4.1191,4.1426,4.2226,4.2382,4.2715,4.3574,4.3711,4.3711,4.3711,4.3711,4.3711,4.3711,4.3711,4.3711,4.3711,4.3711,4.3711,4.3711,4.3711,4.3711,4.3711,4.3711,4.3711,4.3711,4.4141,4.457,4.5019,4.584,4.625,4.6308,4.6308,4.6308,4.6308,4.6308,4.6308,4.6308,4.6308,4.6308,4.6328,4.6738,4.7168,4.7617,4.8027,4.8437,4.8776,4.7955,4.817,4.8757,0.0,0.0,0.0,0.0,0.0,0.0,0.0,0.0,0.0,0.0,0.0,0.0,0.0,1.1615,1.137,1.1071,1.057,1.0154,0.9906,1.0087,1.0352,1.0748,1.052,1.0581,1.0957,1.1095,1.131,1.1606,1.2324,1.3763,1.5883,1.6344,1.7184,1.8262,1.7673,1.7148,1.659,1.4855,1.4192,1.4537,1.6683,1.8537,2.0137,2.0898,2.2399,2.3725,2.1015,1.961,1.9004,1.8652,1.791,1.7246,1.7832,1.7991,1.8069,1.8481,1.9551,2.1153,2.3769,2.541,2.7046,2.9663,3.2337,3.4704,3.6148,3.8278,4.0137,4.1035,4.1211,4.1426,4.2226,4.2382,4.2715,4.3574,4.3711,4.3711,4.3711,4.3711,4.3711,4.3711,4.3711,4.3711,4.3711,4.3711,4.3711,4.3711,4.3711,4.3711,4.3711,4.3711,4.3711,4.3711,4.3867,4.4297,4.4977,4.5879,4.6308,4.6308,4.6308,4.6308,4.6308,4.6308,4.6308,4.6308,4.6308,4.6308,4.6328,4.6714,4.7187,4.7617,4.8047,4.8476,4.8796,4.7936,4.817,4.8776,0.0,0.0,0.0,0.0,0.0,1.2525,1.2236,1.219,1.2189,1.2133,0.0,0.0,0.0,0.0,1.1668,1.1066,1.0489,1.0035,0.9762,0.9731,0.9915,1.0363,1.0083,1.0178,1.0721,1.0835,1.1124,1.1606,1.2148,1.3386,1.5215,1.5831,1.6574,1.738,1.693,1.6894,1.7038,1.5595,1.4972,1.5245,1.8283,2.0117,2.1211,2.2949,2.4371,2.5249,2.3396,2.2069,2.129,2.1543,2.0918,1.9902,1.9453,1.8711,1.8049,1.8322,1.9336,2.0703,2.2306,2.3867,2.5605,2.7722,2.9986,3.2382,3.4921,3.7127,3.9043,4.0625,4.1074,4.1387,4.209,4.2284,4.2715,4.3574,4.3711,4.3711,4.3711,4.3711,4.3711,4.3711,4.3711,4.3711,4.3711,4.3711,4.3711,4.3711,4.3711,4.3711,4.3711,4.3711,4.3711,4.3711,4.3984,4.4433,4.4977,4.5879,4.6308,4.6308,4.6308,4.6308,4.6308,4.6308,4.6308,4.6308,4.6308,4.6308,4.6348,4.6914,4.7324,4.7637,4.8203,4.8659,4.8796,4.7936,4.817,4.8776,0.0,0.0,0.0,0.0,1.2625,1.2564,1.2282,1.2241,1.2393,1.277,0.0,0.0,0.0,0.0,0.0,1.1341,1.0886,1.0346,0.9491,0.9417,0.9454,0.9522,0.9576,0.9801,1.0196,1.0656,1.1124,1.1606,1.2465,1.3541,1.478,1.5635,1.6496,1.7262,1.5977,1.6332,1.7871,1.698,1.6648,1.7038,2.0879,2.123,2.0117,2.6035,2.7057,2.5336,2.5718,2.5586,2.52,2.52,2.5121,2.4652,2.2502,2.0059,1.7991,1.7991,1.8888,2.0,0.0,0.0,0.0,2.7117,2.7513,2.8723,3.5455,3.6411,3.6723,3.9785,4.0762,4.1211,4.1699,4.2129,4.2635,4.3535,4.3691,4.3711,4.3711,4.3711,4.3711,4.3711,4.3711,4.3711,4.3711,4.3711,4.3711,4.3711,4.3711,4.3711,4.3711,4.3711,4.3711,4.3711,4.4551,4.4977,4.4977,4.5859,4.6289,4.6308,4.6308,4.6308,4.6308,4.6308,4.6308,4.6308,4.6308,4.6308,4.6367,4.7226,4.7578,4.7676,4.8561,4.8913,4.8796,4.791,4.817,4.8776,0.0,0.0,0.0,1.2731,1.3136,1.343,1.3377,1.3365,1.3395,0.0,0.0,0.0,1.3376,1.2757,1.2128,1.1622,1.1031,1.0462,0.9942,0.9911,0.9947,0.9995,1.0023,1.0109,1.0258,1.0675,1.1124,1.1606,1.2129,1.2898,1.3867,1.44,1.4947,1.5522,1.543,1.5669,1.6039,1.4869,1.5284,1.6921,1.9552,2.1562,2.3379,2.6934,2.8887,2.9746,2.9883,2.8828,2.7467,2.7754,2.5781,2.2832,2.0703,1.9082,1.7991,1.7991,1.8888,1.9864,1.9687,0.0,0.0,0.0,0.0,0.0,2.8502,3.1134,3.4134,3.7109,3.8066,3.9062,4.1387,4.1894,4.2148,4.2655,4.3301,4.3711,4.3711,4.3711,4.3711,4.3711,4.3711,4.3711,4.3711,4.3711,4.3711,4.3711,4.3711,4.3711,4.3711,4.3711,4.3711,4.3711,4.4277,4.4726,4.5019,4.5566,4.5996,4.6308,4.6308,4.6308,4.6308,4.6308,4.6308,4.6308,4.6308,4.6308,4.6367,4.7226,4.7578,4.7676,4.8561,4.8913,4.8835,4.8242,4.8379,4.8835,0.0,0.0,1.3292,1.3604,1.419,1.4572,1.4332,1.4546,1.4651,0.0,0.0,0.0,1.3849,1.3761,1.3247,1.203,1.1391,1.0817,1.0186,0.9979,0.9902,0.9941,0.9954,1.0135,1.0537,1.0781,1.12,1.1847,1.2098,1.2554,1.3262,1.3659,1.3991,1.4271,1.4512,1.4693,1.4791,1.3711,1.4492,1.6758,2.0332,2.2401,2.3769,2.7422,2.916,2.9785,3.0859,3.0098,2.8789,3.0264,2.7923,2.4102,2.248,2.0644,1.8965,1.842,1.9415,2.0605,1.9999,2.0957,2.2076,2.1802,0.0,0.0,2.8021,3.0333,3.3008,3.6949,3.8223,3.918,4.0937,4.1562,4.1875,4.2129,4.2734,4.3242,4.3418,4.3594,4.3711,4.3711,4.3711,4.3711,4.3711,4.3711,4.3711,4.3711,4.3711,4.3711,4.3711,4.3711,4.3711,4.3711,4.416,4.459,4.5019,4.5449,4.5879,4.6308,4.6308,4.6308,4.6308,4.6308,4.6308,4.6308,4.6308,4.6308,4.6367,4.7226,4.7578,4.7676,4.8561,4.8913,4.8855,4.8359,4.8476,4.8835,0.0,0.0,1.4217,1.4797,1.5541,1.5861,1.5367,1.5762,1.5991,0.0,1.5514,1.5303,1.4952,1.5532,1.502,1.2653,1.1975,1.1263,1.0334,0.9951,0.9733,0.9678,0.9718,1.0118,1.0888,1.0986,1.1424,1.2192,1.2262,1.2488,1.2915,1.3262,1.3425,1.3425,1.3425,1.3639,1.3938,1.3398,1.4461,1.6887,2.1836,2.3223,2.2852,2.7741,2.8797,2.7969,3.0332,3.0391,2.9698,3.2226,3.0459,2.709,2.5932,2.3535,2.0859,1.9279,2.0371,2.1915,2.0918,2.1562,2.2752,2.3845,2.3396,0.0,3.0293,3.1211,3.2148,3.6934,3.8574,3.9258,3.9572,4.0332,4.0879,4.0879,4.1504,4.2246,4.2969,4.3398,4.3652,4.3691,4.3711,4.3711,4.3711,4.3711,4.3711,4.3711,4.3711,4.3711,4.3711,4.3711,4.3711,4.3711,4.4101,4.4551,4.5019,4.541,4.584,4.6308,4.6308,4.6308,4.6308,4.6308,4.6308,4.6308,4.6308,4.6308,4.6367,4.7226,4.7578,4.7676,4.8561,4.8874,4.8776,4.834,4.8457,4.8776,1.3609,1.4586,1.5461,1.5565,1.6617,1.7375,1.7262,1.6985,1.7085,1.7835,1.7432,1.6976,1.6802,1.5465,1.4406,1.402,1.2818,1.171,1.0814,1.0696,1.0489,1.0185,1.0459,1.0732,1.0898,1.158,1.2028,1.2192,1.2578,1.2805,1.2915,1.2981,1.302,1.302,1.302,1.3059,1.3203,1.4414,1.6367,1.8768,1.9862,2.2168,2.5289,2.8425,3.0478,3.1777,3.2617,3.2539,3.1914,3.1094,3.0039,2.8582,2.5605,2.4684,2.4118,2.1074,2.1739,2.3086,2.1503,2.1776,2.248,2.2402,2.3223,0.0,2.4453,2.5449,2.7037,2.9442,3.0361,3.1426,3.3848,3.4707,3.5025,3.5025,3.7461,4.0215,4.2775,4.3185,4.332,4.3672,4.3711,4.3711,4.3711,4.3711,4.3711,4.3711,4.3711,4.3711,4.3711,4.3711,4.3711,4.3711,4.3789,4.4219,4.4977,4.5117,4.5547,4.6308,4.6308,4.6308,4.6308,4.6308,4.6308,4.6308,4.6308,4.6308,4.6367,4.7226,4.7578,4.7676,4.8561,4.8698,4.832,4.8242,4.8262,4.832,1.4363,1.5396,1.6542,1.71,1.8068,1.8731,1.856,1.8587,1.8549,1.8301,1.8612,1.8414,1.7284,1.6532,1.5608,1.4362,1.3211,1.2254,1.158,1.1142,1.0918,1.0949,1.0928,1.1103,1.1541,1.1969,1.232,1.2559,1.2785,1.2915,1.2915,1.2915,1.3704,1.5073,1.3567,1.3841,1.5391,1.4732,1.5703,1.7983,2.0977,2.4398,2.791,3.0273,3.1973,3.3144,3.3308,3.3281,3.291,3.1651,3.0312,2.9023,2.7715,2.6719,2.5586,2.3184,2.3574,2.4313,2.2381,2.2323,2.281,2.2832,2.3301,0.0,0.0,2.5586,2.6719,2.9101,2.9766,3.043,3.2198,3.2832,3.3184,3.3347,3.5957,3.8242,3.9121,4.1504,4.3164,4.3359,4.3574,4.3711,4.3711,4.3711,4.3711,4.3711,4.3711,4.3711,4.3711,4.3711,4.3711,4.3711,4.3711,4.4023,4.4707,4.4879,4.5351,4.5996,4.6191,4.6308,4.6308,4.6308,4.6308,4.6308,4.6308,4.6308,4.6348,4.6992,4.7246,4.7363,4.8483,4.8594,4.8203,4.8203,4.8203,4.8203,1.4957,1.6055,1.7325,1.803,1.8864,1.9347,1.9054,1.9363,1.9197,1.8006,1.9336,1.9694,1.7888,1.826,1.7757,1.5654,1.4805,1.3978,1.3003,1.2293,1.2003,1.2202,1.1523,1.1677,1.2788,1.2496,1.2508,1.2915,1.2915,1.2915,1.2915,1.2915,1.4193,1.6461,1.4584,1.5098,1.7266,1.541,1.5874,1.8257,2.3149,2.6353,2.8523,3.1201,3.2441,3.282,3.323,3.3386,3.323,3.2296,3.0762,2.9316,2.9434,2.8496,2.6992,2.5,2.5367,2.5932,2.3513,2.324,2.363,2.3769,2.3769,2.4274,0.0,0.0,0.0,2.9406,2.9874,3.0039,3.0497,3.0898,3.1289,3.1611,3.4004,3.543,3.4297,3.8337,4.1504,4.1836,4.2871,4.3457,4.3125,4.3008,4.3164,4.3672,4.3242,4.3183,4.3672,4.3711,4.3711,4.3711,4.3711,4.3926,4.4394,4.4824,4.5254,4.5683,4.6113,4.6308,4.6308,4.6308,4.6308,4.6308,4.6308,4.6308,4.6328,4.6714,4.6928,4.7148,4.8249,4.8444,4.8086,4.8086,4.8144,4.8203,1.5134,1.6543,1.7541,1.6706,1.7408,1.8088,1.807,1.7557,1.7302,1.7612,1.9648,2.0855,2.0265,2.0584,2.0722,2.043,1.998,1.857,1.5831,1.5557,1.5185,1.4467,1.2898,1.2983,1.4986,1.3574,1.2844,1.2915,1.2915,1.2915,1.2915,1.2915,1.3079,1.3509,1.5855,1.6246,1.5327,1.7653,2.0742,2.4147,2.4809,2.4378,2.3789,2.8269,3.0224,3.082,3.2703,3.3386,3.3184,3.1582,3.0879,3.0215,2.7637,2.8711,3.005,2.5679,2.666,2.8445,2.5098,2.4781,2.5152,2.4062,2.4922,2.5605,2.4001,0.0,2.4567,2.4157,0.0,2.4196,2.4668,0.0,0.0,2.5406,2.8262,3.0302,2.9726,3.2793,3.5698,3.7242,4.0801,4.2558,4.0996,4.0547,4.1269,4.3535,4.1601,4.1308,4.3574,4.3711,4.3711,4.3711,4.3711,4.3926,4.4394,4.4824,4.5254,4.5683,4.6113,4.6308,4.6308,4.6308,4.6308,4.6308,4.6308,4.6308,4.6328,4.6714,4.7168,4.7519,4.7676,4.774,4.7656,4.7656,4.7891,4.8203,1.4841,1.6017,1.69,1.633,1.6964,1.7633,1.7913,1.8331,1.8601,1.8588,2.0109,2.1052,2.0644,2.0508,2.0547,2.082,2.0449,1.9256,1.6989,1.6598,1.5825,1.4459,1.3262,1.3145,1.4264,1.3392,1.2915,1.2915,1.2915,1.2915,1.2915,1.2915,1.3958,1.5918,1.7187,1.8594,2.0038,2.0274,2.1327,2.291,2.3675,2.3401,2.3181,2.9434,3.1914,3.2226,3.3379,3.3809,3.373,3.3262,3.1777,3.0282,3.0976,3.0156,2.8711,2.7695,2.7734,2.7559,2.5054,2.5406,2.6089,2.4531,2.5273,2.5879,2.3965,2.3571,2.363,2.3535,0.0,0.0,0.0,0.0,0.0,0.0,2.6894,2.8418,2.722,3.0469,3.3645,3.5365,3.7363,3.9023,4.0059,4.0,4.0957,4.3516,4.1562,4.1269,4.3574,4.3711,4.3711,4.3711,4.3711,4.3789,4.3984,4.4687,4.5117,4.5312,4.5976,4.6308,4.6308,4.6308,4.6308,4.6308,4.6308,4.6308,4.6308,4.6484,4.668,4.6836,4.6836,4.7285,4.791,4.7676,4.7695,4.7871,1.4201,1.5263,1.6109,1.5654,1.6185,1.6882,1.7408,1.8355,1.9044,1.9102,2.0215,2.1074,2.1114,2.1445,2.1855,2.2326,2.248,2.1738,1.9805,1.8693,1.7815,1.7152,1.4629,1.3926,1.541,1.388,1.3001,1.2915,1.2915,1.2974,1.3059,1.2942,1.4336,1.6976,1.8066,2.0156,2.2912,2.2576,2.2927,2.3728,2.4453,2.5117,2.6191,3.0937,3.3164,3.3809,3.4121,3.4271,3.4251,3.4062,3.2374,3.0693,3.2793,3.123,2.8769,2.9696,2.9375,2.8254,2.6074,2.6459,2.7006,2.4918,2.5234,2.563,2.3984,2.3633,2.3691,2.3769,2.3926,0.0,0.0,0.0,2.4336,2.4391,0.0,2.6894,2.5386,2.7988,3.0684,3.2383,3.373,3.5644,3.8555,3.8203,3.9141,4.2402,4.0566,4.0547,4.3555,4.3711,4.3711,4.3711,4.3711,4.3711,4.3711,4.4548,4.4977,4.4996,4.5898,4.6308,4.6308,4.6308,4.6308,4.6308,4.6308,4.6308,4.6308,4.6308,4.6367,4.6465,4.6348,4.709,4.8164,4.7734,4.7734,4.8014,1.3062,1.4438,1.528,1.4176,1.4639,1.5388,1.6059,1.6519,1.7233,1.8461,1.9785,2.1075,2.2305,2.4687,2.6348,2.6752,2.832,2.8184,2.5601,2.3125,2.2638,2.4652,1.7874,1.6039,2.0292,1.5855,1.3281,1.2915,1.2915,1.3098,1.3464,1.3079,1.3379,1.4387,1.8166,2.0156,2.0918,2.4176,2.724,2.9844,2.9062,3.0723,3.3528,3.168,3.25,3.4668,3.4668,3.4668,3.4434,3.2824,3.2198,3.1905,3.0703,3.1387,3.2383,3.1191,3.1973,3.245,2.9082,2.8516,2.8118,2.5132,2.4766,2.4789,2.3435,2.4121,2.4809,2.3987,2.5117,2.606,2.52,2.5391,2.5367,0.0,2.4844,0.0,0.0,2.4316,2.5289,2.7025,3.0234,3.3313,3.5898,3.3887,3.4564,3.9629,3.7617,3.8379,4.3437,4.3711,4.3711,4.3711,4.3711,4.3711,4.3711,4.4548,4.4977,4.4996,4.5898,4.6308,4.6308,4.6308,4.6308,4.6308,4.6308,4.6308,4.6308,4.6308,4.6543,4.6831,4.6465,4.709,4.8164,4.7734,4.8151,4.8855,1.3414,1.3878,1.4081,1.343,1.3808,1.4653,1.5915,1.7419,1.9064,2.0937,2.1857,2.3029,2.4883,2.5859,2.6777,2.7773,2.8398,2.8008,2.6289,2.4277,2.334,2.3747,1.8965,1.7363,1.9686,1.6465,1.44,1.3685,1.3437,1.3379,1.3496,1.3359,1.3893,1.5122,1.8748,2.1563,2.3714,2.606,2.8086,2.9813,2.9766,3.1152,3.3242,3.3359,3.3945,3.4746,3.5039,3.5156,3.5117,3.4824,3.3769,3.2754,3.373,3.2676,3.1269,3.2266,3.2187,3.1484,3.0332,3.0937,3.1035,2.7461,2.733,2.7291,2.4258,2.4378,2.4848,2.3987,2.4941,2.5659,2.4805,2.4766,2.4645,0.0,0.0,2.3948,0.0,2.3279,2.3981,2.5132,2.8367,3.0928,3.2051,3.3184,3.5156,3.8359,3.8594,3.9961,4.3125,4.3555,4.3711,4.3711,4.3711,4.3711,4.3711,4.4548,4.4977,4.4996,4.5898,4.6308,4.6308,4.6308,4.6308,4.6308,4.6308,4.6308,4.6308,4.6308,4.6387,4.6504,4.6367,4.6914,4.7773,4.7637,4.793,4.8418,1.3785,1.3666,1.3476,1.3219,1.3826,1.4874,1.6342,1.8377,2.0429,2.2245,2.3144,2.4339,2.6216,2.6797,2.7461,2.8437,2.8945,2.8613,2.7168,2.5723,2.4941,2.4937,2.1446,2.0195,2.1798,1.8652,1.6508,1.5493,1.4615,1.4088,1.3965,1.3796,1.4414,1.5777,1.8474,2.17,2.5219,2.7115,2.9188,3.126,3.1816,3.2715,3.3828,3.4805,3.4785,3.4375,3.5293,3.5605,3.5664,3.5903,3.5098,3.418,3.5552,3.4297,3.2539,3.3913,3.3574,3.2617,3.2148,3.2812,3.291,2.9805,2.9676,2.9375,2.5962,2.5981,2.6451,2.5566,2.5937,2.6582,2.709,2.6055,2.5137,0.0,0.0,0.0,0.0,2.2947,2.3376,2.4102,2.6426,2.8523,2.9872,3.0898,3.3269,3.7562,3.8008,3.9531,4.2931,4.3476,4.3711,4.3711,4.3711,4.3711,4.3711,4.4548,4.4977,4.4996,4.5898,4.6308,4.6308,4.6308,4.6308,4.6308,4.6308,4.6308,4.6308,4.6308,4.6308,4.6308,4.6308,4.6816,4.7578,4.7578,4.7949,4.8437,1.4023,1.3762,1.3555,1.3504,1.454,1.5879,1.7262,1.9237,2.1094,2.248,2.3767,2.5098,2.6484,2.7734,2.8613,2.9043,3.0234,3.0254,2.8594,2.7637,2.7539,2.8437,2.5219,2.4359,2.6465,2.2246,1.9376,1.8144,1.6309,1.5215,1.4819,1.4361,1.4849,1.6183,1.7461,2.0684,2.5297,2.7428,3.0576,3.4251,3.5059,3.5351,3.5351,3.584,3.4908,3.362,3.5357,3.5982,3.5982,3.5982,3.6035,3.6021,3.6021,3.604,3.604,3.604,3.604,3.582,3.4603,3.4271,3.386,3.2109,3.163,3.0976,2.8464,2.8855,2.952,2.8633,2.821,2.8797,3.1514,2.8992,2.6724,0.0,0.0,0.0,2.3198,2.3081,2.3259,2.3769,2.4633,2.6275,2.9051,2.7324,2.925,3.7016,3.5898,3.7226,4.2754,4.332,4.3555,4.3691,4.3711,4.3711,4.3711,4.4551,4.4957,4.4996,4.5879,4.6289,4.6308,4.6308,4.6308,4.6308,4.6308,4.6308,4.6308,4.6308,4.6308,4.6308,4.6308,4.6816,4.7623,4.7682,4.8209,4.8913,1.2668,1.3597,1.4269,1.3431,1.4447,1.6059,1.801,1.9608,2.1622,2.4508,2.6035,2.7721,2.9961,3.0488,3.0859,3.1289,3.167,3.169,3.124,2.9794,2.9618,3.1143,2.7871,2.6738,2.8242,2.375,2.0918,1.9921,1.6894,1.5352,1.5234,1.4824,1.5312,1.6605,1.7893,2.1269,2.6177,2.7656,3.0918,3.5078,3.5293,3.4805,3.4082,3.5488,3.4908,3.362,3.5357,3.5982,3.5982,3.5982,3.623,3.6504,3.6504,3.6719,3.6973,3.6973,3.6973,3.6894,3.6562,3.6465,3.6055,3.4316,3.3652,3.291,3.0976,3.1269,3.1719,3.0859,3.1367,3.1406,2.9609,2.8503,2.7148,2.5141,2.3789,2.3006,2.3081,2.2849,2.3045,2.4121,2.5586,2.6191,2.5375,2.8484,3.1387,3.3528,3.5508,3.8379,4.2383,4.1172,4.1387,4.3633,4.3711,4.3711,4.3711,4.4277,4.4707,4.4996,4.5586,4.5996,4.6308,4.6308,4.6308,4.6308,4.6308,4.6308,4.6308,4.6308,4.6308,4.6308,4.6308,4.6816,4.7701,4.8346,4.8718,4.917,1.291,1.3992,1.5069,1.5155,1.6273,1.7646,1.9089,2.0698,2.2756,2.5644,2.7305,2.8848,3.0488,3.1348,3.1894,3.2179,3.2198,3.1885,3.1103,3.0849,3.083,3.1045,2.9902,2.9609,3.0332,2.7018,2.4281,2.2267,1.9375,1.7171,1.5698,1.5254,1.5547,1.6484,1.7776,2.0703,2.4922,2.8476,3.1738,3.459,3.5371,3.5332,0.0,3.5937,3.582,3.5234,3.623,3.6465,3.6328,3.6523,3.6738,3.6953,3.6953,3.7109,3.7305,3.7305,3.7305,3.7344,3.7519,3.7578,3.7383,3.6582,3.6211,3.558,3.3652,3.3574,3.3789,3.332,3.3027,3.2793,3.2539,3.0039,2.7031,2.4004,2.3262,2.3086,2.3081,2.2908,2.3025,2.3747,2.4883,2.5059,2.363,2.8418,3.171,3.1875,3.4375,3.7148,4.0039,3.9922,4.0898,4.3359,4.3437,4.3516,4.3711,4.3965,4.4414,4.4996,4.5469,4.5898,4.6308,4.6308,4.6308,4.6308,4.6308,4.6308,4.6308,4.6308,4.6308,4.6328,4.6504,4.6992,4.7656,4.8366,4.8737,4.9262,1.4031,1.4837,1.5903,1.7203,1.8891,2.0238,2.0804,2.2523,2.4515,2.6543,2.8281,2.9512,2.997,3.1377,3.2296,3.2355,3.2374,3.1729,3.0204,3.1514,3.169,3.0165,3.1553,3.2374,3.2374,3.0556,2.7956,2.4567,2.2264,1.9434,1.6163,1.5644,1.5684,1.6226,1.7519,2.004,2.3728,2.9735,3.2832,3.3874,3.5469,3.6328,3.6714,3.6773,3.7007,3.7305,3.7363,3.7109,3.6851,3.7168,3.7324,3.7383,3.7383,3.7422,3.7461,3.7461,3.7461,3.7539,3.791,3.8008,3.8105,3.8513,3.8611,3.8122,3.623,3.5801,3.5801,3.5801,3.4349,3.3958,3.6953,3.2344,2.7135,2.4098,2.3981,2.4258,2.4137,2.3884,0.0,0.0,0.0,0.0,2.3354,2.7656,3.0625,3.0976,3.2383,3.4453,3.7226,3.8848,4.0742,4.3086,4.3205,4.3301,4.3613,4.3672,4.4121,4.4941,4.5391,4.584,4.6308,4.6308,4.6308,4.6308,4.6308,4.6308,4.6308,4.6308,4.6308,4.6348,4.6714,4.7187,4.7637,4.8047,4.8705,4.9702,1.5005,1.6115,1.6832,1.6032,2.0118,2.3736,2.4399,2.5875,2.7409,2.8855,3.0556,3.1788,3.2187,3.25,3.2832,3.3164,3.3203,3.3066,3.2773,3.3027,3.3066,3.2754,3.3047,3.3203,3.3203,3.082,2.8242,2.546,2.2266,1.9277,1.6586,1.5766,1.5825,1.6664,1.7932,2.1952,2.7981,3.1289,3.3789,3.5625,3.6289,3.6636,3.6753,3.7051,3.7226,3.7344,3.7695,3.7539,3.7207,3.7266,3.7519,3.7777,3.7777,3.8066,3.8376,3.8376,3.8376,3.8396,3.8474,3.8457,3.8513,3.8591,3.8611,3.8513,3.8141,3.8063,3.8063,3.8063,3.775,3.7047,3.5527,3.2559,2.9453,2.6752,2.6699,2.7604,2.9297,2.8008,0.0,0.0,0.0,2.8594,2.4567,2.6641,2.8288,2.8367,2.8613,3.1396,3.7464,3.6152,3.7773,4.3418,4.3594,4.3457,4.3183,4.3535,4.3984,4.4512,4.4941,4.5547,4.6308,4.6308,4.6308,4.6308,4.6308,4.6308,4.6308,4.6308,4.6308,4.6348,4.6714,4.7187,4.7637,4.8047,4.9713,5.2117,1.4845,1.5563,1.6664,1.8107,2.1478,2.4884,2.7487,2.9282,3.0243,2.997,3.0869,3.1612,3.1777,3.2598,3.3203,3.3367,3.3386,3.3386,3.3386,3.3386,3.3386,3.3386,3.3386,3.3386,3.3386,3.2207,2.9766,2.605,2.3968,2.0681,1.6381,1.6169,1.5961,1.5924,1.9386,2.3276,2.7493,3.123,3.3652,3.5098,3.6265,3.6934,3.7344,3.7539,3.7754,3.7988,3.8184,3.8125,3.7949,3.7949,3.8086,3.8262,3.8262,3.8398,3.8611,3.8611,3.8611,3.8611,3.8611,3.8611,3.8611,3.8611,3.8611,3.8611,3.8611,3.8611,3.8611,3.8611,3.8611,3.7809,3.5176,3.2969,0.0,2.9297,2.8437,2.8699,3.0625,0.0,2.9442,0.0,0.0,0.0,0.0,2.6719,2.7448,2.7682,2.8066,3.0986,3.7266,3.5801,3.7402,4.3203,4.3379,4.3379,4.3398,4.3379,4.3828,4.4726,4.4922,4.5469,4.6308,4.6308,4.6308,4.6308,4.6308,4.6308,4.6308,4.6308,4.6426,4.6621,4.6601,4.7129,4.791,4.7891,4.9828,5.2724,1.5173,1.5659,1.7106,2.0867,2.3202,2.5879,2.9765,3.1496,3.2023,3.0996,3.1191,3.1426,3.1426,3.2617,3.3386,3.3386,3.3386,3.3386,3.3386,3.3386,3.3386,3.3386,3.3386,3.3386,3.3386,3.3386,3.115,2.6512,2.5434,2.1954,1.6334,1.63,1.6285,1.6514,2.1347,2.484,2.7337,3.1269,3.3625,3.4798,3.6343,3.7324,3.7894,3.8027,3.8281,3.8611,3.8611,3.8611,3.8611,3.8611,3.8611,3.8611,3.8611,3.8611,3.8611,3.8611,3.8611,3.8611,3.8611,3.8611,3.8611,3.8611,3.8611,3.8611,3.8611,3.8611,3.8611,3.8611,3.8611,3.7809,3.5176,3.4095,0.0,3.1543,3.0449,3.0351,3.1894,0.0,0.0,0.0,0.0,0.0,2.8027,0.0,2.7129,2.8425,2.8594,3.0869,3.6074,3.5644,3.7441,4.2246,4.248,4.2656,4.2891,4.3105,4.3769,4.486,4.4938,4.5469,4.6308,4.6308,4.6308,4.6308,4.6308,4.6308,4.6308,4.6308,4.6504,4.6777,4.6523,4.7109,4.8047,4.7793,5.0022,5.3393,1.7544,1.8515,1.9879,2.2687,2.5713,2.8469,3.0519,3.0921,3.1482,3.2906,3.3133,3.3152,3.3152,3.332,3.3386,3.3386,3.3386,3.3386,3.3386,3.3386,3.3386,3.3386,3.3386,3.3386,3.3386,3.3386,3.1241,2.6852,2.5065,2.1747,1.7064,1.5644,1.7092,2.1014,2.3725,2.7409,3.167,3.2851,3.4551,3.6538,3.7441,3.7816,3.7969,3.8359,3.8571,3.8611,3.8611,3.8611,3.8611,3.8611,3.8611,3.8611,3.8611,3.8611,3.8611,3.8611,3.8611,3.8611,3.8611,3.8611,3.8611,3.8611,3.8611,3.8611,3.8611,3.8611,3.8611,3.8611,3.8611,3.7809,3.5176,3.6484,3.6832,3.3203,3.3809,3.5059,3.603,0.0,3.3476,3.4258,0.0,0.0,0.0,2.735,2.692,3.0859,2.9015,2.9328,3.3027,3.4199,3.6426,4.0078,4.0566,4.0605,4.0254,4.2519,4.3926,4.4453,4.4844,4.5469,4.6308,4.6308,4.6308,4.6308,4.6308,4.6308,4.6308,4.6308,4.6328,4.6387,4.6738,4.7187,4.7676,4.8027,5.1298,5.5617,1.8795,1.9042,2.0058,2.3095,2.4538,2.6156,2.886,2.9255,2.9474,3.0207,3.1176,3.2237,3.3292,3.3386,3.3386,3.3386,3.3386,3.3386,3.3386,3.3386,3.3386,3.3386,3.3386,3.3386,3.3386,3.2365,3.0365,2.7307,2.4495,2.1533,1.8483,1.8901,2.1296,2.5347,2.7822,3.0293,3.2676,3.457,3.6172,3.7461,3.7793,3.8086,3.834,3.8552,3.8611,3.8611,3.8611,3.8611,3.8611,3.8611,3.8611,3.8611,3.8611,3.8611,3.8611,3.8611,3.8611,3.8611,3.8611,3.8611,3.8611,3.8611,3.8611,3.8611,3.8611,3.8611,3.8611,3.8611,3.8611,3.8298,3.7207,3.6836,3.6582,3.6309,3.5781,3.5957,3.7614,3.707,0.0,3.6992,0.0,3.4394,0.0,0.0,2.909,3.0254,2.7435,2.8008,3.3313,3.4043,3.5566,3.8242,4.0996,4.1855,4.0684,4.2676,4.4062,4.4766,4.4899,4.5469,4.6308,4.6308,4.6308,4.6308,4.6308,4.6308,4.6308,4.6308,4.6445,4.6699,4.6855,4.8196,4.9912,4.8669,5.0576,5.3992,1.9843,1.9706,2.0555,2.3747,2.4105,2.4902,2.7753,2.7735,2.7602,2.8131,2.8821,3.0125,3.2397,3.2174,3.2269,3.3323,3.2924,3.2861,3.3355,3.3386,3.3386,3.3386,3.3386,3.3386,3.3386,3.2187,3.0324,2.7791,2.499,2.2301,1.976,2.1691,2.4703,2.863,3.0986,3.2773,3.4062,3.6152,3.7383,3.7894,3.8066,3.8301,3.8611,3.8611,3.8611,3.8611,3.8611,3.8611,3.8611,3.8611,3.8611,3.8611,3.8611,3.8611,3.8611,3.8611,3.8611,3.8611,3.8611,3.8611,3.8611,3.8611,3.8611,3.8611,3.8611,3.8611,3.865,3.873,3.8787,3.8787,3.8787,3.7422,3.6699,3.7868,3.7168,3.6875,3.7907,3.8125,3.8102,3.7676,3.6465,0.0,3.5117,3.2305,3.081,3.1426,2.873,2.918,3.4036,3.4544,3.5625,3.7793,4.1055,4.2187,4.0996,4.2793,4.4141,4.4977,4.4977,4.5469,4.6308,4.6308,4.6308,4.6308,4.6308,4.6308,4.6308,4.6308,4.6484,4.6758,4.6831,4.8792,5.124,4.9031,5.0825,5.4544,2.0869,2.1082,2.202,2.4963,2.5487,2.609,2.79,2.6673,2.6172,2.7966,2.6673,2.689,3.0448,2.9279,2.9637,3.3082,3.1822,3.1566,3.3292,3.3386,3.3386,3.3386,3.3386,3.3386,3.3386,3.3386,3.1657,2.8213,2.6973,2.4421,2.0725,2.2941,2.6307,3.0556,3.252,3.4609,3.6714,3.7539,3.7874,3.7933,3.8398,3.8611,3.8611,3.8611,3.8611,3.8611,3.8611,3.8611,3.8611,3.8611,3.8611,3.8611,3.8611,3.8611,3.8611,3.8611,3.8611,3.8611,3.8611,3.8611,3.8611,3.8611,3.8611,3.8611,3.8611,3.8611,3.8691,3.9101,3.9199,3.9199,3.9199,3.8828,3.8161,3.6929,3.8086,3.8574,3.6968,3.7051,3.6855,3.5586,3.2383,0.0,3.5591,3.2109,3.1377,3.5591,3.4284,3.3679,3.4648,3.5527,3.6973,3.9101,4.004,4.0508,4.0489,4.2637,4.4141,4.4977,4.4977,4.5469,4.6308,4.6308,4.6308,4.6308,4.6308,4.6308,4.6308,4.6308,4.6308,4.6348,4.6733,4.859,5.0846,4.8912,5.2855,5.8884,2.2265,2.2331,2.262,2.3562,2.3734,2.3924,2.4501,2.4094,2.4008,2.4767,2.4363,2.4971,2.75,2.8027,2.8673,2.9752,2.9361,2.9785,3.1497,3.1625,3.169,3.1889,3.1907,3.2069,3.2378,2.99,2.9362,3.087,2.7116,2.6133,2.7758,2.9289,3.1702,3.4748,3.5373,3.6348,3.7539,3.7777,3.8086,3.8379,3.8552,3.8611,3.8611,3.8611,3.8611,3.8611,3.8611,3.8611,3.8611,3.8611,3.8611,3.8669,3.8906,3.9004,3.8945,3.8689,3.9041,3.9414,3.9082,3.9004,3.9082,3.9394,3.9238,3.9082,3.9394,3.9473,3.9512,3.9648,3.9668,3.9668,3.9668,3.957,3.9336,3.8945,3.9316,3.9492,3.8945,3.8984,3.8926,3.8516,3.748,3.7305,3.8535,3.6074,3.4642,3.5078,3.323,3.2754,3.4199,3.6484,3.7812,3.7891,4.1016,4.2129,4.0976,4.2793,4.4141,4.4977,4.4977,4.5469,4.6308,4.6308,4.6308,4.6308,4.6308,4.6308,4.642,4.7923,4.7664,4.6459,4.8389,5.0906,5.3251,5.1284,5.4281,5.918,2.3041,2.2974,2.2934,2.302,2.3033,2.3033,2.3033,2.3161,2.3308,2.3474,2.3487,2.3963,2.5278,2.6111,2.7079,2.8409,2.7906,2.856,3.1058,3.1189,3.1611,3.2477,3.2528,3.264,3.2966,3.0699,3.036,3.2098,2.8461,2.8544,3.206,3.2815,3.4523,3.6914,3.707,3.7441,3.7894,3.8105,3.832,3.8611,3.8611,3.8611,3.8611,3.8611,3.8611,3.8611,3.8611,3.8708,3.8845,3.8845,3.8926,3.9121,3.9375,3.957,3.9609,3.9199,3.9473,3.9824,3.9551,3.9453,3.9531,3.9824,3.9668,3.9531,3.9824,4.0019,4.0137,4.0137,4.0137,4.0137,4.0137,4.0,3.9902,3.9902,4.0019,4.0078,3.9922,4.0039,3.9766,3.8809,3.8691,0.0,0.0,3.7695,3.7007,3.7129,3.6035,3.5918,3.7148,3.7653,3.8396,3.9434,4.2226,4.3203,4.2129,4.3183,4.4141,4.4996,4.5351,4.5781,4.6308,4.6308,4.6308,4.6308,4.6308,4.6308,4.6464,4.8676,4.8784,4.7791,5.0272,5.3123,5.5603,5.3493,5.6089,6.0487,2.33,2.3126,2.3054,2.33,2.3319,2.3319,2.3319,2.3594,2.3817,2.383,2.383,2.3843,2.387,2.387,2.5165,2.8425,2.7165,2.7724,3.1308,3.151,3.2299,3.4049,3.4148,3.4167,3.4206,3.4206,3.3543,3.2225,3.0978,3.1617,3.4049,3.4049,3.5207,3.7363,3.7754,3.7913,3.7988,3.8398,3.8611,3.8611,3.8611,3.8611,3.8611,3.8611,3.8611,3.8611,3.865,3.8867,3.9199,3.9238,3.9531,3.9902,3.9922,4.0215,4.0411,4.0019,3.9941,3.998,3.9941,3.9941,3.9941,3.998,3.998,3.998,3.998,4.0293,4.0528,4.0528,4.0528,4.0528,4.0528,4.0254,3.998,3.998,4.0312,4.043,4.0039,4.0312,3.9687,3.7301,3.7027,0.0,3.7519,3.7578,3.8516,4.082,4.1367,4.1797,4.2148,3.8848,3.8884,4.2988,4.3496,4.3711,4.3711,4.3711,4.4141,4.4996,4.5898,4.6308,4.6308,4.6308,4.6308,4.6308,4.6308,4.6396,4.6726,4.8913,4.9828,5.004,5.226,5.5058,5.7638,5.5454,5.8094,6.247,2.3607,2.3643,2.3616,2.3647,2.3661,2.3661,2.3661,2.3763,2.3884,2.4075,2.4102,2.4182,2.4409,2.4399,2.4751,2.5562,2.4891,2.5341,2.7566,2.7689,2.7972,2.8659,2.8659,2.8838,2.9196,2.9196,3.0599,3.3402,3.4541,3.5575,3.6476,3.6476,3.692,3.7738,3.7835,3.8105,3.8418,3.8535,3.8611,3.8611,3.8611,3.8611,3.8611,3.8611,3.8611,3.865,3.8945,3.9121,3.9258,3.9609,3.9805,3.9961,4.0273,4.0411,4.0411,4.0019,4.0351,4.0801,4.0469,4.0371,4.0449,4.0781,4.0879,4.0879,4.0879,4.0996,4.1016,4.1016,4.1016,4.1016,4.1016,4.0976,4.0879,4.0879,4.0957,4.0976,4.0917,4.0957,4.0801,4.0214,4.0135,4.0175,4.0292,4.0292,3.9824,0.0,3.9394,3.9863,3.9961,3.9746,4.082,4.3476,4.3652,4.3711,4.3711,4.3711,4.4141,4.4996,4.5898,4.6308,4.6308,4.6308,4.6308,4.6308,4.6308,4.7251,4.8998,5.1198,5.2135,5.2343,5.4557,5.6429,5.7826,5.7267,5.9508,6.2741,2.3915,2.3897,2.3843,2.3941,2.3968,2.3968,2.3968,2.4075,2.4222,2.4346,2.4359,2.4426,2.4586,2.4599,2.4599,2.4599,2.4342,2.4936,2.6775,2.6881,2.7347,2.8353,2.8388,2.8518,2.8757,2.8929,3.0647,3.3982,3.503,3.6249,3.7578,3.7578,3.7812,3.8223,3.8223,3.8359,3.8611,3.8611,3.8611,3.8611,3.8611,3.8611,3.8611,3.8611,3.8611,3.8669,3.9062,3.9336,3.959,4.0039,4.0312,4.0527,4.0742,4.082,4.0781,4.0547,4.0839,4.1152,4.0879,4.082,4.0879,4.1152,4.1211,4.1211,4.1211,4.1211,4.1211,4.1211,4.1211,4.1211,4.1211,4.1211,4.1211,4.1211,4.1016,4.0937,4.1191,4.0996,4.0957,4.1191,4.1348,4.1465,4.1465,4.1641,4.125,4.004,4.0605,4.0976,4.0976,4.1621,4.25,4.3672,4.3711,4.3711,4.3711,4.4101,4.4551,4.4996,4.5898,4.6308,4.6308,4.6308,4.6308,4.6308,4.6308,4.7554,4.9786,5.1969,5.3497,5.4639,5.6852,5.839,5.9382,5.9382,6.0848,6.2781,2.4209,2.4075,2.3981,2.4222,2.4262,2.4262,2.4262,2.4439,2.4599,2.4599,2.4599,2.4599,2.4599,2.4639,2.4666,2.4666,2.4706,2.5419,2.6976,2.7114,2.7855,2.9429,2.9501,2.9533,2.9581,3.0139,3.1555,3.3836,3.3836,3.5102,3.754,3.754,3.7914,3.8611,3.8611,3.8611,3.8611,3.8611,3.8611,3.8611,3.8611,3.8611,3.8611,3.8611,3.865,3.873,3.916,3.9609,4.0059,4.0488,4.0859,4.1211,4.1211,4.1211,4.1211,4.1211,4.1211,4.1211,4.1211,4.1211,4.1211,4.1211,4.1211,4.1211,4.1211,4.1211,4.1211,4.1211,4.1211,4.1211,4.1211,4.1211,4.1093,4.0781,4.0644,4.0644,4.0684,4.0703,4.0859,4.123,4.1641,4.1894,4.1894,4.2207,4.2421,4.2479,4.2871,4.3146,4.3205,4.3516,4.3711,4.3711,4.3711,4.373,4.3808,4.4609,4.4977,4.4996,4.5898,4.6269,4.6211,4.6269,4.6308,4.6308,4.6308,4.775,5.023,5.2135,5.4395,5.6868,5.8798,6.0136,6.1065,6.114,6.1818,6.2656,2.4479,2.4492,2.4479,2.4519,2.4532,2.4532,2.4532,2.4572,2.4599,2.4599,2.4599,2.4599,2.4599,2.4863,2.501,2.501,2.5237,2.527,2.5069,2.531,2.5595,2.588,2.5917,2.5991,2.6253,2.7901,2.9884,3.2159,3.2159,3.3423,3.5869,3.5869,3.6866,3.8611,3.8611,3.8611,3.8611,3.8611,3.8611,3.8611,3.8611,3.8611,3.8611,3.8611,3.8789,3.916,3.9629,4.0059,4.0488,4.0918,4.1152,4.1211,4.1211,4.1211,4.1211,4.1211,4.1211,4.1211,4.1211,4.1211,4.1211,4.1211,4.1211,4.1211,4.1211,4.1211,4.1211,4.1211,4.1211,4.1211,4.1211,4.1211,4.0566,3.873,3.9922,4.0449,3.8672,4.0254,4.1621,4.1699,4.207,4.2284,4.2284,4.2343,4.2578,4.2949,4.3047,4.3223,4.3594,4.3672,4.3711,4.3711,4.3711,4.3887,4.4297,4.4785,4.4977,4.4996,4.5898,4.6113,4.5781,4.6152,4.6308,4.6308,4.6308,4.8634,5.2425,5.2756,5.5309,5.9032,5.9367,5.9885,6.0512,6.0989,6.1592,6.2144,2.4572,2.4599,2.4599,2.4599,2.4599,2.4599,2.4599,2.4599,2.4599,2.4599,2.4599,2.4599,2.4599,2.4903,2.5115,2.5115,2.5344,2.5398,2.5093,2.5237,2.5317,2.5317,2.5317,2.5451,2.5745,2.6655,2.8224,3.0512,3.1636,3.2739,3.3926,3.6127,3.7069,3.6995,3.8117,3.8611,3.8611,3.8611,3.8611,3.8611,3.8611,3.8611,3.8611,3.8611,3.8828,3.9258,3.9726,4.0156,4.0586,4.1035,4.1211,4.1211,4.1211,4.1211,4.1211,4.1211,4.1211,4.1211,4.1211,4.1211,4.1211,4.1211,4.1211,4.1211,4.1211,4.1211,4.1211,4.1211,4.1211,4.1211,4.1211,4.1211,4.0878,3.9844,4.0312,4.0625,4.0098,4.084,4.1621,4.209,4.2519,4.2773,4.2773,4.2988,4.3203,4.3398,4.3418,4.3496,4.3691,4.3711,4.3711,4.3711,4.3711,4.3926,4.4394,4.4824,4.5137,4.5391,4.6016,4.6191,4.6016,4.6211,4.6308,4.6308,4.6308,4.8784,5.288,5.288,5.551,5.9483,5.9483,6.0035,6.0814,6.109,6.1542,6.1994,2.4599,2.4599,2.4599,2.4599,2.4599,2.4599,2.4599,2.4599,2.4599,2.4599,2.4599,2.4599,2.4599,2.4957,2.5184,2.5184,2.5504,2.5718,2.5718,2.5718,2.5678,2.5625,2.5678,2.5798,2.5998,2.6065,2.6967,2.8686,3.0284,3.159,3.2581,3.5719,3.6848,3.6312,3.7878,3.8611,3.8611,3.8611,3.8611,3.8611,3.8611,3.8669,3.873,3.873,3.9043,3.9551,3.9902,4.0312,4.0723,4.1055,4.1211,4.1211,4.1211,4.1211,4.1211,4.1211,4.1211,4.1211,4.1211,4.1211,4.1211,4.1211,4.1211,4.1211,4.1211,4.1211,4.1211,4.1211,4.1211,4.1211,4.1211,4.1289,4.1191,4.0683,4.0801,4.0977,4.1172,4.1445,4.1855,4.25,4.2969,4.3223,4.3223,4.3516,4.3711,4.3711,4.3711,4.3711,4.3711,4.3711,4.3711,4.3711,4.3711,4.3984,4.4531,4.4863,4.5254,4.5683,4.6113,4.625,4.6152,4.6797,4.6793,4.6352,4.6836,4.9297,5.288,5.288,5.551,5.9483,5.9483,6.0111,6.0989,6.114,6.1542,6.1994,2.4599,2.4599,2.4599,2.4599,2.4599,2.4599,2.4599,2.4599,2.4599,2.4599,2.4599,2.4599,2.4599,2.5106,2.5478,2.5478,2.5999,2.6319,2.6319,2.6319,2.6199,2.5971,2.6186,2.6252,2.5998,2.6265,2.6439,2.6623,2.6768,2.8803,3.2505,3.2809,3.4881,3.8372,3.8538,3.8611,3.8611,3.8611,3.8611,3.8611,3.8611,3.8809,3.916,3.916,3.9687,4.0391,4.043,4.0762,4.1133,4.1211,4.1211,4.1211,4.1211,4.1211,4.1211,4.1211,4.1211,4.1211,4.1211,4.1211,4.1211,4.1211,4.1211,4.1211,4.1211,4.1211,4.1211,4.1211,4.1211,4.1211,4.1211,4.1484,4.1094,3.9101,4.0742,4.1601,3.9668,4.1445,4.2969,4.3027,4.3398,4.3652,4.3652,4.3691,4.3711,4.3711,4.3711,4.3711,4.3711,4.3711,4.3711,4.3711,4.3711,4.4121,4.4961,4.5,4.5254,4.5683,4.6113,4.6094,4.5828,4.8235,4.8247,4.642,4.8462,5.0694,5.288,5.288,5.551,5.9483,5.9483,5.9859,6.0437,6.0989,6.1542,6.1943,2.4599,2.4599,2.4599,2.4599,2.4599,2.4599,2.4599,2.4599,2.4599,2.4599,2.4599,2.4599,2.4599,2.5119,2.5518,2.5518,2.6052,2.6386,2.6386,2.6386,2.6333,2.6265,2.6333,2.6333,2.6265,2.6333,2.6386,2.6386,2.7659,2.8413,2.8803,3.2603,3.4526,3.4936,3.7475,3.8611,3.8611,3.8611,3.8611,3.8611,3.8611,3.8708,3.8848,3.9101,3.959,4.0176,4.0391,4.0801,4.1211,4.1211,4.1211,4.1211,4.1211,4.1211,4.1211,4.1211,4.1211,4.1211,4.1211,4.1211,4.1211,4.1211,4.1211,4.1211,4.1211,4.1211,4.1211,4.1211,4.1211,4.1289,4.1523,4.1699,4.1621,4.1055,4.1797,4.2226,4.168,4.2461,4.3183,4.3437,4.3613,4.3711,4.3711,4.3711,4.3711,4.3711,4.3711,4.3711,4.3711,4.3711,4.3711,4.3711,4.3711,4.4004,4.4629,4.4902,4.5254,4.5683,4.6113,4.6211,4.6161,4.8509,4.8376,4.6507,5.0083,5.2135,5.3004,5.4377,5.6757,5.9483,5.9483,6.006,6.0889,6.1115,6.1542,6.1969,2.4599,2.4599,2.4599,2.4599,2.4599,2.4639,2.4719,2.4783,2.4783,2.4783,2.4813,2.4839,2.4783,2.5304,2.5651,2.5651,2.6106,2.6386,2.6386,2.6386,2.6386,2.6386,2.6386,2.6386,2.6386,2.6386,2.6386,2.6386,2.7762,2.8413,2.8427,3.2603,3.4489,3.4544,3.7364,3.8611,3.8611,3.8611,3.8611,3.8611,3.8611,3.8787,3.9023,3.9316,3.9785,4.0332,4.0625,4.0918,4.1211,4.1211,4.1211,4.1211,4.1211,4.1211,4.1211,4.1211,4.1211,4.1211,4.1211,4.1211,4.1211,4.1211,4.1211,4.1211,4.1211,4.1211,4.125,4.1348,4.1367,4.1504,4.1914,4.2109,4.2305,4.2578,4.2734,4.293,4.3223,4.3281,4.3379,4.3672,4.3711,4.3711,4.3711,4.3711,4.3711,4.3711,4.3711,4.3711,4.3711,4.3711,4.398,4.4658,4.4021,4.4179,4.5179,4.5064,4.5254,4.5683,4.6113,4.6308,4.6376,4.9339,4.9041,4.6595,5.1719,5.3538,5.3086,5.5292,5.7494,5.9483,5.9483,6.0085,6.0939,6.1115,6.1542,6.1994,2.4599,2.4599,2.4599,2.4599,2.4599,2.4693,2.5037,2.5115,2.5115,2.5077,2.5331,2.5411,2.5117,2.565,2.5998,2.5998,2.6265,2.6386,2.6386,2.6386,2.6386,2.6386,2.6386,2.6386,2.6386,2.6386,2.6386,2.6386,2.6386,2.8491,3.2467,3.2505,3.4656,3.8574,3.8574,3.8611,3.8611,3.8611,3.8611,3.8611,3.8611,3.9101,3.9883,3.9902,4.043,4.1211,4.1211,4.1211,4.1211,4.1211,4.1211,4.1211,4.1211,4.1211,4.1211,4.1211,4.1211,4.1211,4.1211,4.1211,4.1211,4.1211,4.1211,4.1211,4.1211,4.1211,4.1289,4.1719,4.1797,4.1933,4.2304,4.2793,4.3127,4.3086,4.3437,4.3711,4.3711,4.3711,4.3711,4.3711,4.3711,4.3711,4.3711,4.3711,4.3711,4.3711,4.3711,4.3711,4.3711,4.3711,4.4658,4.6746,4.4822,4.474,4.6888,4.564,4.5234,4.5727,4.6094,4.6308,4.6464,5.0862,5.0484,4.6726,5.3333,5.4986,5.3086,5.5309,5.7534,5.9483,5.9483,5.9834,6.0387,6.0964,6.1542,6.1994,2.4599,2.4599,2.4599,2.4599,2.4599,2.4693,2.5037,2.5115,2.5157,2.5358,2.5464,2.5478,2.5398,2.577,2.5998,2.5998,2.6265,2.6386,2.6386,2.6386,2.6386,2.6386,2.6386,2.6386,2.6386,2.6386,2.6386,2.6386,2.6386,2.7762,3.0361,3.1819,3.3888,3.6497,3.7951,3.8611,3.8611,3.8611,3.8611,3.8611,3.8611,3.8906,3.9453,3.9766,4.0234,4.0762,4.1055,4.1211,4.1211,4.1211,4.1211,4.1211,4.1211,4.1211,4.1211,4.1211,4.1211,4.1211,4.1211,4.1211,4.1211,4.1211,4.1211,4.1211,4.1211,4.1211,4.1289,4.1719,4.1797,4.2012,4.2754,4.2988,4.3183,4.3476,4.3633,4.3711,4.3711,4.3711,4.3711,4.3711,4.3711,4.3711,4.3711,4.3711,4.3711,4.3711,4.3711,4.3711,4.3711,4.5148,4.6203,4.6786,4.6203,4.6183,4.6827,4.5599,4.5098,4.5234,4.5957,4.6308,4.6464,5.0862,5.1302,4.8998,5.5631,5.7233,5.5389,5.7613,5.8915,5.9483,5.9483,5.9834,6.0337,6.0512,6.119,6.1943,2.4599,2.4599,2.4599,2.4599,2.4599,2.4733,2.5184,2.5251,2.5358,2.5651,2.5785,2.5812,2.5705,2.5984,2.6172,2.6172,2.6332,2.6386,2.6386,2.6386,2.6386,2.6386,2.6386,2.6386,2.6386,2.6386,2.6768,2.758,2.6768,2.7841,3.0669,3.1896,3.3587,3.5571,3.7695,3.8611,3.8611,3.8611,3.8611,3.863,3.875,3.9082,3.9531,3.998,4.041,4.082,4.1113,4.1211,4.1211,4.1211,4.1211,4.1211,4.1211,4.1211,4.1211,4.1211,4.1211,4.1211,4.1211,4.1211,4.1211,4.1211,4.1211,4.125,4.1387,4.1426,4.1582,4.2187,4.2305,4.2519,4.3203,4.332,4.3418,4.3672,4.3711,4.3711,4.3711,4.3711,4.3711,4.3711,4.3711,4.3711,4.3711,4.3711,4.3711,4.3711,4.3711,4.3711,4.3711,4.4944,4.6365,4.8003,4.6465,4.6467,4.8301,4.5956,4.4863,4.4996,4.5898,4.6308,4.6464,5.0862,5.1678,4.9998,5.6614,5.8266,5.6375,5.8578,5.9483,5.9483,5.9483,5.9709,6.001,6.0236,6.0763,6.1316,2.4599,2.4626,2.4626,2.4599,2.4599,2.4799,2.5424,2.5518,2.5625,2.5998,2.6265,2.6332,2.6065,2.6265,2.6386,2.6386,2.6386,2.6386,2.6386,2.6386,2.6386,2.6386,2.6386,2.6386,2.6386,2.6386,2.7384,2.941,2.758,2.8764,3.2771,3.2771,3.385,3.5849,3.7768,3.8611,3.8611,3.8611,3.8611,3.865,3.9023,3.9473,3.9941,4.0371,4.0801,4.1211,4.1211,4.1211,4.1211,4.1211,4.1211,4.1211,4.1211,4.1211,4.1211,4.1211,4.1211,4.1211,4.1211,4.1211,4.1211,4.1211,4.125,4.1367,4.1719,4.1836,4.209,4.2951,4.3127,4.3203,4.3633,4.3711,4.3711,4.3711,4.3711,4.3711,4.3711,4.3711,4.3711,4.3711,4.3711,4.3711,4.3711,4.3711,4.3711,4.3711,4.3711,4.3711,4.3711,4.3856,4.5758,4.9596,4.5981,4.5983,5.0201,4.6352,4.4629,4.5098,4.5879,4.6381,4.6749,5.0988,5.1886,5.0526,5.6773,5.8383,5.663,5.8656,5.9483,5.9483,5.9483,5.9483,5.9558,6.006,6.0286,6.0412,2.4639,2.4823,2.4917,2.4639,2.4599,2.4799,2.5424,2.5518,2.5705,2.6226,2.6346,2.636,2.6306,2.636,2.6386,2.6386,2.6386,2.6386,2.6386,2.6386,2.6386,2.6386,2.6386,2.6386,2.6386,2.6386,2.7384,2.941,2.8944,3.0862,3.4861,3.4843,3.5942,3.7951,3.8372,3.8611,3.8611,3.8611,3.8611,3.865,3.9023,3.9473,3.9941,4.0371,4.0801,4.1211,4.1211,4.1211,4.1211,4.1211,4.1211,4.1211,4.1211,4.1211,4.1211,4.1211,4.1211,4.1211,4.1211,4.1211,4.1211,4.1211,4.1465,4.168,4.1777,4.2051,4.2441,4.3009,4.3127,4.3203,4.3633,4.3711,4.3711,4.3711,4.3711,4.3711,4.3711,4.3711,4.3711,4.3711,4.3711,4.3711,4.3711,4.3711,4.3711,4.3711,4.3711,4.3711,4.3711,4.5251,4.6545,4.7446,4.6626,4.6627,4.7696,4.5488,4.4785,4.5547,4.5723,4.6889,4.8998,5.1678,5.3556,5.4939,5.8124,5.9251,5.8837,5.9289,5.9483,5.9483,5.9483,5.9483,5.9508,5.9633,5.996,6.0412,2.5064,2.5064,2.5037,2.4877,2.485,2.4997,2.5438,2.5638,2.5879,2.6333,2.6386,2.6386,2.6386,2.6386,2.6386,2.6386,2.6386,2.6386,2.6386,2.6386,2.6386,2.6386,2.6386,2.6386,2.6386,2.7345,2.8842,3.09,2.9898,3.1497,3.5478,3.5515,3.6072,3.7143,3.8153,3.8611,3.8611,3.8611,3.8611,3.8669,3.9277,3.9668,3.9961,4.0586,4.0976,4.1211,4.1211,4.1211,4.1211,4.1211,4.1211,4.1211,4.1211,4.1211,4.1211,4.1211,4.1211,4.1211,4.1211,4.1211,4.1211,4.1211,4.1641,4.209,4.209,4.2422,4.2851,4.3281,4.3379,4.3437,4.3672,4.3711,4.3711,4.3711,4.3711,4.3711,4.3711,4.3711,4.3711,4.3711,4.3711,4.3711,4.3711,4.3711,4.3711,4.3711,4.3711,4.3711,4.3711,4.474,4.5799,4.6848,4.5839,4.5901,4.7162,4.6373,4.5861,4.5727,4.5727,4.7047,4.9659,5.1886,5.411,5.6311,5.8539,5.9483,5.9483,5.9483,5.9483,5.9483,5.9483,5.9483,5.9483,5.9483,5.9684,5.996,2.5398,2.5291,2.5144,2.5128,2.5115,2.5184,2.5464,2.5758,2.6105,2.6346,2.6386,2.6386,2.6386,2.6386,2.6386,2.6386,2.6386,2.6386,2.6386,2.6386,2.6386,2.6386,2.6386,2.6386,2.6386,2.8374,3.0438,3.2505,3.1115,3.2358,3.6035,3.6035,3.6035,3.6109,3.7841,3.8611,3.8611,3.8611,3.8611,3.8689,3.9453,3.9824,3.998,4.0762,4.1152,4.1211,4.1211,4.1211,4.1211,4.1211,4.1211,4.1211,4.1211,4.1211,4.1211,4.1211,4.1211,4.1211,4.1211,4.1211,4.123,4.1308,4.1855,4.2401,4.2479,4.2871,4.3281,4.3633,4.3711,4.3711,4.3711,4.3711,4.3711,4.3711,4.3711,4.3711,4.3711,4.3711,4.3711,4.3711,4.3711,4.3711,4.3711,4.3711,4.3711,4.3711,4.3711,4.3711,4.3711,4.4021,4.4904,4.6305,4.5332,4.5617,4.7352,4.7943,4.7691,4.6663,4.6786,4.7989,5.023,5.2467,5.4679,5.6892,5.8695,5.9483,5.9483,5.9483,5.9483,5.9483,5.9483,5.9483,5.9483,5.9483,5.9483,5.9483,2.5184,2.5304,2.5371,2.5117,2.5115,2.5184,2.5464,2.5758,2.6105,2.6346,2.6386,2.6386,2.6386,2.6386,2.6386,2.6386,2.6386,2.6386,2.6386,2.6386,2.6386,2.6386,2.6386,2.6386,2.6386,2.8374,3.0438,3.2505,3.3963,3.5886,3.819,3.819,3.819,3.819,3.8465,3.8611,3.8611,3.8611,3.8611,3.865,3.9101,3.9531,3.9941,4.043,4.084,4.1211,4.1211,4.1211,4.1211,4.1211,4.1211,4.1211,4.1211,4.1211,4.1211,4.1211,4.1211,4.1211,4.1211,4.1211,4.1289,4.1621,4.207,4.2519,4.291,4.332,4.3633,4.3691,4.3711,4.3711,4.3711,4.3711,4.3711,4.3711,4.3711,4.3711,4.3711,4.3711,4.3711,4.3711,4.3711,4.3711,4.3711,4.3711,4.3711,4.3711,4.3711,4.3711,4.3711,4.5413,4.5677,4.4186,4.7406,4.846,4.6993,4.9257,5.0437,5.0627,5.1149,5.1754,5.2508,5.476,5.6971,5.907,5.9367,5.9483,5.9483,5.9483,5.9483,5.9483,5.9483,5.9483,5.9483,5.9483,5.9483,5.9483,2.5596,2.5717,2.5665,2.5371,2.5503,2.5596,2.5518,2.5905,2.6279,2.6373,2.6386,2.6386,2.6386,2.6386,2.6386,2.6386,2.6386,2.6386,2.6386,2.6386,2.6386,2.6386,2.6386,2.6386,2.6386,2.9526,3.1574,3.2505,3.4526,3.6571,3.8611,3.8611,3.8611,3.8611,3.8611,3.8611,3.8611,3.8611,3.8611,3.865,3.9023,3.9473,3.9941,4.0371,4.0801,4.1211,4.1211,4.1211,4.1211,4.1211,4.1211,4.1211,4.1211,4.1211,4.1211,4.1211,4.1211,4.1211,4.1211,4.1211,4.1308,4.1699,4.2109,4.2539,4.2969,4.3398,4.3711,4.3711,4.3711,4.3711,4.3711,4.3711,4.3711,4.3711,4.3711,4.3711,4.3711,4.3711,4.3711,4.3711,4.3711,4.3711,4.3711,4.3711,4.3711,4.3711,4.3711,4.3711,4.3711,4.5677,4.6384,4.5434,4.8377,4.9579,4.8636,5.1223,5.2156,5.1443,5.4421,5.5478,5.4783,5.5751,5.7391,5.9483,5.9483,5.9483,5.9483,5.9483,5.9483,5.9483,5.9483,5.9684,5.991,5.9608,5.9684,5.991]},{"header":{"parameterUnit":"m.s-1","parameterCategory":1,"la1":30.6,"la2":28.766,"lo1":-90.7593,"lo2":-88.6598,"dx":0.0162,"dy":0.0183,"nx":116,"ny":114,"refTime":"2022-11-08T18:00:00:Z","depth":0,"parameterNumber":3,"parameterNumberName":"V-component_of_WINDS"},"data":[0.0,0.0,0.0,0.0,0.0,0.0,0.0,0.0,0.0,0.0,0.0,0.0,0.0,0.0,0.0,0.0,0.0,0.0,0.0,0.0,0.0,0.0,0.0,0.0,0.0,0.0,0.0,0.0,0.0,0.0,0.0,0.0,0.0,0.0,0.0,0.0,0.0,0.0,0.0,0.0,0.0,0.0,0.0,0.0,0.0,0.0,0.0,0.0,0.0,0.0,0.0,0.0,0.0,0.0,0.0,0.0,0.0,0.0,0.0,0.0,0.0,0.0,0.0,0.0,0.0,0.0,0.0,0.0,0.0,0.0,0.0,0.0,0.0,0.0,0.0,0.0,0.0,0.0,0.0,0.0,0.0,0.0,0.0,0.0,0.0,0.0,0.0,0.0,0.0,0.0,0.0,0.0,0.0,0.0,0.0,0.0,0.0,0.0,0.0,0.0,0.0,0.0,0.0,0.0,0.0,0.0,0.0,0.0,0.0,0.0,0.0,0.0,0.0,0.0,0.0,0.0,0.0,0.0,0.0,0.0,0.0,0.0,0.0,0.0,0.0,0.0,0.0,0.0,0.0,0.0,0.0,0.0,0.0,0.0,0.0,0.0,0.0,0.0,0.0,0.0,0.0,0.0,0.0,0.0,0.0,0.0,0.0,0.0,0.0,0.0,0.0,0.0,0.0,0.0,0.0,0.0,0.0,0.0,0.0,0.0,0.0,0.0,0.0,0.0,0.0,0.0,0.0,0.0,0.0,0.0,0.0,0.0,0.0,0.0,0.0,0.0,0.0,0.0,0.0,0.0,0.0,0.0,0.0,0.0,0.0,0.0,0.0,0.0,0.0,0.0,0.0,0.0,0.0,0.0,0.0,0.0,0.0,0.0,0.0,0.0,0.0,0.0,0.0,0.0,0.0,0.0,0.0,0.0,0.0,0.0,0.0,0.0,0.0,0.0,0.0,0.0,0.0,0.0,0.0,0.0,0.0,0.0,0.0,0.0,0.0,0.0,0.0,0.0,0.0,0.0,0.0,0.0,0.0,0.0,0.0,0.0,0.0,0.0,0.0,0.0,0.0,0.0,0.0,0.0,0.0,0.0,0.0,0.0,0.0,0.0,0.0,0.0,0.0,0.0,0.0,0.0,0.0,0.0,0.0,0.0,0.0,0.0,0.0,0.0,0.0,0.0,0.0,0.0,0.0,0.0,0.0,0.0,0.0,0.0,0.0,0.0,0.0,0.0,0.0,0.0,0.0,0.0,0.0,0.0,0.0,0.0,0.0,0.0,0.0,0.0,0.0,0.0,0.0,0.0,0.0,0.0,0.0,0.0,0.0,0.0,0.0,0.0,0.0,0.0,0.0,0.0,0.0,0.0,0.0,0.0,0.0,0.0,0.0,0.0,0.0,0.0,0.0,0.0,0.0,0.0,0.0,0.0,0.0,0.0,0.0,0.0,0.0,0.0,0.0,0.0,0.0,0.0,0.0,0.0,0.0,0.0,0.0,0.0,0.0,0.0,0.0,0.0,0.0,0.0,0.0,0.0,0.0,0.0,0.0,0.0,0.0,0.0,0.0,0.0,0.0,0.0,0.0,0.0,0.0,0.0,0.0,0.0,0.0,0.0,0.0,0.0,0.0,0.0,0.0,0.0,0.0,0.0,0.0,0.0,0.0,0.0,0.0,0.0,0.0,0.0,0.0,0.0,0.0,0.0,0.0,0.0,0.0,0.0,0.0,0.0,0.0,0.0,0.0,0.0,0.0,0.0,0.0,0.0,0.0,0.0,0.0,0.0,0.0,0.0,0.0,0.0,0.0,0.0,0.0,0.0,0.0,0.0,0.0,0.0,0.0,0.0,0.0,0.0,0.0,0.0,0.0,0.0,0.0,0.0,0.0,0.0,0.0,0.0,0.0,0.0,0.0,0.0,0.0,0.0,0.0,0.0,0.0,0.0,0.0,0.0,0.0,0.0,0.0,0.0,0.0,0.0,0.0,0.0,0.0,0.0,0.0,0.0,0.0,0.0,0.0,0.0,0.0,0.0,0.0,0.0,0.0,0.0,0.0,0.0,0.0,0.0,0.0,0.0,0.0,0.0,0.0,0.0,0.0,0.0,0.0,0.0,0.0,0.0,0.0,0.0,0.0,0.0,0.0,0.0,0.0,0.0,0.0,0.0,0.0,0.0,0.0,0.0,0.0,0.0,0.0,0.0,0.0,0.0,0.0,0.0,0.0,0.0,0.0,0.0,0.0,0.0,0.0,0.0,0.0,0.0,0.0,0.0,0.0,0.0,0.0,0.0,0.0,0.0,0.0,0.0,0.0,0.0,0.0,0.0,0.0,0.0,0.0,0.0,0.0,0.0,0.0,0.0,0.0,0.0,0.0,0.0,0.0,0.0,0.0,0.0,0.0,0.0,0.0,0.0,0.0,0.0,0.0,0.0,0.0,0.0,0.0,0.0,0.0,0.0,0.0,0.0,0.0,0.0,0.0,0.0,0.0,0.0,0.0,0.0,0.0,0.0,0.0,0.0,0.0,0.0,0.0,0.0,0.0,0.0,0.0,0.0,0.0,0.0,0.0,0.0,0.0,0.0,0.0,0.0,0.0,0.0,0.0,0.0,0.0,0.0,0.0,0.0,0.0,0.0,0.0,0.0,0.0,0.0,0.0,0.0,0.0,0.0,0.0,0.0,0.0,0.0,0.0,0.0,0.0,0.0,0.0,0.0,0.0,0.0,0.0,0.0,0.0,0.0,0.0,0.0,0.0,0.0,0.0,0.0,0.0,0.0,0.0,0.0,0.0,0.0,0.0,0.0,0.0,0.0,0.0,0.0,0.0,0.0,0.0,0.0,0.0,0.0,0.0,0.0,0.0,0.0,0.0,0.0,0.0,0.0,0.0,0.0,0.0,0.0,0.0,0.0,0.0,0.0,0.0,0.0,0.0,0.0,0.0,0.0,0.0,0.0,0.0,0.0,0.0,0.0,0.0,0.0,0.0,0.0,0.0,0.0,0.0,0.0,0.0,0.0,0.0,0.0,0.0,0.0,0.0,0.0,0.0,0.0,0.0,0.0,0.0,0.0,0.0,0.0,0.0,0.0,0.0,0.0,0.0,0.0,0.0,0.0,0.0,0.0,0.0,0.0,0.0,0.0,0.0,0.0,0.0,0.0,0.0,0.0,0.0,0.0,0.0,0.0,0.0,0.0,0.0,0.0,0.0,0.0,0.0,0.0,0.0,0.0,0.0,0.0,0.0,0.0,0.0,0.0,0.0,0.0,0.0,0.0,0.0,0.0,0.0,0.0,0.0,0.0,0.0,0.0,0.0,0.0,0.0,0.0,0.0,0.0,0.0,0.0,0.0,0.0,0.0,0.0,0.0,0.0,0.0,0.0,0.0,0.0,0.0,0.0,0.0,0.0,0.0,0.0,0.0,0.0,0.0,0.0,0.0,0.0,0.0,0.0,0.0,0.0,0.0,0.0,0.0,0.0,0.0,0.0,0.0,0.0,0.0,0.0,0.0,0.0,0.0,0.0,0.0,0.0,0.0,0.0,0.0,0.0,0.0,0.0,0.0,0.0,0.0,0.0,0.0,0.0,0.0,0.0,0.0,0.0,0.0,0.0,0.0,0.0,0.0,0.0,0.0,0.0,0.0,0.0,0.0,0.0,0.0,0.0,0.0,0.0,0.0,0.0,0.0,0.0,0.0,0.0,0.0,0.0,0.0,0.0,0.0,0.0,0.0,0.0,0.0,0.0,0.0,0.0,0.0,0.0,0.0,0.0,0.0,0.0,0.0,0.0,0.0,0.0,0.0,0.0,0.0,0.0,0.0,0.0,0.0,0.0,0.0,0.0,0.0,0.0,0.0,0.0,0.0,0.0,0.0,0.0,0.0,0.0,0.0,0.0,0.0,0.0,0.0,0.0,0.0,0.0,0.0,0.0,0.0,0.0,0.0,0.0,0.0,0.0,0.0,0.0,0.0,0.0,0.0,0.0,0.0,0.0,0.0,0.0,0.0,0.0,0.0,0.0,0.0,0.0,0.0,0.0,0.0,0.0,0.0,0.0,0.0,0.0,0.0,0.0,0.0,0.0,0.0,0.0,0.0,0.0,0.0,0.0,0.0,0.0,0.0,0.0,0.0,0.0,0.0,0.0,0.0,0.0,0.0,0.0,0.0,0.0,0.0,0.0,0.0,0.0,0.0,0.0,0.0,0.0,0.0,0.0,0.0,0.0,0.0,0.0,0.0,0.0,0.0,0.0,0.0,0.0,0.0,0.0,0.0,0.0,0.0,0.0,0.0,0.0,0.0,0.0,0.0,0.0,0.0,0.0,0.0,0.0,0.0,0.0,0.0,0.0,0.0,0.0,0.0,0.0,0.0,0.0,0.0,0.0,0.0,0.0,0.0,0.0,0.0,0.0,0.0,0.0,0.0,0.0,0.0,0.0,0.0,0.0,0.0,0.0,0.0,0.0,0.0,0.0,0.0,0.0,0.0,0.0,0.0,0.0,0.0,0.0,0.0,0.0,0.0,0.0,0.0,0.0,0.0,0.0,0.0,0.0,0.0,0.0,0.0,0.0,0.0,0.0,0.0,0.0,0.0,0.0,0.0,0.0,0.0,0.0,0.0,0.0,0.0,0.0,0.0,0.0,0.0,0.0,0.0,0.0,0.0,0.0,0.0,0.0,0.0,0.0,0.0,0.0,0.0,0.0,0.0,0.0,0.0,0.0,0.0,0.0,0.0,0.0,0.0,0.0,0.0,0.0,0.0,0.0,0.0,0.0,0.0,0.0,0.0,0.0,0.0,0.0,0.0,0.0,0.0,0.0,0.0,0.0,0.0,0.0,0.0,0.0,0.0,0.0,0.0,0.0,0.0,0.0,0.0,0.0,0.0,0.0,0.0,0.0,0.0,0.0,0.0,0.0,0.0,0.0,0.0,0.0,0.0,0.0,0.0,0.0,0.0,0.0,0.0,0.0,0.0,0.0,0.0,0.0,0.0,0.0,0.0,0.0,0.0,0.0,0.0,0.0,0.0,0.0,0.0,0.0,0.0,0.0,0.0,0.0,0.0,0.0,0.0,0.0,0.0,0.0,0.0,0.0,0.0,0.0,0.0,0.0,0.0,0.0,0.0,0.0,0.0,0.0,0.0,0.0,0.0,0.0,0.0,0.0,0.0,0.0,0.0,0.0,0.0,0.0,0.0,0.0,0.0,0.0,0.0,0.0,0.0,0.0,0.0,0.0,0.0,0.0,0.0,0.0,0.0,0.0,0.0,0.0,0.0,0.0,0.0,0.0,0.0,0.0,0.0,0.0,0.0,0.0,0.0,0.0,0.0,0.0,0.0,0.0,0.0,0.0,0.0,0.0,0.0,0.0,0.0,0.0,0.0,0.0,0.0,0.0,0.0,0.0,0.0,0.0,0.0,0.0,0.0,0.0,0.0,0.0,0.0,0.0,0.0,0.0,0.0,0.0,0.0,0.0,0.0,0.0,0.0,0.0,0.0,0.0,0.0,0.0,0.0,0.0,0.0,0.0,0.0,0.0,0.0,0.0,0.0,0.0,0.0,0.0,0.0,0.0,0.0,0.0,0.0,0.0,0.0,0.0,0.0,0.0,0.0,0.0,0.0,0.0,0.0,0.0,0.0,0.0,0.0,0.0,0.0,0.0,0.0,0.0,0.0,0.0,0.0,0.0,0.0,0.0,0.0,0.0,0.0,0.0,0.0,0.0,0.0,0.0,0.0,0.0,0.0,0.0,0.0,0.0,0.0,0.0,0.0,0.0,0.0,0.0,0.0,0.0,0.0,0.0,0.0,0.0,0.0,0.0,0.0,0.0,0.0,0.0,0.0,0.0,0.0,0.0,0.0,0.0,0.0,0.0,0.0,0.0,0.0,0.0,0.0,0.0,0.0,0.0,0.0,0.0,0.0,0.0,0.0,0.0,0.0,0.0,0.0,0.0,0.0,0.0,0.0,0.0,0.0,0.0,0.0,0.0,0.0,0.0,0.0,0.0,0.0,0.0,0.0,0.0,0.0,0.0,0.0,0.0,0.0,0.0,0.0,0.0,0.0,0.0,0.0,0.0,0.0,0.0,0.0,0.0,0.0,0.0,0.0,0.0,0.0,0.0,2.4606,2.1206,0.0,0.0,0.0,0.0,0.0,0.0,0.0,0.0,0.0,0.0,0.0,0.0,0.0,0.0,0.0,0.0,0.0,0.0,0.0,0.0,0.0,0.0,0.0,0.8372,0.8518,0.8836,0.8865,0.9019,0.9353,0.0,0.0,0.0,0.0,0.0,0.911,0.9358,1.0448,1.2407,1.3258,1.5732,1.9617,1.8213,1.6177,1.3633,0.0,0.0,0.0,0.0,0.0,0.0,0.0,0.0,0.0,0.0,0.0,0.0,0.0,0.0,0.0,0.0,0.0,0.0,0.0,0.0,0.0,0.0,0.0,0.0,0.0,0.0,0.0,0.0,0.0,0.0,0.0,0.0,0.0,0.0,0.0,0.0,0.0,0.0,0.0,0.0,0.0,0.0,0.0,0.0,0.0,0.0,0.0,0.0,0.0,0.0,0.0,0.0,0.0,0.0,0.0,0.0,0.0,0.0,0.0,0.0,0.0,0.0,0.0,0.0,0.0,0.0,0.0,0.0,0.0,0.0,2.9231,2.6873,0.0,0.0,0.0,0.0,0.0,0.0,0.0,0.0,0.0,0.0,0.0,0.0,0.0,0.0,0.0,0.0,0.0,0.0,0.0,0.0,0.0,0.8428,0.9302,0.9392,0.9717,1.0508,1.0478,1.0423,1.0423,1.0341,0.0,0.0,1.0351,1.0469,1.0519,1.1278,1.3428,1.6931,1.8771,2.206,2.6702,2.7804,2.535,1.987,1.6985,0.0,0.0,0.0,0.0,0.0,0.0,0.0,0.0,0.0,0.0,0.0,0.0,0.0,0.0,0.0,0.0,0.0,0.0,0.0,0.0,0.0,0.0,0.0,0.0,0.0,0.0,0.0,0.0,0.0,0.0,0.0,0.0,0.0,0.0,0.0,0.0,0.0,0.0,0.0,0.0,0.0,0.0,0.0,0.0,0.0,0.0,0.0,0.0,0.0,0.0,0.0,0.0,0.0,0.0,0.0,0.0,0.0,0.0,0.0,0.0,0.0,0.0,0.0,3.442,3.52,3.6003,3.6003,3.6994,3.8526,3.5127,3.432,3.5022,3.0447,0.0,0.0,0.0,0.0,0.0,0.0,0.0,0.0,0.0,0.0,0.0,0.0,0.0,0.0,0.0,0.0,0.0,0.0,0.0,0.9452,1.1226,1.1406,1.191,1.319,1.2753,1.2411,1.2411,1.208,1.1703,1.13,1.138,1.1516,1.1749,1.2987,1.5703,1.9944,2.7315,3.1928,3.3759,3.3941,3.356,3.243,2.603,2.2841,2.2143,0.0,0.0,0.0,0.0,0.0,0.0,0.0,0.0,0.0,0.0,0.0,0.0,0.0,0.0,0.0,0.0,0.0,0.0,0.0,0.0,0.0,0.0,0.0,0.0,0.0,0.0,0.0,0.0,0.0,0.0,0.0,0.0,0.0,0.0,0.0,0.0,0.0,0.0,0.0,0.0,0.0,2.7859,2.871,0.0,0.0,0.0,0.0,0.0,0.0,0.0,0.0,0.0,0.0,0.0,0.0,0.0,3.2731,3.4668,3.6222,3.8271,4.0867,4.2378,4.3929,4.5492,4.5492,4.565,4.5905,4.5373,0.0,3.7245,3.6079,0.0,0.0,0.0,0.0,0.0,0.0,0.0,0.0,0.0,0.0,0.0,0.0,0.0,0.0,0.0,0.0,0.0,0.0,0.0,0.0,0.0,1.4692,1.5815,1.7527,1.7745,1.7154,1.5643,1.5188,1.4214,1.253,1.2817,1.3263,1.3804,1.723,2.2209,2.8697,3.5126,3.8553,3.9144,3.9528,3.9509,3.8971,3.5422,3.1552,2.7619,2.528,0.0,0.0,0.0,0.0,0.0,0.0,0.0,0.0,0.0,0.0,0.0,0.0,0.0,0.0,0.0,0.0,0.0,0.0,0.0,0.0,0.0,0.0,0.0,0.0,0.0,0.0,0.0,0.0,0.0,0.0,0.0,0.0,0.0,0.0,0.0,0.0,0.0,0.0,0.0,2.5705,2.7682,2.9401,2.7632,2.5759,0.0,0.0,0.0,0.0,0.0,0.0,0.0,0.0,0.0,3.7639,3.8344,3.9746,4.2074,4.3194,4.4368,4.5636,4.6741,4.7689,4.8438,4.8438,4.8438,4.8438,4.8438,4.6828,4.4025,4.1551,3.9023,3.6454,0.0,0.0,0.0,0.0,3.3408,3.3824,0.0,0.0,0.0,0.0,0.0,0.0,0.0,0.0,0.0,0.0,0.0,0.0,1.6743,1.8514,2.021,2.2044,2.2848,2.2252,1.9914,1.8842,1.7256,1.4963,1.4787,1.5305,1.6398,2.2627,2.9334,3.6376,4.095,4.3188,4.3178,4.3865,4.3831,4.313,4.2475,3.879,3.2906,3.0875,2.8003,2.4552,0.0,0.0,0.0,0.0,0.0,0.0,0.0,0.0,0.0,0.0,0.0,0.0,0.0,0.0,0.0,0.0,0.0,0.0,0.0,0.0,0.0,0.0,0.0,0.0,0.0,0.0,0.0,0.0,0.0,0.0,0.0,0.0,0.0,0.0,0.0,0.0,0.0,2.761,2.9168,3.0913,3.0386,2.9099,0.0,0.0,0.0,0.0,0.0,0.0,3.6072,3.7447,3.9925,4.3798,4.4496,4.5852,4.8005,4.8536,4.8955,4.9284,4.9816,5.0115,5.0295,5.0295,5.0295,5.0295,5.0295,5.0295,5.0025,4.6403,4.4013,4.2441,4.0246,3.8745,3.7958,3.9287,3.976,4.0158,0.0,0.0,0.0,0.0,0.0,0.0,0.0,0.0,0.0,0.0,0.0,1.684,2.0099,2.2721,2.4825,2.6183,2.7045,2.6864,2.5404,2.2933,2.0915,1.9458,1.7563,1.758,1.9719,2.9075,3.587,3.9868,4.3646,4.5539,4.5544,4.6287,4.622,4.5544,4.5467,4.2916,3.8455,3.6518,3.3636,3.0009,2.5442,0.0,0.0,0.0,0.0,0.0,0.0,0.0,0.0,0.0,0.0,0.0,0.0,0.0,0.0,0.0,0.0,0.0,0.0,0.0,0.0,0.0,0.0,0.0,0.0,0.0,0.0,0.0,0.0,0.0,0.0,0.0,0.0,0.0,0.0,0.0,0.0,0.0,0.0,3.528,3.5699,0.0,0.0,0.0,0.0,3.5862,3.7298,3.9481,4.2741,4.4117,4.5792,4.793,4.8648,4.9344,5.0046,5.0099,5.0757,5.2007,5.2037,5.2366,5.2989,5.2989,5.2989,5.2989,5.2989,5.2989,5.2809,5.0115,4.7848,4.5964,4.4944,4.3333,4.1856,4.3812,4.4531,4.4953,0.0,0.0,0.0,0.9233,0.9195,0.9255,0.9499,1.0248,1.1411,1.3196,1.6667,2.0228,2.3617,2.7072,2.9893,3.1703,3.252,3.202,2.9836,2.676,2.4891,2.4614,2.2286,2.4323,3.1383,3.5825,4.0168,4.4398,4.5737,4.6413,4.6413,4.6699,4.6665,4.6413,4.6413,4.524,4.3155,4.0998,3.8081,3.4713,3.2134,2.7645,0.0,0.0,0.0,0.0,0.0,0.0,0.0,0.0,0.0,0.0,0.0,0.0,0.0,0.0,0.0,0.0,0.0,0.0,0.0,0.0,0.0,0.0,0.0,0.0,0.0,0.0,0.0,0.0,0.0,0.0,0.0,0.0,0.0,0.0,0.0,0.0,0.0,3.6806,3.8452,0.0,3.6853,3.8571,4.0109,4.0827,4.3299,4.5475,4.7121,4.7997,4.9172,5.075,5.102,5.1468,5.2127,5.2127,5.2366,5.2839,5.2839,5.2989,5.3228,5.3653,5.3832,5.3832,5.3832,5.3832,5.3743,5.239,5.1402,5.0697,5.0364,4.9779,4.9245,4.998,5.0247,5.0383,0.0,0.0,0.0,0.9939,0.9909,0.9965,1.0169,1.1311,1.3123,1.5829,1.9818,2.3978,2.8121,3.1678,3.4447,3.6071,3.709,3.6572,3.4039,3.1078,2.9161,2.8652,2.7432,3.0514,3.8464,4.0324,4.3044,4.68,4.7308,4.7394,4.7192,4.768,4.7631,4.7158,4.7158,4.6752,4.5978,4.4451,4.1938,3.8758,3.692,3.295,2.7889,0.0,0.0,0.0,0.0,0.0,0.0,0.0,0.0,0.0,0.0,0.0,0.0,0.0,0.0,0.0,0.0,0.0,0.0,0.0,0.0,0.0,0.0,0.0,0.0,0.0,0.0,0.0,0.0,0.0,0.0,0.0,0.0,0.0,0.0,3.6254,3.9158,3.8482,4.1354,4.2581,4.0576,4.318,4.5254,4.5912,4.8027,4.9673,5.0564,5.099,5.1594,5.2516,5.2546,5.2725,5.3198,5.3414,5.3648,5.3887,5.4097,5.4336,5.4546,5.497,5.5179,5.5179,5.5179,5.5179,5.5149,5.47,5.4516,5.4426,5.3558,5.3348,5.3558,5.3558,5.3683,5.3887,0.0,0.0,1.0643,1.0054,0.9969,1.0144,1.0738,1.1991,1.4822,2.0202,2.3828,2.8016,3.3468,3.6405,3.8284,3.9032,4.0416,4.0295,3.8038,3.5793,3.3603,3.1471,3.2916,3.5836,4.0286,4.2495,4.4716,4.6965,4.8421,4.8729,4.8022,4.9458,4.9357,4.8022,4.7988,4.7549,4.6868,4.6819,4.5123,4.2212,3.9595,3.7206,3.4708,0.0,0.0,0.0,0.0,0.0,0.0,0.0,0.0,0.0,0.0,0.0,0.0,0.0,0.0,0.0,0.0,0.0,0.0,0.0,0.0,0.0,0.0,0.0,0.0,0.0,0.0,0.0,0.0,0.0,0.0,0.0,0.0,0.0,3.7049,3.9553,4.143,4.0752,4.4698,4.6736,4.4747,4.6955,4.9239,5.1116,5.1265,5.1858,5.3169,5.3228,5.3258,5.3288,5.3288,5.3318,5.3318,5.3952,5.461,5.5269,5.5923,5.6577,5.7172,5.7202,5.7232,5.7232,5.7262,5.7236,5.7184,5.7154,5.7154,5.6915,5.4336,5.3713,5.4311,5.4311,5.47,5.5239,1.1455,1.1521,1.1455,1.1311,1.1281,1.1408,1.1749,1.3461,1.6214,2.054,2.5423,3.0287,3.5015,3.8366,4.0588,4.1349,4.1755,4.15,4.0344,3.7162,3.5284,3.5261,3.9783,4.3632,4.6498,4.7679,4.91,5.0858,5.1272,5.1062,5.0288,5.0694,5.0694,5.0254,4.9729,4.9086,4.8376,4.7819,4.6817,4.5442,4.4201,4.1359,3.7732,0.0,0.0,0.0,0.0,0.0,0.0,0.0,0.0,0.0,0.0,0.0,0.0,0.0,0.0,0.0,0.0,0.0,0.0,0.0,0.0,0.0,0.0,0.0,0.0,0.0,0.0,0.0,0.0,0.0,0.0,0.0,4.1675,4.436,4.0582,4.4367,4.7496,4.7311,4.9987,5.1518,5.0636,5.1633,5.2444,5.2648,5.2636,5.3025,5.3892,5.3922,5.4371,5.5354,5.5384,5.5593,5.6017,5.6196,5.6406,5.6585,5.6765,5.7428,5.857,5.9635,6.004,5.9957,6.0531,6.0232,5.9246,5.874,5.856,5.8381,5.6675,5.6137,5.6286,5.6286,5.6406,5.6585,1.1301,1.161,1.179,1.179,1.179,1.1988,1.2566,1.445,1.7745,2.3129,2.7676,3.2537,3.8095,4.0987,4.2848,4.356,4.3572,4.278,4.1054,3.8334,3.8185,4.1279,4.4762,4.7831,5.0384,5.0843,5.1492,5.2394,5.2379,5.1965,5.1201,5.1505,5.1505,5.1167,5.0744,5.0338,4.9882,4.9138,4.8409,4.7665,4.6906,4.4891,4.2104,4.0565,3.8321,3.572,3.3839,3.232,3.1114,3.0352,0.0,0.0,0.0,0.0,0.0,0.0,0.0,0.0,0.0,0.0,0.0,0.0,0.0,0.0,0.0,0.0,0.0,0.0,0.0,0.0,0.0,0.0,0.0,0.0,4.6899,4.94,4.7263,4.9568,5.1579,5.1883,5.3436,5.4475,5.4529,5.4882,5.5251,5.5557,5.5603,5.6004,5.6992,5.7054,5.7393,5.8196,5.8529,5.869,5.8727,5.9616,5.9919,5.9616,6.0203,6.0882,6.1687,6.2506,6.2827,6.2777,6.3268,6.2996,6.2214,6.1813,6.1659,6.1431,0.0,0.0,0.0,0.0,5.877,5.877,1.0872,1.1396,1.179,1.179,1.1817,1.2173,1.3202,1.5147,1.9179,2.6565,2.9992,3.4499,4.1633,4.3619,4.4726,4.5527,4.5455,4.4137,4.1343,4.0123,4.2066,4.7702,4.8227,4.978,5.274,5.2783,5.2832,5.2901,5.286,5.2452,5.1709,5.2389,5.2321,5.1693,5.1529,5.1447,5.1414,5.0588,4.9796,4.9086,4.8394,4.7631,4.653,4.3822,4.2112,4.0794,3.8169,3.6051,3.45,3.4402,0.0,0.0,0.0,0.0,0.0,0.0,0.0,0.0,0.0,0.0,0.0,0.0,0.0,0.0,0.0,0.0,0.0,0.0,0.0,0.0,0.0,0.0,0.0,0.0,5.1655,5.4463,5.5213,5.4741,5.4519,5.5049,5.5755,5.6464,5.7152,5.7249,5.7763,5.9043,5.9149,5.9694,6.1031,6.1192,0.0,0.0,0.0,6.2145,6.148,6.3341,6.3982,6.3349,6.4599,6.5282,6.543,6.5494,6.5502,6.5534,6.5598,6.5556,6.5408,6.5504,6.5625,6.5279,6.1344,6.0153,6.0757,6.1451,6.1692,6.1665,1.1396,1.17,1.179,1.179,1.1971,1.2448,1.3462,1.5661,1.975,2.6808,3.034,3.4986,4.2319,4.3875,4.4878,4.6127,4.6177,4.5681,4.4567,4.5375,4.6766,4.8661,5.0507,5.2607,5.5103,5.5156,5.5424,5.6017,5.6013,5.5608,5.482,5.4995,5.496,5.4791,5.3573,5.3076,5.2961,5.1573,5.0574,4.9864,4.9729,4.8511,4.6733,4.6143,4.5795,4.5472,4.4913,4.4029,4.3026,4.2462,4.0189,3.7494,3.7141,3.4568,0.0,0.0,0.0,0.0,0.0,0.0,0.0,0.0,0.0,0.0,0.0,0.0,0.0,0.0,0.0,0.0,0.0,0.0,0.0,5.19,5.5488,5.8198,5.8954,5.8921,5.8564,5.7829,5.8647,5.9405,5.9816,5.9863,6.0055,6.0555,6.0582,6.0944,6.1763,6.2387,6.2932,6.3485,6.4214,6.4535,6.4375,6.4791,6.492,6.4791,6.508,0.0,6.6762,6.7352,6.7567,6.7585,6.8166,6.7809,6.6863,6.7439,6.8068,6.8266,6.5205,6.4089,6.4305,6.5027,6.5281,6.5221,1.155,1.179,1.179,1.179,1.2013,1.2661,1.4047,1.6043,1.9636,2.5872,2.9311,3.3233,3.8627,4.0129,4.0956,4.1405,4.2131,4.3438,4.5523,4.642,4.8501,5.2132,5.3036,5.4538,5.6855,5.6549,5.6528,5.6899,5.651,5.6087,5.5709,5.5709,5.5709,5.566,5.4934,5.4411,5.3967,5.2826,5.1922,5.115,5.0811,4.9999,4.8883,4.7767,4.7361,4.7293,4.6921,4.6514,4.6097,4.576,4.4191,4.238,4.2481,3.9837,3.6213,0.0,0.0,0.0,0.0,0.0,0.0,0.0,0.0,0.0,0.0,0.0,0.0,0.0,0.0,4.3587,4.7832,0.0,5.3393,5.6292,5.8336,5.9945,6.1095,6.1231,6.1056,6.0531,6.0906,6.161,6.251,6.2603,6.2828,6.332,6.3672,6.42,6.4936,6.5684,6.6278,6.6585,6.7311,6.7508,6.7179,6.7871,6.8093,6.773,6.8069,6.8596,6.924,6.9975,7.0286,7.0296,7.1054,7.0966,7.0386,7.0749,7.1136,7.1301,6.9898,6.8503,6.7356,6.7702,6.7856,6.7817,1.158,1.179,1.179,1.179,1.206,1.2864,1.454,1.6186,1.9219,2.4672,2.763,3.0636,3.4347,3.5744,3.6576,3.688,3.8437,4.1332,4.5847,4.6686,4.9574,5.5343,5.5095,5.5799,5.7948,5.7413,5.7103,5.7103,5.6474,5.6155,5.6155,5.6155,5.6155,5.6141,5.6004,5.5595,5.4994,5.4101,5.3266,5.2477,5.1722,5.1336,5.0998,4.924,4.8529,4.8428,4.7699,4.7443,4.7443,4.7443,4.6868,4.6318,4.7181,4.4927,4.1544,3.9163,3.7001,0.0,0.0,0.0,0.0,0.0,0.0,0.0,0.0,3.7341,3.9383,4.4296,4.6444,4.8882,5.3687,5.5175,5.6731,6.0013,6.0554,6.1061,6.2618,6.284,6.2922,6.3226,6.299,6.3328,6.4681,6.4952,6.5324,6.6089,6.6812,6.7523,6.8098,6.8876,6.9316,6.9316,7.0026,7.0128,6.9553,7.0872,7.121,7.0635,7.1379,7.1751,7.1751,7.2326,7.2597,7.2631,7.324,7.3601,7.3713,7.3713,7.3804,7.394,7.394,7.2592,7.0604,7.0474,7.0409,7.039,1.167,1.179,1.179,1.179,1.2236,1.3055,1.4567,1.5928,1.8662,2.3925,2.5473,2.7964,3.2874,3.3812,3.526,3.8204,4.0557,4.3342,4.6746,4.9045,5.1878,5.5438,5.5519,5.6289,5.796,5.7927,5.7892,5.7892,5.7785,5.775,5.775,5.775,5.775,5.769,5.7065,5.6708,5.655,5.5088,5.4056,5.3314,5.2508,5.1776,5.1167,5.093,5.0829,5.0728,4.9999,4.9744,4.9744,4.9744,4.9242,4.8741,4.951,4.8959,4.7359,4.3975,4.1421,3.8772,3.4543,3.3283,3.3868,3.6672,3.8121,4.0641,0.0,4.8332,4.8892,5.3331,5.541,5.6847,5.8168,5.8998,6.008,6.1839,6.2164,6.2651,6.414,6.4343,6.485,6.6149,6.5155,6.4681,6.5514,6.617,6.688,6.759,6.8402,6.8876,6.8977,6.9654,7.0082,7.0082,7.0804,7.112,7.1052,7.1887,7.2225,7.2157,7.2902,7.324,7.3263,7.3364,7.3398,7.3375,7.3466,7.3883,7.4492,7.4492,7.4864,7.5439,7.5439,7.5272,7.4897,7.4258,7.4022,7.3956,1.161,1.179,1.179,1.179,1.223,1.2952,1.3988,1.5612,1.7777,2.0845,2.2665,2.4569,2.6877,2.7634,2.9055,3.1873,3.6238,4.0561,4.4745,4.8636,5.2013,5.4777,5.4913,5.5647,5.7262,5.7299,5.7519,5.7997,5.7997,5.7997,5.7997,5.7997,5.7997,5.7985,5.7691,5.7314,5.6861,5.6204,5.5217,5.4106,5.3748,5.3198,5.2486,5.2029,5.1844,5.1607,5.0033,4.8932,0.0,4.9154,4.8984,4.8631,5.0236,4.9645,4.7977,4.6047,4.4255,4.285,4.2774,4.1617,4.1172,4.4356,4.5772,4.735,5.0961,5.2068,5.3364,5.688,5.8457,5.9404,6.0216,6.0588,6.1298,6.2821,6.3057,6.3565,6.5019,6.5595,6.6271,6.732,6.732,6.7354,6.7658,6.7963,6.8267,6.8571,6.9316,6.9722,6.9722,7.0432,7.1041,7.1481,7.1785,7.2157,7.2563,7.2868,7.3037,7.3037,7.3364,7.35,7.3534,7.395,7.4356,7.4762,7.4762,7.4965,7.5236,7.5236,7.5439,7.5709,7.5709,7.5709,7.5676,7.5337,7.5236,7.5198,1.1336,1.1665,1.179,1.179,1.2195,1.2757,1.3566,1.5009,1.6552,1.8099,1.9925,2.1329,2.208,2.2867,2.4263,2.6547,3.2185,3.7558,4.2184,4.7278,5.1279,5.3959,5.4289,5.506,5.6455,5.6455,5.6748,5.7347,5.7347,5.7446,5.7666,5.7666,5.7666,5.7666,5.7666,5.7264,5.6514,5.6326,5.5575,5.4563,5.4341,5.3921,5.3375,5.2586,5.1902,5.1039,4.9089,4.7699,4.6834,4.7056,4.709,4.7278,4.8883,4.8563,4.7481,4.6955,4.5616,4.4736,4.6887,4.6849,4.6956,4.994,5.1894,5.323,5.3991,5.5175,5.6731,5.8844,5.9911,6.0622,6.1197,6.1637,6.2313,6.3599,6.3951,6.4546,6.5831,6.6474,6.7163,6.8132,6.8741,6.9248,6.9688,6.9519,6.9417,6.9417,7.0094,7.0567,7.0826,7.1312,7.1954,7.2665,7.2699,7.2969,7.35,7.368,7.3781,7.3815,7.4018,7.4109,7.4119,7.4661,7.5202,7.5709,7.5709,7.5709,7.5709,7.5709,7.5709,7.5709,7.5709,7.5709,7.5709,7.5709,7.5709,7.5709,1.0812,1.1361,1.179,1.179,1.2024,1.2562,1.3535,1.3977,1.4811,1.6532,1.7456,1.8603,2.0373,2.1503,2.2927,2.4896,3.0453,3.5605,3.9724,4.5259,4.9838,5.3104,5.3995,5.4803,5.5622,5.5658,5.5658,5.5658,5.5658,5.6062,5.6847,5.6847,5.6847,5.6847,5.6847,5.6407,5.5592,5.4882,5.4541,5.4441,5.3669,5.3321,5.3224,5.2561,5.083,4.8534,4.7327,4.6834,4.6346,4.3484,4.3484,4.4702,4.477,4.5751,4.6834,4.68,4.5196,4.3457,4.3558,4.5674,4.8533,5.1522,5.4972,5.7881,5.8641,5.9404,5.9945,6.0047,6.0689,6.1264,6.1298,6.2463,6.368,6.4444,6.5155,6.5899,6.6677,6.6791,6.7366,6.8876,6.9079,6.9654,7.1086,7.0601,7.0184,7.0184,7.0838,7.1582,7.2293,7.236,7.2699,7.3466,7.3466,7.35,7.35,7.4221,7.4593,7.4593,7.5303,7.5642,7.5642,7.5676,7.5676,7.5709,7.5709,7.5709,7.5709,7.5709,7.5709,7.5709,7.5709,7.5709,7.5709,7.5709,7.5709,7.5709,1.0638,1.0967,1.1271,1.173,1.1865,1.2121,1.2629,1.3494,1.4306,1.4893,1.6189,0.0,0.0,0.0,0.0,0.0,2.8536,3.3366,3.8006,4.3094,4.7379,5.0665,5.2097,5.3419,5.4766,5.4803,5.5071,5.5585,5.5585,5.5732,5.5978,5.5978,5.5978,5.5978,5.5978,5.5842,5.5574,5.5325,5.4941,5.4469,5.4194,5.3472,5.2482,5.229,4.9732,4.5924,0.0,4.2609,4.2021,4.1672,4.1589,4.1961,4.3958,4.4228,4.3822,4.3822,4.4688,4.6075,4.8056,5.0051,5.2418,5.5868,5.7712,5.8829,5.9573,6.0317,6.0892,6.0892,6.0689,6.0655,6.1197,6.1704,6.2448,6.3646,6.4884,6.5967,6.6711,6.7218,6.7929,6.8977,6.9519,7.0229,7.1188,7.1075,7.0939,7.0939,7.1616,7.2157,7.2394,7.2868,7.3477,7.4221,7.4221,7.4458,7.4931,7.5202,7.5337,7.5337,7.5574,7.5709,7.5709,7.5709,7.5709,7.5709,7.5709,7.5709,7.5709,7.5709,7.5709,7.5709,7.5709,7.5709,7.5709,7.5709,7.5709,7.5709,1.0319,1.0847,1.1301,1.1725,1.179,0.0,0.0,0.0,0.0,0.0,0.0,0.0,0.0,0.0,0.0,0.0,0.0,3.0613,3.4621,3.9423,4.3461,4.6443,4.7838,4.9297,5.0912,5.0362,5.0729,5.2134,5.2417,5.3004,5.3896,5.419,5.43,5.43,5.43,5.4153,5.3896,5.3896,5.3767,5.3527,5.2645,5.1679,5.0593,4.9256,4.6162,0.0,3.953,3.7858,3.6992,3.7478,3.7833,3.8476,4.0709,4.1975,4.2709,4.301,4.502,4.7904,5.1451,5.3145,5.4769,5.8472,5.9588,6.0039,6.082,6.1611,6.2252,6.2555,6.1529,6.0758,6.127,6.1548,6.1907,6.2598,6.4613,6.6271,6.6724,6.7455,6.8301,6.935,6.9891,7.0466,7.1244,7.1526,7.1582,7.1323,7.1988,7.2529,7.2766,7.3477,7.4221,7.4965,7.4999,7.5236,7.5709,7.5709,7.5709,7.5709,7.5709,7.5709,7.5709,7.5709,7.5709,7.5709,7.5709,7.5709,7.5709,7.5709,7.5709,7.5709,7.5709,7.5879,7.6115,7.6115,7.6284,7.6487,0.9879,1.0862,1.173,0.0,0.0,0.0,0.0,0.0,0.0,0.0,0.0,0.0,0.0,0.0,0.0,0.0,0.0,0.0,2.9873,3.4511,3.8293,4.0728,4.1654,4.2865,4.448,4.302,4.3351,4.5663,4.6461,4.8076,5.0398,5.1169,5.1546,5.1546,5.1526,5.1112,5.0405,5.0405,5.0798,5.1238,4.8901,4.791,4.745,4.3792,4.0519,3.7555,3.4999,3.3118,3.1801,3.1438,3.2957,3.5124,3.5983,3.965,4.3818,4.4606,4.6357,4.9031,5.3447,5.4787,5.5736,5.9343,6.0838,6.165,6.2538,6.3254,6.3972,6.4675,6.2973,6.1346,6.1242,6.1779,6.2067,6.14,6.4444,6.6859,6.6893,6.7523,6.8504,7.0014,7.0251,7.0534,7.1289,7.2022,7.2157,7.1458,7.209,7.28,7.3534,7.4255,7.4999,7.5676,7.5709,7.5709,7.5709,7.5709,7.5709,7.5709,7.5709,7.5709,7.5709,7.5709,7.5709,7.5709,7.5709,7.5709,7.5709,7.5709,7.5709,7.5743,7.5743,7.6251,7.6961,7.6961,7.7401,7.7933,0.0,0.0,0.0,0.0,0.0,0.0,0.0,0.0,0.0,0.0,0.0,0.0,0.0,0.0,0.0,0.0,0.0,0.0,2.7378,3.0913,3.4328,3.7404,3.8865,4.0369,4.1976,4.1617,4.1727,4.2314,4.3122,4.3864,4.4488,4.5305,4.5672,4.5663,4.5303,4.5014,4.4832,4.4832,4.4479,4.3848,4.3512,4.2668,4.1559,4.1171,3.848,3.4914,3.5179,3.3478,3.1311,3.2451,3.6609,4.1707,4.4095,4.656,4.8723,4.9431,5.1216,5.3291,5.4975,5.7123,5.9409,6.146,6.2596,6.3445,6.4191,6.4524,6.4205,6.2624,6.0975,5.9252,5.7446,5.9047,6.0839,6.1225,6.485,6.7827,6.8436,6.8673,6.9147,7.0116,7.0703,7.1312,7.2056,7.28,7.3161,7.2935,7.3612,7.4119,7.4322,7.5033,7.5506,7.5676,7.5709,7.5709,7.5709,7.5709,7.5709,7.5709,7.5709,7.5709,7.5709,7.5709,7.5709,7.5709,7.5709,7.5709,7.5709,7.5709,7.6048,7.6589,7.6589,7.7063,7.7705,7.7705,7.7865,7.8044,0.0,0.0,0.0,0.0,0.0,0.0,0.0,0.0,0.0,0.0,0.0,0.0,0.0,0.0,0.0,0.0,0.0,0.0,0.0,2.7174,2.9744,3.1935,3.3113,3.4439,3.6054,3.5396,3.5658,3.6938,3.757,3.8336,3.9196,3.9666,3.9893,3.9885,3.9615,3.9508,3.9508,3.9508,3.9328,0.0,0.0,3.7505,3.6886,3.5896,3.3947,3.1829,3.2558,3.3645,3.5193,3.8154,4.1984,4.587,4.7877,5.0001,5.1955,5.3054,5.4712,5.6543,5.829,6.0073,6.1783,6.329,6.4014,6.4334,6.4048,6.3984,6.3311,6.092,5.8995,5.7079,5.5044,5.7647,6.0041,5.9817,6.4647,6.8571,6.9045,6.9383,6.9958,7.1041,7.1515,7.209,7.28,7.3544,7.3984,7.3984,7.439,7.4603,7.4603,7.5303,7.5709,7.5709,7.5709,7.5709,7.5709,7.5709,7.5709,7.5709,7.5709,7.5709,7.5709,7.5709,7.5879,7.6217,7.6217,7.6217,7.6251,7.6589,7.6792,7.6927,7.7266,7.7841,7.8483,7.8483,7.8686,7.9025,0.0,0.0,0.0,0.0,0.0,0.0,0.0,0.0,0.0,1.3586,1.3505,1.3782,1.4747,1.5744,0.0,0.0,0.0,0.0,0.0,0.0,2.5183,2.5973,2.6486,2.7452,2.8989,2.7741,2.8292,3.081,3.1268,3.2364,3.409,3.4246,3.4351,3.4342,3.4285,3.4261,3.4261,3.4261,3.4558,3.4873,3.2854,3.2394,3.2668,0.0,2.892,2.9098,2.9661,3.4247,4.0766,4.5477,4.796,4.9233,5.0271,5.251,5.4991,5.6286,5.7531,5.9078,6.1803,6.2687,6.3208,6.4647,6.5119,6.4804,6.3228,6.2613,6.167,5.9102,5.6906,5.4941,5.3296,5.6544,5.9241,5.847,6.4153,6.8808,6.9316,7.0026,7.0973,7.2259,7.2563,7.2935,7.3578,7.4322,7.4762,7.4762,7.4762,7.4762,7.4762,7.5337,7.5709,7.5709,7.5709,7.5709,7.5709,7.5709,7.5709,7.5709,7.5709,7.5709,7.5709,7.5709,7.6149,7.6893,7.6893,7.6961,7.7096,7.7739,7.7671,7.7266,7.7908,7.8585,7.9261,7.9261,7.9667,8.0209,0.0,0.0,0.0,0.0,0.0,0.0,0.0,0.0,0.0,0.0,1.4961,1.3697,0.0,0.0,0.0,0.0,0.0,0.0,0.0,0.0,0.0,2.2943,2.3628,2.445,2.5391,2.5723,2.6142,2.663,2.7449,2.7962,2.8264,2.9005,2.934,2.9326,2.8923,2.8755,2.8755,2.8755,2.8257,2.7487,2.7449,2.7492,2.754,2.731,2.777,0.0,3.2657,3.7361,4.2702,4.8208,5.2093,5.5062,5.7693,5.9737,6.1114,6.0734,6.0763,6.1062,6.1574,6.2714,6.3991,6.4861,6.567,6.5797,6.4213,6.2287,5.9749,5.5981,5.4371,5.2974,5.0757,5.3621,5.7248,6.015,6.3816,6.7354,7.0478,7.1548,7.2124,7.236,7.3477,7.4289,7.439,7.5067,7.5506,7.5506,7.5506,7.5506,7.5506,7.5642,7.5709,7.5709,7.5709,7.5709,7.5709,7.5709,7.5709,7.5709,7.5709,7.5709,7.5709,7.5709,7.6149,7.6893,7.6893,7.7232,7.7831,7.7967,7.828,7.8754,7.8855,7.9363,8.0006,8.0006,8.0073,8.0209,0.0,0.0,0.0,0.0,0.0,0.0,0.0,1.4391,1.622,1.9138,1.8365,1.7368,1.6849,1.6674,1.6708,0.0,0.0,0.0,0.0,0.0,0.0,2.0941,2.19,2.2587,2.2986,2.3705,2.4204,2.4462,0.0,2.4832,2.5032,2.506,2.5066,2.506,2.486,2.4751,2.4751,2.4751,2.4406,2.3898,2.4142,2.4668,2.5369,2.575,2.749,0.0,3.3246,3.78,4.291,4.6911,5.1904,5.695,6.0098,6.1857,6.273,6.2337,6.2232,6.2311,6.2741,6.3443,6.4225,6.4999,6.555,6.5007,6.1667,5.9685,5.7141,5.2234,5.0957,5.0061,4.7765,5.1506,5.5428,5.6953,6.1974,6.644,6.8673,7.0939,7.2529,7.2935,7.395,7.4762,7.5134,7.5506,7.5709,7.5709,7.5709,7.5709,7.5709,7.5709,7.5709,7.5709,7.5709,7.5709,7.5709,7.5709,7.5709,7.5709,7.5709,7.5709,7.5709,7.6115,7.6724,7.7502,7.7874,7.8247,7.8585,7.8991,7.9126,7.916,7.9532,7.9904,8.0209,8.0209,8.0209,8.0209,0.0,0.0,0.0,0.0,0.0,0.0,1.431,1.5968,1.8171,2.1826,2.2362,2.188,2.0489,1.8785,1.76,0.0,0.0,0.0,0.0,0.0,0.0,0.0,2.0593,2.1252,2.1252,0.0,0.0,2.3173,2.2788,0.0,0.0,0.0,0.0,0.0,2.2159,2.2159,2.2159,2.2159,2.2209,0.0,0.0,2.3173,2.4611,0.0,0.0,0.0,0.0,3.7331,4.1772,4.5039,4.9985,5.5343,5.8914,6.119,6.2536,6.2536,6.2536,6.2732,6.3576,6.3943,6.4249,6.4897,6.5044,6.3833,5.9061,5.6969,5.4499,4.914,4.7858,4.7255,4.5851,4.9631,5.3188,5.4029,5.9593,6.4512,6.6521,6.9755,7.2326,7.3364,7.4289,7.5067,7.5642,7.5709,7.5709,7.5709,7.5709,7.5709,7.5709,7.5709,7.5709,7.5709,7.5709,7.5709,7.5709,7.5709,7.5709,7.5709,7.5709,7.5777,7.598,7.6623,7.7401,7.8247,7.8855,7.9169,7.9397,7.9972,7.987,7.9397,7.9972,8.0209,8.0209,8.0209,8.0209,8.0209,0.0,0.0,0.0,0.0,0.0,0.0,1.431,1.7386,2.1188,2.6234,2.6171,2.5494,2.5012,2.1827,1.9205,0.0,0.0,0.0,0.0,0.0,0.0,0.0,0.0,0.0,0.0,0.0,0.0,2.2415,2.2355,0.0,0.0,0.0,0.0,0.0,0.0,2.1649,2.1649,2.1649,0.0,0.0,0.0,0.0,0.0,0.0,0.0,0.0,0.0,3.6898,3.8888,4.4957,4.7443,4.88,5.3592,5.8107,6.1704,6.1704,6.1704,6.1887,6.2683,6.3503,6.4139,6.4213,6.4213,6.3111,5.8951,5.5684,5.2333,4.8067,4.6048,4.5416,4.6687,4.757,4.9938,5.5422,5.7035,5.9776,6.5912,6.8876,7.1165,7.3263,7.4728,7.5642,7.5676,7.5709,7.5709,7.5709,7.5709,7.5709,7.5709,7.5709,7.5709,7.5709,7.5709,7.5709,7.5709,7.5709,7.5709,7.5709,7.5709,7.6082,7.6792,7.686,7.7671,7.9,7.9067,7.9498,8.0107,8.0175,8.0175,8.0107,8.0175,8.0209,8.0209,8.0209,8.0209,8.0209,0.0,0.0,0.0,0.0,0.0,0.0,1.6299,1.8423,2.1494,2.7023,2.7482,2.6915,2.585,2.3755,2.1065,1.7791,0.0,0.0,0.0,0.0,0.0,0.0,0.0,0.0,0.0,0.0,2.1757,2.1524,2.1524,0.0,0.0,0.0,0.0,0.0,0.0,2.1236,2.1252,2.1498,0.0,0.0,0.0,0.0,0.0,0.0,0.0,0.0,0.0,0.0,3.8043,4.1589,4.47,4.7443,4.9397,5.2994,5.7042,5.9453,6.0493,6.1153,6.2462,6.305,6.3319,6.3319,6.2585,6.0823,5.6748,5.3739,5.0608,4.6498,4.514,4.4803,4.5153,4.6112,4.7994,5.1469,5.3968,5.6867,6.0892,6.4918,6.8322,7.0567,7.2563,7.4255,7.5574,7.5709,7.5709,7.5709,7.5709,7.5709,7.5709,7.5709,7.5709,7.5709,7.5709,7.5709,7.5709,7.5709,7.5709,7.5709,7.5709,7.6115,7.6927,7.7367,7.8111,7.9101,7.9566,7.9938,8.0209,8.0209,8.0209,8.0209,8.0209,8.0209,8.0209,8.0209,8.0209,8.0209,0.0,0.0,0.0,0.0,0.0,1.2692,1.7384,1.9366,2.206,2.6941,2.7844,2.7448,2.5959,2.4116,2.1612,1.8173,1.7428,0.0,0.0,0.0,0.0,0.0,0.0,0.0,0.0,0.0,2.1283,2.0991,2.1207,2.1207,0.0,0.0,2.111,2.0797,0.0,0.0,0.0,0.0,0.0,0.0,0.0,0.0,0.0,0.0,0.0,0.0,0.0,0.0,0.0,0.0,0.0,4.4565,4.5506,4.8043,5.1673,5.6664,5.8866,6.0089,6.1949,6.2609,6.2793,6.2793,6.1582,5.9355,5.5317,5.2527,4.9627,4.5544,4.4516,4.44,4.4529,4.518,4.6517,4.9143,5.1641,5.4448,5.7746,6.1772,6.5324,6.7793,6.9857,7.1954,7.4187,7.5202,7.5709,7.5709,7.5709,7.5709,7.5709,7.5709,7.5709,7.5709,7.5709,7.5709,7.5709,7.5709,7.5709,7.5709,7.5946,7.6454,7.7232,7.7976,7.872,7.9464,7.9972,8.0209,8.0209,8.0209,8.0209,8.0209,8.0209,8.0209,8.0209,8.0209,8.0209,8.0209,0.0,0.0,0.0,0.0,0.0,0.0,1.6829,2.0284,2.3553,2.6522,2.7442,2.7275,2.5939,2.2716,2.0227,1.9275,1.7721,0.0,0.0,0.0,0.0,0.0,0.0,0.0,0.0,0.0,2.0999,2.0991,2.1661,2.1638,2.1023,2.167,2.1403,2.0299,0.0,0.0,0.0,0.0,0.0,0.0,0.0,0.0,2.5358,0.0,0.0,0.0,0.0,0.0,0.0,0.0,0.0,0.0,0.0,4.3697,4.6205,5.3492,5.676,5.8547,6.097,6.2181,6.2793,6.2793,6.1582,5.9355,5.5317,5.2527,4.9627,4.5544,4.4085,4.402,4.5581,4.4859,4.5541,5.0113,5.0479,5.2232,5.8134,6.0351,6.2448,6.5412,6.7049,6.8842,7.112,7.3984,7.5709,7.5709,7.5709,7.5709,7.5709,7.5709,7.5709,7.5709,7.5709,7.5709,7.5709,7.5709,7.5709,7.5709,7.6521,7.7266,7.8034,7.8754,7.9498,8.0175,8.0209,8.0209,8.0209,8.0209,8.0209,8.0209,8.0209,8.0209,8.0209,8.0209,8.0209,8.0209,0.0,0.0,0.0,0.0,0.0,0.0,1.561,1.7336,1.9455,2.2573,2.3162,2.3186,2.2954,2.1142,1.946,1.8273,1.7113,0.0,0.0,0.0,0.0,0.0,0.0,0.0,0.0,1.9804,2.0838,2.1491,2.1705,2.191,2.2164,2.191,2.1346,2.0561,2.0095,2.0028,0.0,0.0,0.0,0.0,0.0,2.4116,2.4823,0.0,0.0,0.0,0.0,0.0,0.0,0.0,0.0,0.0,0.0,0.0,0.0,4.748,5.1464,5.5133,5.698,5.8107,5.8572,5.8033,5.6675,5.4719,5.1803,4.9627,4.7452,4.4488,4.369,4.3878,4.5057,4.4952,4.61,5.0362,5.0877,5.2164,5.6175,5.981,6.2956,6.5412,7.0161,7.351,7.4255,7.5134,7.5709,7.5709,7.5709,7.5709,7.5709,7.5709,7.5709,7.5709,7.5709,7.5709,7.5709,7.5709,7.598,7.6521,7.6792,7.7536,7.8754,7.8991,7.9498,8.0209,8.0209,8.0209,8.0209,8.0209,8.0209,8.0209,8.0209,8.0209,8.0209,8.0209,8.0209,8.0209,0.0,0.0,0.0,0.0,0.0,0.0,0.0,1.5825,1.73,1.9696,1.9754,2.0012,2.0984,1.9233,1.8006,1.8077,1.6887,0.0,0.0,0.0,0.0,0.0,0.0,0.0,1.7997,1.9107,2.0491,2.2064,2.2303,2.2742,2.34,2.3251,2.2413,2.1057,2.0647,2.0403,0.0,0.0,0.0,0.0,2.3105,2.3823,2.4575,0.0,0.0,0.0,0.0,0.0,0.0,0.0,0.0,0.0,0.0,0.0,0.0,0.0,4.6669,5.0357,5.3402,5.484,5.5306,5.4803,5.3482,5.1746,4.9601,4.7829,4.6058,4.3947,4.3506,4.3777,4.4723,4.4751,4.5852,4.9565,5.0241,5.1741,5.5938,5.9167,6.2347,6.573,7.0804,7.4153,7.4424,7.5202,7.5709,7.5709,7.5709,7.5709,7.5709,7.5709,7.5709,7.5709,7.5709,7.5709,7.5709,7.5709,7.6115,7.6893,7.7164,7.7942,7.9101,7.9397,7.9769,8.0209,8.0209,8.0209,0.0,8.0209,8.0209,8.0209,8.0209,8.0209,8.0209,8.0209,8.0209,8.0209,0.0,0.0,0.0,0.0,0.0,0.0,0.0,1.5399,1.6598,1.7576,1.7184,1.7602,1.954,1.7109,1.6146,1.8159,0.0,0.0,0.0,0.0,0.0,0.0,0.0,0.0,1.769,1.8365,2.0019,2.2763,2.337,2.4048,2.4844,2.5453,2.4358,2.1814,2.1794,2.1231,2.0392,2.1291,2.1889,2.2347,2.3105,2.3823,0.0,0.0,0.0,0.0,0.0,0.0,0.0,0.0,0.0,0.0,0.0,0.0,0.0,0.0,0.0,0.0,0.0,5.1972,5.2695,5.269,5.1563,5.0031,4.8406,4.6874,0.0,4.3756,4.3454,4.3739,4.4629,4.4402,4.5141,4.8348,4.91,5.1349,5.7155,5.9032,6.1651,6.6656,6.9835,7.1853,7.2496,7.4458,7.5709,7.5709,7.5709,7.5709,7.5709,7.5709,7.5709,7.5709,7.5709,7.5709,7.5709,7.5709,7.6115,7.6995,7.7671,7.8416,7.9203,7.9904,8.0209,8.0209,8.0209,8.0209,8.0209,8.0209,8.0209,8.0209,8.0209,8.0209,8.0209,8.0209,8.0209,8.0209,0.0,0.0,0.0,0.0,0.0,0.0,0.0,0.0,0.0,0.0,1.5115,1.5106,1.4619,1.5246,1.5493,0.0,0.0,0.0,0.0,0.0,0.0,0.0,0.0,0.0,1.769,1.8365,2.0228,2.3381,2.4048,2.5214,2.6884,2.7076,2.5716,2.3131,2.2662,2.1867,2.0894,2.1757,2.2202,2.2347,2.3105,2.3823,0.0,0.0,0.0,0.0,2.8696,3.0296,0.0,0.0,0.0,0.0,0.0,0.0,0.0,0.0,3.9816,4.1568,4.3456,0.0,4.7886,4.7669,4.7315,4.6801,0.0,4.525,4.4565,4.3176,4.2874,4.3517,4.5625,4.5394,4.6326,5.0648,5.1899,5.3786,5.8124,6.3835,6.8639,7.1582,7.3544,7.4525,7.4119,7.5067,7.5709,7.5709,7.5709,7.5709,7.5709,7.5709,7.5709,7.5709,7.5709,7.5709,7.5709,7.5709,7.6386,7.7739,7.7933,7.8686,7.9938,8.0107,8.0209,8.0209,8.0209,8.0209,8.0209,8.0209,8.0209,8.0209,8.0209,8.0209,8.0209,8.0209,8.0209,8.0276,0.0,0.0,0.0,0.0,0.0,0.0,0.0,0.0,0.0,0.0,1.3376,1.3382,1.3262,1.3963,0.0,0.0,0.0,0.0,0.0,0.0,0.0,0.0,0.0,1.6405,1.7661,1.8057,2.015,2.4048,2.4724,2.6243,2.8513,2.8513,2.6914,2.401,2.2572,2.1579,2.1047,2.193,2.2313,2.2347,2.3105,0.0,0.0,0.0,0.0,0.0,2.8696,3.0431,0.0,3.3931,3.5487,3.6784,0.0,0.0,0.0,0.0,3.8243,3.9499,4.0054,4.2378,4.4726,4.5205,4.4918,4.4541,4.4674,4.42,4.3569,4.285,4.2693,4.3119,4.4546,4.5889,4.7531,4.974,5.3347,5.7479,6.1946,6.6981,7.103,7.3263,7.4492,7.5168,7.51,7.5473,7.5709,7.5709,7.5709,7.5709,7.5709,7.5709,7.5709,7.5709,7.5709,7.5709,7.5709,7.6082,7.6826,7.8,7.8348,7.9092,8.0209,8.0209,8.0209,8.0209,8.0209,8.0209,8.0209,8.0209,8.0209,8.0209,8.0209,8.0209,8.0209,8.0209,8.0209,8.031,0.0,0.0,0.0,0.0,0.0,0.0,0.0,0.0,0.0,0.0,0.0,0.0,0.0,0.0,0.0,0.0,0.0,0.0,0.0,0.0,0.0,0.0,1.4916,1.5859,1.781,1.775,1.9911,2.4455,2.5334,2.7081,2.9621,3.0,2.8308,2.4818,2.2587,2.1392,2.1047,2.193,2.2313,2.2381,2.3248,0.0,0.0,0.0,0.0,0.0,0.0,0.0,0.0,3.4461,3.5859,3.6851,3.7246,0.0,0.0,0.0,0.0,0.0,3.8866,4.0909,4.3027,4.3879,4.3492,4.3134,4.4032,4.3457,4.2681,4.2612,4.2687,4.3028,4.3979,4.6578,4.8724,4.9088,5.5094,6.1414,6.6453,6.9214,7.1402,7.3297,7.4255,7.4965,7.5473,7.5642,7.5709,7.5709,7.5709,7.5709,7.5709,7.5709,7.5709,7.5709,7.5709,7.5709,7.5709,7.6487,7.7266,7.8034,7.8754,7.9498,8.0209,8.0209,8.0209,8.0209,8.0209,8.0209,8.0209,8.0209,8.0209,8.0209,8.0209,8.0209,8.0209,8.0209,8.0209,8.031,0.0,0.0,0.0,0.0,0.0,0.0,0.0,0.0,0.0,0.0,0.0,0.0,0.0,0.0,0.0,0.0,0.0,0.0,0.0,0.0,0.0,1.4796,1.5342,1.6563,1.8514,1.7997,1.9672,2.3748,2.5555,2.7542,2.9665,3.1871,3.0534,2.6232,2.4964,2.3128,2.1047,2.193,2.2313,2.2422,2.3789,0.0,0.0,0.0,0.0,0.0,0.0,0.0,0.0,3.2689,3.4595,3.6592,3.5396,0.0,0.0,0.0,0.0,0.0,3.9869,4.2215,4.3521,4.177,4.21,4.2788,4.2341,4.2464,4.2608,4.2251,4.2559,4.4296,4.9071,4.8893,4.9835,5.5399,5.9968,6.4187,6.8199,7.1176,7.3128,7.3466,7.4695,7.5337,7.483,7.5337,7.5709,7.5709,7.5709,7.5709,7.5709,7.5709,7.5709,7.5709,7.5709,7.5709,7.5709,7.6487,7.7266,7.8034,7.8754,7.9498,8.0209,8.0209,8.0209,8.0209,8.0209,8.0209,8.0209,8.0209,8.0209,8.0209,8.0209,8.0209,8.0209,8.0209,8.0209,8.0378,0.0,0.0,0.0,0.0,0.0,0.0,0.0,0.0,0.0,0.0,0.0,0.0,0.0,0.0,0.0,0.0,0.0,0.0,0.0,0.0,1.4962,1.6301,1.666,1.7416,1.8664,1.9809,2.2193,2.5885,2.8597,3.0794,3.2377,3.1269,2.9081,2.602,2.4032,2.2369,2.1047,2.193,2.2313,2.2422,0.0,0.0,0.0,0.0,0.0,0.0,0.0,0.0,0.0,0.0,3.4618,3.6592,3.5453,0.0,0.0,0.0,0.0,0.0,3.7728,3.9667,4.1414,4.155,4.4211,4.6853,4.7202,4.7231,4.6878,4.5875,4.6222,4.7607,5.0647,5.2351,5.5784,6.3314,6.4613,6.6136,7.0297,7.1718,7.2766,7.395,7.4695,7.5134,7.5202,7.5506,7.5709,7.5709,7.5709,7.5709,7.5709,7.5709,7.5709,7.5709,7.5709,7.5912,7.6352,7.7096,7.7638,7.8034,7.916,7.987,8.0209,8.0209,8.0209,8.0209,8.0209,8.0209,8.0209,8.0209,8.0209,8.0209,8.0209,8.0209,8.0209,8.0209,8.0445,8.0953,0.0,0.0,0.0,0.0,0.0,0.0,0.0,0.0,0.0,0.0,0.0,0.0,0.0,0.0,0.0,0.0,0.0,0.0,0.0,1.443,1.559,1.7392,1.8055,1.8931,2.007,2.2141,2.5027,2.8758,3.1621,3.3792,3.515,3.1364,2.8361,2.605,2.3626,2.1975,2.1047,2.193,2.2313,2.2422,0.0,0.0,0.0,0.0,0.0,0.0,0.0,0.0,0.0,0.0,0.0,0.0,0.0,0.0,0.0,3.6593,3.6307,3.6524,3.6605,3.8181,4.0303,4.2523,4.5568,4.8628,5.0945,5.0679,4.9858,4.9595,5.0287,5.1249,5.2313,5.619,6.1332,6.7827,6.7713,6.8153,7.209,7.2326,7.2766,7.4661,7.4864,7.51,7.5642,7.5709,7.5709,7.5709,7.5709,7.5709,7.5709,7.5709,7.5709,7.5709,7.5709,7.6082,7.6893,7.7638,7.8077,7.8247,7.9566,8.0209,8.0209,8.0209,8.0209,8.0209,8.0209,8.0209,8.0209,8.0209,8.0209,8.0209,8.0209,8.031,8.0445,8.0242,8.0885,8.1866,0.0,0.0,0.0,0.0,0.0,0.0,0.0,0.0,0.0,0.0,0.0,0.0,0.0,0.0,0.0,0.0,0.0,0.0,1.3733,1.443,1.5404,1.6711,1.9111,2.1596,2.4217,2.4506,2.6925,3.1613,3.3034,3.4689,3.652,3.414,3.1066,2.7504,2.5987,2.3693,2.1047,2.193,2.2313,2.2381,2.3173,0.0,0.0,0.0,0.0,0.0,0.0,0.0,0.0,0.0,0.0,0.0,0.0,0.0,3.7902,3.7787,3.7281,3.7214,3.9242,4.0899,4.2604,4.4891,4.3639,4.3328,4.8953,4.846,4.7829,5.1308,5.3072,5.448,5.611,6.008,6.3511,6.4783,6.7726,7.0725,7.3094,7.395,7.4695,7.5506,7.5608,7.5642,7.5676,7.5709,7.5709,7.5709,7.5709,7.5709,7.5709,7.5709,7.5709,7.5709,7.5709,7.6082,7.6893,7.7638,7.8348,7.9025,7.9837,8.0209,8.0209,8.0209,8.0209,8.0209,8.0209,8.0209,8.0209,8.0209,8.0209,8.0209,8.0209,8.0615,8.1148,8.0445,8.1528,8.3253,0.0,0.0,0.0,0.0,0.0,0.0,0.0,0.0,0.0,0.0,0.0,0.0,0.0,0.0,0.0,0.0,0.0,0.0,1.3124,1.3801,1.5235,1.7639,1.9527,2.2088,2.5435,2.7827,3.1018,3.5128,3.6879,3.7599,3.7367,3.3272,2.9938,2.7297,2.4693,2.2976,2.2066,2.2233,2.2557,2.3004,2.3274,2.3823,0.0,0.0,0.0,0.0,0.0,0.0,0.0,0.0,3.2674,3.4449,3.4121,3.6107,3.8294,3.6896,3.6637,3.6998,3.7833,4.0134,4.274,4.4567,4.5196,4.6669,5.1758,5.3243,5.4005,5.5482,5.7318,5.9005,6.0069,6.3937,6.6914,6.6677,6.9789,7.2552,7.3398,7.4525,7.5405,7.5676,7.5709,7.5709,7.5709,7.5709,7.5709,7.5709,7.5709,7.5709,7.5709,7.5709,7.5709,7.5709,7.6183,7.6792,7.757,7.8314,7.9058,7.9803,8.0073,8.0209,8.0209,8.0209,8.0209,8.0209,8.0209,8.0209,8.0209,8.0209,8.0209,8.0209,8.0209,8.0919,8.19,8.1156,8.1697,8.2847,0.0,0.0,0.0,0.0,0.0,0.0,0.0,0.0,0.0,0.0,0.0,0.0,0.0,0.0,0.0,0.0,0.0,0.0,1.2742,1.3442,1.5081,1.7941,1.9783,2.2492,2.6312,2.9954,3.3395,3.6634,3.8958,3.8983,3.6738,3.2679,2.9772,2.7789,2.4959,2.3737,2.3736,2.3212,2.3139,2.3417,2.3417,2.3823,0.0,0.0,0.0,0.0,0.0,0.0,0.0,0.0,3.1988,3.3535,3.3941,3.6005,3.8024,3.6727,3.7538,3.878,3.8307,4.0371,4.32,4.5447,4.6955,4.9273,5.4465,5.6461,5.7679,5.9336,6.0554,6.1738,6.3179,6.5764,6.7793,6.8199,7.121,7.3601,7.3815,7.4897,7.5709,7.5709,7.5709,7.5709,7.5709,7.5709,7.5709,7.5709,7.5709,7.5709,7.5709,7.5709,7.5709,7.5709,7.6217,7.6995,7.8,7.8483,7.9228,8.0209,8.0209,8.0209,8.0209,8.0209,8.0209,8.0209,8.0209,8.0209,8.0209,8.0209,8.0344,8.0547,8.0547,8.146,8.2644,8.1663,8.2069,8.3126,0.0,0.0,0.0,0.0,0.0,0.0,0.0,0.0,0.0,0.0,0.0,0.0,0.0,0.0,0.0,0.0,0.0,0.0,1.27,1.3406,1.4882,1.7276,1.9822,2.3055,2.7065,3.0508,3.3366,3.56,3.8575,3.8147,3.4449,3.296,3.1237,2.9301,2.7505,2.6479,2.6029,2.495,2.4101,2.3417,2.3417,2.3857,2.4575,0.0,0.0,0.0,0.0,0.0,0.0,0.0,3.12,3.1979,3.6456,3.7393,3.6965,3.7686,4.0493,4.3031,4.1576,4.2286,4.435,4.8071,4.8511,4.9747,5.6393,5.6799,5.7221,6.2429,6.2381,6.2245,6.5175,6.5121,6.5628,6.8605,7.1582,7.3747,7.4492,7.5236,7.5709,7.5709,7.5709,7.5709,7.5709,7.5709,7.5709,7.5709,7.5709,7.5709,7.5709,7.5709,7.5709,7.5709,7.5709,7.6454,7.8,7.8034,7.8754,8.0209,8.0209,8.0209,8.0209,8.0209,8.0209,8.0209,8.0209,8.0209,8.0209,8.0209,8.0648,8.1317,8.1317,8.2205,8.3321,8.1832,8.2712,8.4478,0.0,0.0,0.0,0.0,0.0,0.0,0.0,0.0,0.0,0.0,0.0,0.0,0.0,0.0,0.0,0.0,0.0,0.0,1.2067,1.316,1.481,1.7087,1.9287,2.1458,2.3693,2.6776,3.0751,3.56,3.6512,3.5577,3.2936,3.1437,2.9872,2.8269,2.8304,2.7341,2.5748,2.5425,2.5135,2.4966,2.4966,2.5093,2.5338,0.0,0.0,0.0,0.0,0.0,0.0,0.0,0.0,0.0,3.3998,3.6284,3.7886,3.6661,3.8367,4.036,3.9019,4.2387,4.6549,4.7723,5.1484,5.5716,5.8761,5.9099,5.9979,6.4174,6.4681,6.4647,6.5547,6.7273,6.8639,6.9045,7.1582,7.3747,7.4492,7.5236,7.5709,7.5709,7.5709,7.5709,7.5709,7.5709,7.5709,7.5709,7.5709,7.5709,7.5709,7.5709,7.5709,7.5709,7.6251,7.6995,7.8,7.8517,7.9261,8.0209,8.0209,8.0209,8.0209,8.0209,8.0209,8.0209,8.0209,8.0209,8.0242,8.075,8.1393,8.2035,8.1494,8.2509,8.4072,8.2611,8.3152,8.458,0.0,0.0,0.0,0.0,0.0,0.0,0.0,0.0,0.0,0.0,0.9893,0.9893,0.0,0.0,0.0,0.0,0.0,0.0,1.1763,1.3071,1.4693,1.6716,1.8495,2.0651,2.3304,2.569,2.86,3.206,3.2973,3.2577,3.1007,3.0997,3.0639,3.0055,3.1157,3.0378,2.8213,2.763,2.7021,2.6471,2.6471,2.6471,2.6547,0.0,0.0,0.0,0.0,0.0,0.0,0.0,0.0,0.0,3.2848,3.498,3.6934,3.7285,3.9881,4.2746,4.294,4.657,5.0686,5.2189,5.5026,5.822,6.1197,6.211,6.3125,6.5967,6.6339,6.6406,6.7341,6.8965,7.0331,7.077,7.2597,7.4187,7.4931,7.5439,7.5709,7.5709,7.5709,7.5709,7.5709,7.5709,7.5709,7.5709,7.5709,7.5709,7.5709,7.5709,7.5709,7.5709,7.6183,7.6927,7.8,7.845,7.9194,8.0209,8.0209,8.0209,8.0209,8.0209,8.0209,8.0209,8.0209,8.0209,8.0276,8.1291,8.2002,8.2408,8.2238,8.3186,8.4444,8.3287,8.3592,8.4614,0.0,0.0,0.0,0.0,0.0,0.0,0.0,0.0,0.0,0.9809,0.9874,0.9893,0.0,0.0,0.0,1.0787,1.0865,1.1135,1.1714,1.3029,1.4571,1.6323,1.7852,2.0544,2.4587,2.6011,2.6547,2.6293,2.8644,2.9465,2.8942,3.1176,3.2588,3.3355,3.4833,3.4201,3.1887,3.0412,2.8949,2.7621,2.7756,2.7756,2.779,2.8595,0.0,0.0,0.0,0.0,0.0,0.0,0.0,0.0,3.273,3.3778,3.4915,3.8638,4.3234,4.7611,4.9842,5.2461,5.5407,5.8885,5.8629,5.8761,6.3599,6.5324,6.6292,6.7624,6.7489,6.776,6.9823,7.0319,7.1097,7.3161,7.4119,7.4864,7.5608,7.5709,7.5709,7.5709,7.5709,7.5709,7.5709,7.5709,7.5709,7.5709,7.5709,7.5709,7.5709,7.5709,7.5709,7.5709,7.5709,7.642,7.8,7.8,7.872,8.0209,8.0209,8.0209,8.0209,8.0209,8.0209,8.0209,8.0209,8.0209,8.031,8.1731,8.234,8.2475,8.3152,8.3862,8.4411,8.3761,8.393,8.4512,0.0,0.0,0.0,0.0,0.0,0.0,0.0,0.0,0.9718,0.9528,0.9731,0.9893,0.9893,0.9893,0.0,1.0457,1.0745,1.1036,1.1375,1.2908,1.4571,1.6323,1.8991,2.1029,2.2304,2.2649,2.295,2.3233,2.6048,2.7638,2.8094,3.0378,3.1843,3.2588,3.4077,3.2848,2.9619,2.8087,2.6928,2.6167,2.7317,2.7452,2.7029,2.7765,2.7503,0.0,0.0,0.0,0.0,0.0,0.0,0.0,3.2946,3.4321,3.4993,3.6395,4.0399,4.4391,4.4553,4.9347,5.4762,5.6763,6.0133,6.3362,6.5074,6.6474,6.7523,6.7827,6.8741,6.962,7.0116,7.1142,7.2259,7.3331,7.4119,7.4864,7.5608,7.5709,7.5709,7.5709,7.5709,7.5709,7.5709,7.5709,7.5709,7.5709,7.5709,7.5709,7.5709,7.5709,7.5709,7.5709,7.5709,7.642,7.8,7.8,7.872,8.0209,8.0209,8.0209,8.0209,8.0209,8.0209,8.0209,8.0209,8.0209,8.0276,8.1156,8.1866,8.2441,8.2577,8.3084,8.3727,8.3558,8.3592,8.3828,0.0,0.0,0.0,0.0,0.0,0.0,0.0,0.0,0.9449,0.9614,0.9783,0.9893,0.9893,0.9893,0.0,0.0,1.0793,1.1077,1.1521,1.2957,1.4763,1.6921,1.8879,2.0335,2.1299,2.1314,2.1645,2.2313,2.3842,2.5702,2.7849,3.0142,3.2171,3.3897,3.4675,3.3186,2.9982,2.8822,2.7909,2.73,2.8078,2.8146,2.7816,2.7799,2.6886,2.565,2.5609,0.0,0.0,0.0,0.0,0.0,0.0,0.0,3.4279,3.6936,4.0005,4.3345,4.7223,5.1523,5.5724,5.902,6.2227,6.4783,6.5527,6.7151,6.847,6.847,6.9383,7.042,7.1109,7.2157,7.3172,7.3916,7.4661,7.527,7.5642,7.5709,7.5709,7.5709,7.5709,7.5709,7.5709,7.5709,7.5709,7.5709,7.5709,7.5709,7.5709,7.5709,7.5709,7.5709,7.5709,7.642,7.8,7.8,7.872,8.0209,8.0209,8.0209,8.0209,8.0209,8.0209,8.0209,8.0209,8.0209,8.0242,8.1012,8.1731,8.2441,8.278,8.3152,8.3524,8.3896,8.3795,8.3625,0.0,0.0,0.0,0.0,0.0,0.0,0.0,0.0,0.0,0.964,0.9816,0.9893,0.9893,0.9893,1.0116,0.0,0.0,0.0,1.1604,1.3106,1.4978,1.728,1.8162,1.9259,2.0623,2.0806,2.1312,2.2117,2.2354,2.4383,2.806,2.9939,3.2408,3.5194,3.4822,3.321,3.0726,2.9499,2.8586,2.8028,2.8163,2.8231,2.8163,2.7494,2.6082,2.4541,2.5033,2.5778,2.6623,2.7519,0.0,0.0,0.0,0.0,3.324,3.7579,4.0017,4.29,5.0281,5.3949,5.6984,6.2353,6.414,6.485,6.5831,6.7658,6.9147,6.9248,6.9857,7.0804,7.2157,7.3003,7.3713,7.4492,7.5236,7.5709,7.5709,7.5709,7.5709,7.5709,7.5709,7.5709,7.5709,7.5709,7.5709,7.5709,7.5709,7.5709,7.5709,7.5709,7.5709,7.5709,7.5845,7.6589,7.8,7.8111,7.8855,8.0209,8.0209,8.0209,8.0209,8.0209,8.0209,8.0209,8.0209,8.0209,8.0242,8.0851,8.1629,8.2475,8.3084,8.3389,8.3558,8.4174,8.4031,8.3592,0.0,0.0,0.0,0.0,0.0,0.0,0.0,0.0,0.0,0.0,0.9508,0.9893,0.9893,0.9893,0.9925,1.0021,1.0558,1.0918,1.1001,0.0,0.0,1.6001,1.7471,1.8539,1.9174,2.0076,2.0818,2.136,2.2639,2.5177,2.884,2.9145,3.0862,3.3615,3.1688,3.0243,2.9077,2.5718,2.4229,2.4195,2.4846,2.5083,2.5091,2.4982,2.4745,2.4448,2.3891,2.4594,2.5973,2.735,2.8407,0.0,0.0,0.0,3.2378,3.4761,3.8041,4.1406,4.39,5.0028,5.7111,6.2976,6.4546,6.5121,6.7151,6.8368,6.9282,6.9925,7.0635,7.1413,7.2259,7.3003,7.3713,7.4492,7.5236,7.5709,7.5709,7.5709,7.5709,7.5709,7.5709,7.5709,7.5709,7.5709,7.5709,7.5709,7.5709,7.5709,7.5709,7.5709,7.5709,7.5709,7.6386,7.713,7.7976,7.8619,7.9363,8.0209,8.0209,8.0209,8.0209,8.0209,8.0209,8.0209,8.0209,8.0209,8.0209,8.031,8.1156,8.2382,8.2509,8.2949,8.3524,8.3625,8.3592,8.3524,0.0,0.0,0.0,0.0,0.0,0.0,0.0,0.0,0.0,0.0,0.0,0.9893,0.9893,0.9893,1.0046,1.0422,1.0721,1.121,1.1931,1.3039,1.4323,1.5739,1.6659,1.7691,1.8886,1.9938,2.0741,2.1197,2.226,2.4695,2.8315,2.8315,3.0345,3.3931,3.1698,2.9837,2.818,2.5668,2.4391,2.4034,2.4372,2.5997,2.7918,2.5008,2.5185,2.6708,2.4263,2.4094,2.5211,2.6691,2.7977,2.9216,3.0472,0.0,0.0,0.0,3.5665,3.9043,4.533,5.1579,5.7645,6.3226,6.4613,6.5189,6.7387,6.8504,6.9316,7.0026,7.0804,7.165,7.28,7.3297,7.3883,7.5033,7.5473,7.5709,7.5709,7.5709,7.5709,7.5709,7.5709,7.5709,7.5709,7.5709,7.5709,7.5709,7.5709,7.5709,7.5709,7.5709,7.5709,7.5709,7.6048,7.6792,7.8,7.8314,7.9058,8.0209,8.0209,8.0209,8.0209,8.0209,8.0209,8.0209,8.0209,8.0209,8.0209,8.0209,8.1088,8.2408,8.2408,8.2847,8.349,8.349,8.349,8.349,0.0,0.0,0.0,0.0,0.0,0.0,0.0,0.0,0.0,0.0,0.0,0.9893,0.9893,0.0,0.0,0.0,1.0835,1.1362,1.2455,1.2711,1.3454,1.4959,1.5756,1.6779,1.8068,1.9612,2.0558,2.0913,2.2023,2.4485,2.8094,2.8297,3.0572,3.4415,3.2002,2.9871,2.7968,2.6108,2.5101,2.4838,2.5422,2.7656,3.0354,2.7782,2.8527,3.0499,2.6733,2.5862,2.6539,2.6869,2.7884,2.9179,3.0074,3.0975,0.0,0.0,0.0,3.726,4.6259,5.1285,5.548,6.1637,6.3328,6.4275,6.7489,6.8673,6.935,7.0297,7.0939,7.1751,7.3229,7.35,7.3984,7.5473,7.5709,7.5709,7.5709,7.5709,7.5709,7.5709,7.5709,7.5709,7.5709,7.5709,7.5709,7.5709,7.5709,7.5709,7.5709,7.5709,7.5709,7.5709,7.5912,7.6657,7.8,7.8348,7.9092,8.0209,8.0209,8.0209,8.0209,8.0209,8.0209,8.0209,8.0209,8.0209,8.0209,8.0412,8.1257,8.2441,8.2611,8.3152,8.3727,8.3355,8.3456,8.3727,0.0,0.0,0.0,0.0,0.0,0.0,0.0,0.0,0.0,0.0,0.0,0.9893,0.9893,0.9893,1.004,1.039,1.0715,1.1175,1.1812,1.246,1.2861,1.2945,1.4802,0.0,1.5976,1.8639,2.0056,2.0075,2.2252,2.5278,2.8942,2.9634,3.1596,3.4381,3.1461,2.9702,2.8739,2.5794,2.494,2.5736,2.7884,2.8908,2.9619,3.4324,3.622,3.5915,3.2148,3.1268,3.1481,2.8678,2.8306,2.9247,3.0693,3.1176,3.1375,0.0,0.0,0.0,4.3179,4.5582,4.836,5.7119,5.981,6.1873,6.7692,6.9079,6.9519,7.0951,7.1255,7.1751,7.3229,7.35,7.3984,7.5473,7.5709,7.5709,7.5709,7.5709,7.5709,7.5709,7.5709,7.5709,7.5709,7.5709,7.5709,7.5709,7.5709,7.5709,7.5709,7.5709,7.5709,7.5709,7.6454,7.7198,7.7976,7.9397,8.0107,8.0209,8.0209,8.0209,8.0209,8.0209,8.0209,8.0209,8.0209,8.0209,8.0242,8.0953,8.1697,8.2475,8.3186,8.3896,8.4377,8.2956,8.3328,8.4343,0.0,0.0,0.0,0.0,0.0,0.0,0.0,0.0,0.0,0.0,0.0,0.0,0.0,1.0097,1.0373,1.0691,1.1187,1.1566,1.1779,1.2035,1.2627,1.3711,1.4664,1.5668,1.6732,1.8443,1.9541,2.0002,2.1346,2.3898,2.7546,2.8272,2.9726,3.163,3.0572,2.9702,2.8807,2.5794,2.4643,2.5211,2.8933,3.2148,3.4878,3.6288,3.8894,4.1196,3.6491,3.4009,3.2916,3.2307,3.1021,2.9871,3.0886,3.12,3.1336,3.209,3.3863,3.6591,4.117,4.4012,4.7261,5.3721,5.7374,6.0566,6.5044,6.7656,6.9519,7.0985,7.1289,7.1751,7.3229,7.35,7.3984,7.5473,7.5709,7.5709,7.5709,7.5709,7.5709,7.5709,7.5709,7.5709,7.5709,7.5709,7.5709,7.5709,7.5709,7.5709,7.5709,7.5709,7.5709,7.5709,7.598,7.6724,7.8,7.9464,8.0209,8.0209,8.0209,8.0209,8.0209,8.0209,8.0209,8.0209,8.0209,8.0209,8.0242,8.1012,8.1731,8.2475,8.3219,8.3964,8.4411,8.2923,8.3328,8.4377,0.0,0.0,0.0,0.0,0.0,0.8944,0.9336,0.9396,0.9587,1.0091,0.0,0.0,0.0,0.0,1.1085,1.136,1.1843,1.2079,1.1949,1.1924,1.2577,1.4053,1.4637,1.5561,1.693,1.8235,1.9243,2.0002,2.1042,2.3214,2.6353,2.735,2.8635,3.0065,2.9287,2.9262,2.9585,2.708,2.5997,2.6471,3.1708,3.4844,3.6738,3.9749,4.2266,4.3789,4.0574,3.8273,3.6828,3.7313,3.6186,3.4427,3.3694,3.2408,3.1302,3.1775,3.3491,3.5814,3.8587,4.1339,4.48,5.0465,5.3408,5.6585,6.3,6.5705,6.7624,7.0364,7.1142,7.1684,7.2902,7.3331,7.3984,7.5473,7.5709,7.5709,7.5709,7.5709,7.5709,7.5709,7.5709,7.5709,7.5709,7.5709,7.5709,7.5709,7.5709,7.5709,7.5709,7.5709,7.5709,7.5709,7.6183,7.6961,7.8,7.9464,8.0209,8.0209,8.0209,8.0209,8.0209,8.0209,8.0209,8.0209,8.0209,8.0209,8.0276,8.1257,8.1968,8.2509,8.349,8.4174,8.4411,8.2923,8.3328,8.4377,0.0,0.0,0.0,0.0,0.8871,0.9024,0.9403,0.9457,0.977,1.0609,0.0,0.0,0.0,0.0,0.0,1.239,1.2689,1.2733,1.2313,1.2272,1.2733,1.3742,1.4694,1.5571,1.6337,1.8023,1.9243,2.0002,2.1536,2.3395,2.5567,2.7012,2.85,2.9862,2.7672,2.8324,3.0954,2.9484,2.8908,2.9585,3.6208,3.6772,3.4799,4.5094,4.6805,4.3829,4.4601,4.4316,4.3592,4.3592,4.3457,4.2645,3.8925,3.4742,3.12,3.12,3.2757,3.4641,0.0,0.0,0.0,4.7086,4.7714,4.9812,6.1487,6.3145,6.3686,6.891,7.0601,7.1379,7.2225,7.2969,7.394,7.5405,7.5676,7.5709,7.5709,7.5709,7.5709,7.5709,7.5709,7.5709,7.5709,7.5709,7.5709,7.5709,7.5709,7.5709,7.5709,7.5709,7.5709,7.5709,7.7164,7.8,7.8,7.9431,8.0175,8.0209,8.0209,8.0209,8.0209,8.0209,8.0209,8.0209,8.0209,8.0209,8.031,8.1799,8.2408,8.2577,8.4005,8.4614,8.4411,8.2983,8.3328,8.4377,0.0,0.0,0.0,1.0161,1.0531,1.0851,1.0978,1.0993,1.1079,0.0,0.0,0.0,1.2057,1.3312,1.4248,1.4464,1.4822,1.4753,1.4116,1.409,1.454,1.5539,1.5846,1.6437,1.735,1.8374,1.9243,2.0002,2.1008,2.2368,2.4019,2.4974,2.5921,2.6852,2.6725,2.7173,2.7816,2.5786,2.6539,2.9382,3.3907,3.7393,4.0493,4.665,5.0033,5.1522,5.1758,4.9932,4.7515,4.8071,4.4654,3.9546,3.5814,3.3051,3.12,3.12,3.2757,3.4449,3.41,0.0,0.0,0.0,0.0,0.0,5.2087,5.5451,5.9047,6.4275,6.5933,6.7658,7.1684,7.2563,7.3003,7.3974,7.4999,7.5709,7.5709,7.5709,7.5709,7.5709,7.5709,7.5709,7.5709,7.5709,7.5709,7.5709,7.5709,7.5709,7.5709,7.5709,7.5709,7.5709,7.669,7.7468,7.7976,7.8923,7.9667,8.0209,8.0209,8.0209,8.0209,8.0209,8.0209,8.0209,8.0209,8.0209,8.031,8.1799,8.2408,8.2577,8.4005,8.4614,8.4478,8.3558,8.3795,8.4478,0.0,0.0,1.1141,1.1377,1.1894,1.235,1.2569,1.2799,1.3034,0.0,0.0,0.0,1.4483,1.5935,1.6766,1.6464,1.6344,1.6074,1.5462,1.513,1.5413,1.6402,1.6485,1.7015,1.8228,1.8674,1.9424,2.0494,2.0981,2.18,2.297,2.3688,2.4263,2.4687,2.5135,2.5481,2.565,2.3748,2.5101,2.9025,3.5261,3.8848,4.117,4.7496,5.0507,5.1589,5.345,5.2131,4.9864,5.2485,4.8425,4.1745,3.8937,3.5757,3.2848,3.1945,3.367,3.569,3.4596,3.6299,3.8674,3.9945,0.0,0.0,5.0746,5.375,5.7171,6.3917,6.6203,6.7861,7.0906,7.1988,7.2529,7.2969,7.4018,7.4897,7.5202,7.5506,7.5709,7.5709,7.5709,7.5709,7.5709,7.5709,7.5709,7.5709,7.5709,7.5709,7.5709,7.5709,7.5709,7.5709,7.6487,7.7232,7.7976,7.872,7.9464,8.0209,8.0209,8.0209,8.0209,8.0209,8.0209,8.0209,8.0209,8.0209,8.031,8.1799,8.2408,8.2577,8.4005,8.4614,8.4512,8.3761,8.3964,8.4478,0.0,0.0,1.1983,1.2568,1.32,1.3787,1.4393,1.4828,1.5325,0.0,1.6188,1.6866,1.8402,1.944,1.9641,1.8605,1.7837,1.7138,1.6619,1.5983,1.598,1.6784,1.6897,1.7568,1.8883,1.9052,1.9836,2.1197,2.1292,2.1657,2.2313,2.297,2.3282,2.3282,2.3282,2.3654,2.4203,2.3207,2.4984,2.9176,3.7821,4.0223,3.958,4.7988,4.9814,4.8443,5.2536,5.2638,5.1504,5.5818,5.2824,4.6921,4.4973,4.0764,3.6084,3.3434,3.5329,3.791,3.6186,3.7347,3.9457,4.1352,4.0574,0.0,5.2469,5.4059,5.5683,6.3971,6.6812,6.7996,6.8627,6.9857,7.0804,7.0804,7.1887,7.3172,7.4424,7.5168,7.5608,7.5676,7.5709,7.5709,7.5709,7.5709,7.5709,7.5709,7.5709,7.5709,7.5709,7.5709,7.5709,7.5709,7.6386,7.7164,7.7976,7.8653,7.9397,8.0209,8.0209,8.0209,8.0209,8.0209,8.0209,8.0209,8.0209,8.0209,8.031,8.1799,8.2408,8.2577,8.4005,8.4546,8.4377,8.3727,8.393,8.4377,1.1432,1.2212,1.3234,1.4294,1.5343,1.6363,1.7375,1.7209,1.7385,1.8509,1.9834,2.1486,2.3665,2.2928,2.213,2.1822,2.0916,1.9805,1.8474,1.8271,1.7985,1.7619,1.8138,1.8612,1.8877,2.0107,2.0886,2.1197,2.1786,2.2151,2.2313,2.2455,2.2523,2.2523,2.2523,2.2591,2.2868,2.4966,2.8349,3.2466,3.4359,3.8396,4.3856,4.9172,5.2723,5.504,5.6494,5.6359,5.5277,5.3856,5.2029,4.9442,4.435,4.2807,4.1826,3.6502,3.7606,3.9986,3.7291,3.7765,3.8937,3.8802,4.0223,0.0,4.2354,4.4079,4.6771,5.093,5.252,5.4431,5.8626,6.0114,6.0742,6.0742,6.4884,6.9654,7.3995,7.4705,7.5033,7.5642,7.5709,7.5709,7.5709,7.5709,7.5709,7.5709,7.5709,7.5709,7.5709,7.5709,7.5709,7.5709,7.5845,7.6589,7.8,7.8145,7.8889,8.0209,8.0209,8.0209,8.0209,8.0209,8.0209,8.0209,8.0209,8.0209,8.031,8.1799,8.2408,8.2577,8.4005,8.4242,8.3693,8.3558,8.3592,8.3693,1.2052,1.331,1.4845,1.6086,1.7448,1.8999,2.0818,2.1055,2.1503,2.2828,2.4615,2.5875,2.6269,2.5826,2.4978,2.3726,2.2457,2.1251,2.0107,1.9322,1.891,1.8893,1.8904,1.9255,2.0039,2.0784,2.1393,2.1752,2.2117,2.2313,2.2313,2.2313,2.3707,2.6074,2.347,2.3943,2.6657,2.5549,2.7199,3.1069,3.6287,4.2205,4.8342,5.2435,5.5378,5.7408,5.7764,5.7645,5.7002,5.4752,5.2503,5.027,4.8003,4.6278,4.4316,4.0155,4.0832,4.2164,3.8814,3.8713,3.9559,3.9546,4.0358,0.0,0.0,4.4316,4.6278,5.0405,5.1555,5.2706,5.5699,5.6867,5.7476,5.7832,6.2279,6.6237,6.776,7.1796,7.4762,7.51,7.5473,7.5709,7.5709,7.5709,7.5709,7.5709,7.5709,7.5709,7.5709,7.5709,7.5709,7.5709,7.5709,7.6251,7.7435,7.7831,7.8551,7.9667,8.0006,8.0209,8.0209,8.0209,8.0209,8.0209,8.0209,8.0209,8.0276,8.1393,8.1832,8.2035,8.387,8.4167,8.349,8.349,8.349,8.349,1.2802,1.4393,1.6245,1.7487,1.9196,2.116,2.3374,2.4179,2.5103,2.6727,2.8939,2.9967,2.8942,2.94,2.8976,2.7046,2.5642,2.418,2.2578,2.1319,2.0764,2.1056,1.9959,2.0276,2.2206,2.1698,2.1691,2.2313,2.2313,2.2313,2.2313,2.2313,2.4552,2.8475,2.5229,2.615,2.9905,2.6691,2.7461,3.1543,3.9995,4.5587,4.9341,5.3974,5.619,5.6918,5.7629,5.79,5.7629,5.5868,5.3281,5.0777,5.098,4.9357,4.6752,4.3301,4.3992,4.4973,4.0777,4.0303,4.098,4.117,4.117,4.2097,0.0,0.0,0.0,5.0996,5.1809,5.2029,5.2757,5.3518,5.4194,5.482,5.8896,6.1366,5.9404,6.6318,7.1796,7.2371,7.4255,7.527,7.4695,7.4492,7.4762,7.5642,7.4897,7.4796,7.5642,7.5709,7.5709,7.5709,7.5709,7.6082,7.6893,7.7638,7.8382,7.9126,7.987,8.0209,8.0209,8.0209,8.0209,8.0209,8.0209,8.0209,8.0242,8.1012,8.1384,8.1663,8.3464,8.3802,8.3287,8.3287,8.3389,8.349,1.3898,1.5192,1.6755,1.7857,1.996,2.1943,2.3259,2.3891,2.5174,2.7778,3.1066,3.3537,3.4532,3.5341,3.5712,3.543,3.4607,3.2084,2.735,2.6877,2.6235,2.5026,2.2368,2.2544,2.5989,2.3511,2.2219,2.2313,2.2313,2.2313,2.2313,2.2313,2.2624,2.3369,2.7427,2.8103,2.6514,3.0538,3.5881,4.1719,4.2916,4.2172,4.1204,4.8901,5.2283,5.3382,5.6715,5.79,5.7476,5.4702,5.3484,5.2334,4.7868,4.9729,5.2113,4.4533,4.6177,4.9206,4.347,4.2976,4.3619,4.1677,4.3166,4.435,4.1623,0.0,4.2604,4.1894,0.0,4.1961,4.2726,0.0,0.0,4.4059,4.8951,5.2418,5.1488,5.6799,6.1752,6.4424,7.0669,7.3713,7.1097,7.0229,7.1481,7.5405,7.2056,7.1548,7.5473,7.5709,7.5709,7.5709,7.5709,7.6082,7.6893,7.7638,7.8382,7.9126,7.987,8.0209,8.0209,8.0209,8.0209,8.0209,8.0209,8.0209,8.0242,8.1012,8.1697,8.2306,8.2577,8.2584,8.2543,8.2543,8.2949,8.349,1.4379,1.5913,1.7673,1.8827,2.0693,2.2954,2.5702,2.8431,3.0429,3.1167,3.3716,3.5473,3.5577,3.552,3.5633,3.6062,3.5419,3.3311,2.9388,2.8712,2.7444,2.5075,2.297,2.2767,2.4737,2.3166,2.2313,2.2313,2.2313,2.2313,2.2313,2.2313,2.4146,2.7571,2.977,3.2205,3.4664,3.5159,3.6987,3.9681,4.0954,4.0481,4.0202,5.098,5.5277,5.5818,5.7814,5.8558,5.8423,5.7611,5.504,5.2385,5.3653,5.2232,4.9729,4.797,4.8037,4.7733,4.345,4.4059,4.5244,4.2489,4.3775,4.4823,4.1508,4.0878,4.098,4.0764,0.0,0.0,0.0,0.0,0.0,0.0,4.6583,4.9221,4.7206,5.2773,5.8201,6.1177,6.4715,6.759,6.9383,6.9282,7.0939,7.5371,7.1988,7.1481,7.5473,7.5709,7.5709,7.5709,7.5709,7.5845,7.6183,7.7401,7.8145,7.8483,7.9634,8.0209,8.0209,8.0209,8.0209,8.0209,8.0209,8.0209,8.0209,8.0513,8.0851,8.1122,8.1122,8.19,8.2983,8.2577,8.2611,8.2915,1.5755,1.7007,1.8449,1.9592,2.1406,2.3943,2.7491,3.0851,3.3028,3.3085,3.5058,3.6502,3.6524,3.7144,3.7855,3.8621,3.8937,3.7652,3.4303,3.2418,3.0896,2.9745,2.5338,2.412,2.6691,2.4011,2.2489,2.2313,2.2313,2.2415,2.2591,2.2388,2.4831,2.9441,3.1292,3.4912,3.9635,3.9153,3.9762,4.1149,4.2354,4.3504,4.5365,5.3585,5.7442,5.8558,5.9099,5.9284,5.925,5.8998,5.6003,5.3095,5.6799,5.4093,4.983,5.137,5.0879,4.9,4.5162,4.5887,4.6834,4.3213,4.3707,4.4336,4.1542,4.0933,4.1035,4.117,4.1441,0.0,0.0,0.0,4.2151,4.23,0.0,4.6583,4.4025,4.8477,5.3145,5.6089,5.8423,6.1738,6.6779,6.617,6.7793,7.3443,7.0263,7.0319,7.5439,7.5709,7.5709,7.5709,7.5709,7.5709,7.5709,7.7256,7.8,7.8034,7.9498,8.0209,8.0209,8.0209,8.0209,8.0209,8.0209,8.0209,8.0209,8.0209,8.031,8.0479,8.0276,8.1562,8.3422,8.2678,8.2678,8.3058,1.8655,1.871,1.8891,1.9829,2.2117,2.4746,2.7398,2.8577,2.9924,3.2056,3.4269,3.6456,3.8633,4.276,4.5635,4.6394,4.9052,4.8815,4.4398,4.0054,3.9162,4.2645,3.0997,2.7816,3.5059,2.7427,2.3004,2.2313,2.2313,2.2658,2.3349,2.2624,2.3173,2.4982,3.1505,3.4912,3.614,4.1927,4.724,5.1691,5.0338,5.3213,5.7999,5.4871,5.6292,6.0047,6.0047,6.0047,5.9641,5.6781,5.5699,5.5192,5.3179,5.4363,5.6089,5.4025,5.5378,5.6275,5.0371,4.939,4.8763,4.3586,4.2895,4.2882,4.0641,4.1779,4.2916,4.1495,4.3504,4.508,4.3592,4.3978,4.3992,0.0,4.3031,0.0,0.0,4.2117,4.3856,4.6868,5.2367,5.7627,6.2178,5.8693,5.9791,6.8639,6.5155,6.6474,7.5236,7.5709,7.5709,7.5709,7.5709,7.5709,7.5709,7.7256,7.8,7.8034,7.9498,8.0209,8.0209,8.0209,8.0209,8.0209,8.0209,8.0209,8.0209,8.0209,8.0615,8.1215,8.0479,8.1562,8.3422,8.2678,8.3295,8.4512,2.0632,2.0794,2.0657,2.0435,2.1493,2.3593,2.7256,3.0132,3.3061,3.631,3.7809,3.9838,4.3098,4.479,4.638,4.8105,4.9187,4.8511,4.5534,4.2049,4.0426,4.1183,3.2848,3.0074,3.4055,2.8518,2.4974,2.3763,2.3274,2.3173,2.3376,2.3139,2.4094,2.6226,3.2432,3.7302,4.1022,4.508,4.8646,5.1573,5.1555,5.3957,5.7577,5.778,5.8795,6.0182,6.0689,6.0892,6.0825,6.0317,5.849,5.6731,5.8423,5.6596,5.416,5.5886,5.575,5.4532,5.2536,5.3585,5.3754,4.7564,4.7278,4.721,4.2016,4.2172,4.2983,4.1495,4.32,4.4499,4.2963,4.2895,4.274,0.0,0.0,4.1428,0.0,4.0371,4.1589,4.3586,4.907,5.3501,5.5513,5.7476,6.0892,6.644,6.6846,6.9214,7.4695,7.5439,7.5709,7.5709,7.5709,7.5709,7.5709,7.7256,7.8,7.8034,7.9498,8.0209,8.0209,8.0209,8.0209,8.0209,8.0209,8.0209,8.0209,8.0209,8.0344,8.0547,8.031,8.1257,8.2746,8.2509,8.3016,8.3862,2.2522,2.2549,2.2208,2.1678,2.2589,2.4603,2.8092,3.1789,3.534,3.8577,4.0087,4.2104,4.535,4.6413,4.7564,4.9255,5.0135,4.956,4.7056,4.4553,4.32,4.3247,3.7099,3.4934,3.7707,3.2307,2.8628,2.6869,2.5346,2.4432,2.4188,2.3925,2.4966,2.7291,3.1958,3.7538,4.3626,4.6906,5.0491,5.4076,5.5108,5.6664,5.8592,6.0283,6.025,5.9539,6.1129,6.167,6.1772,6.2265,6.0791,5.9201,6.1656,5.9404,5.6359,5.8813,5.8152,5.6494,5.5683,5.6833,5.7002,5.1623,5.1336,5.0879,4.4911,4.4945,4.5756,4.4282,4.4925,4.6041,4.6921,4.5128,4.3538,0.0,0.0,0.0,0.0,3.9795,4.054,4.1745,4.5771,4.9341,5.1674,5.3518,5.7697,6.5141,6.5831,6.847,7.4265,7.5303,7.5709,7.5709,7.5709,7.5709,7.5709,7.7256,7.8,7.8034,7.9498,8.0209,8.0209,8.0209,8.0209,8.0209,8.0209,8.0209,8.0209,8.0209,8.0209,8.0209,8.0209,8.1088,8.2408,8.2408,8.305,8.3896,2.438,2.4079,2.3657,2.3687,2.5344,2.7503,2.9862,3.3277,3.649,3.8937,4.1217,4.347,4.5872,4.8037,4.956,5.0304,5.2367,5.2401,4.9526,4.7868,4.7699,4.9255,4.3626,4.2138,4.5838,3.8531,3.3603,3.1427,2.8247,2.6353,2.5634,2.4906,2.5752,2.7959,3.0243,3.5825,4.3761,4.7447,5.2892,5.925,6.0723,6.1231,6.1231,6.2076,6.0539,5.8306,6.1318,6.24,6.24,6.24,6.2415,6.2468,6.2468,6.2502,6.2502,6.2502,6.2502,6.2042,5.9859,5.9284,5.8573,5.5615,5.4854,5.3653,4.924,4.9916,5.1066,4.9593,4.88,4.9814,5.4515,5.0153,4.623,0.0,0.0,0.0,4.0282,4.0079,4.0337,4.117,4.2611,4.5452,5.0254,4.7327,5.0726,6.4194,6.2178,6.4478,7.4052,7.5033,7.5439,7.5676,7.5709,7.5709,7.5709,7.7164,7.7967,7.8034,7.9464,8.0175,8.0209,8.0209,8.0209,8.0209,8.0209,8.0209,8.0209,8.0209,8.0209,8.0209,8.0209,8.1088,8.2382,8.2483,8.3396,8.4614,2.5373,2.6259,2.723,2.7653,2.7136,2.785,3.1234,3.392,3.7403,4.2503,4.5094,4.7954,5.1894,5.2807,5.345,5.4194,5.4786,5.482,5.4042,5.1539,5.1235,5.3873,4.8274,4.6312,4.8917,4.1136,3.6186,3.4461,2.9262,2.659,2.6387,2.5676,2.6522,2.8798,3.1031,3.6885,4.5283,4.7902,5.3551,6.0757,6.1129,6.0283,5.9032,6.1467,6.0539,5.8306,6.1318,6.24,6.24,6.24,6.2753,6.3226,6.3226,6.3599,6.4038,6.4038,6.4038,6.3903,6.3328,6.3159,6.2448,5.9438,5.8287,5.7002,5.3653,5.416,5.4938,5.345,5.4329,5.4397,5.1285,4.9307,4.7022,4.349,4.1204,3.9897,4.0079,3.9626,3.9965,4.1779,4.4316,4.5365,4.3896,4.9273,5.4363,5.7999,6.1501,6.6474,7.3409,7.1312,7.1684,7.5574,7.5709,7.5709,7.5709,7.669,7.7435,7.8034,7.8957,7.9667,8.0209,8.0209,8.0209,8.0209,8.0209,8.0209,8.0209,8.0209,8.0209,8.0209,8.0209,8.1088,8.2517,8.3633,8.4275,8.4419,2.7685,2.9334,3.0939,3.1332,3.1427,3.229,3.4706,3.6491,3.9365,4.4418,4.7293,4.9965,5.2807,5.4296,5.5243,5.5665,5.5699,5.5158,5.3805,5.3365,5.3332,5.3704,5.1792,5.1285,5.2536,4.6737,4.2002,3.8519,3.3558,2.9779,2.7156,2.642,2.6928,2.8552,3.0828,3.5904,4.3166,4.9323,5.4972,5.9911,6.1264,6.1197,0.0,6.2245,6.2042,6.1028,6.2753,6.3159,6.2922,6.326,6.3632,6.4005,6.4005,6.4275,6.4613,6.4613,6.4613,6.4681,6.4986,6.5087,6.4749,6.3362,6.2719,6.1549,5.8287,5.8152,5.8524,5.7712,5.7205,5.6799,5.6359,5.2029,4.6819,4.1576,4.029,3.9986,4.0079,3.9728,3.9931,4.1183,4.3098,4.3403,4.098,4.9221,5.4853,5.5209,5.9539,6.4343,6.935,6.9147,7.0838,7.51,7.5236,7.5371,7.5709,7.6149,7.6927,7.8034,7.8754,7.9498,8.0209,8.0209,8.0209,8.0209,8.0209,8.0209,8.0209,8.0209,8.0209,8.0242,8.0547,8.1393,8.2543,8.3667,8.4309,8.4366,3.048,3.2603,3.4349,3.4504,3.6582,3.8567,3.9594,4.0529,4.2408,4.5974,4.8984,5.1116,5.1844,5.4279,5.5868,5.5969,5.6003,5.4887,5.2249,5.4515,5.482,5.2182,5.4583,5.6003,5.6003,5.2858,4.836,4.2604,3.8611,3.366,2.7925,2.7097,2.7165,2.8069,3.0345,3.4753,4.1149,5.1438,5.6867,5.8746,6.1434,6.2922,6.3511,6.3612,6.4018,6.4613,6.4715,6.4275,6.3748,6.4377,6.4647,6.4749,6.4749,6.4816,6.4884,6.4884,6.4884,6.5019,6.5662,6.5831,6.6,6.6622,6.6791,6.5946,6.2753,6.2009,6.2009,6.2009,5.9419,5.8743,6.4005,5.6021,4.694,4.1792,4.1589,4.2016,4.186,4.142,0.0,0.0,0.0,0.0,4.0553,4.7902,5.3044,5.3653,5.6089,5.9674,6.4478,6.7286,7.0567,7.4627,7.4739,7.4999,7.554,7.5642,7.642,7.7841,7.8619,7.9397,8.0209,8.0209,8.0209,8.0209,8.0209,8.0209,8.0209,8.0209,8.0209,8.0276,8.1012,8.1731,8.2509,8.3219,8.3831,8.4062,3.2225,3.4509,3.6458,3.622,3.9114,4.2492,4.5469,4.6263,4.7413,4.9916,5.2858,5.4989,5.575,5.6292,5.6867,5.7442,5.7509,5.7273,5.6765,5.7205,5.7273,5.6731,5.7239,5.7509,5.7509,5.3382,4.8917,4.4209,3.8565,3.3389,2.8764,2.7342,2.7444,2.8899,3.1099,3.807,4.8526,5.4194,5.8524,6.1704,6.2854,6.3376,6.3579,6.4174,6.4478,6.4681,6.529,6.5019,6.4444,6.4546,6.4986,6.5514,6.5514,6.5933,6.6385,6.6385,6.6385,6.6419,6.6555,6.6609,6.6622,6.6757,6.6791,6.6622,6.598,6.5844,6.5844,6.5844,6.5303,6.4086,6.1535,5.6393,5.1014,4.6394,4.6244,4.7752,5.0744,4.8511,0.0,0.0,0.0,4.9526,4.2604,4.6143,4.8935,4.907,4.956,5.4448,6.4972,6.2618,6.5425,7.5202,7.5506,7.527,7.4796,7.5405,7.6183,7.7096,7.7841,7.8889,8.0209,8.0209,8.0209,8.0209,8.0209,8.0209,8.0209,8.0209,8.0209,8.0276,8.1012,8.1731,8.2509,8.3219,8.3147,8.2401,3.6343,3.7864,3.9436,4.0256,4.3197,4.6494,4.9524,5.1428,5.2317,5.1844,5.3399,5.4684,5.504,5.6461,5.7509,5.7866,5.79,5.79,5.79,5.79,5.79,5.79,5.79,5.79,5.79,5.5784,5.1555,4.5176,4.1461,3.6277,2.982,2.8507,2.8176,2.8913,3.4047,4.0417,4.768,5.4093,5.8287,6.0791,6.2733,6.3971,6.4681,6.5019,6.5392,6.5797,6.6136,6.6034,6.573,6.573,6.5967,6.6271,6.6271,6.6508,6.6791,6.6791,6.6791,6.6791,6.6791,6.6791,6.6791,6.6791,6.6791,6.6791,6.6791,6.6791,6.6791,6.6791,6.6791,6.5405,6.0926,5.7103,0.0,5.0744,4.9255,4.9645,5.3044,0.0,5.093,0.0,0.0,0.0,0.0,4.6278,4.7481,4.7887,4.8612,5.3737,6.4546,6.2009,6.4783,7.483,7.5134,7.5134,7.5168,7.5134,7.5912,7.7468,7.7807,7.8754,8.0209,8.0209,8.0209,8.0209,8.0209,8.0209,8.0209,8.0209,8.0412,8.075,8.0716,8.1629,8.2983,8.2949,8.2622,8.1968,4.0785,4.1812,4.3012,4.4878,4.7703,5.0383,5.2276,5.5246,5.6385,5.3822,5.4025,5.4431,5.4431,5.6494,5.79,5.79,5.79,5.79,5.79,5.79,5.79,5.79,5.79,5.79,5.79,5.79,5.4364,4.716,4.4898,3.9862,3.2274,3.0575,3.0228,3.1346,3.7875,4.3078,4.7409,5.416,5.8168,6.0197,6.2868,6.4647,6.5717,6.5865,6.6305,6.6791,6.6791,6.6791,6.6791,6.6791,6.6791,6.6791,6.6791,6.6791,6.6791,6.6791,6.6791,6.6791,6.6791,6.6791,6.6791,6.6791,6.6791,6.6791,6.6791,6.6791,6.6791,6.6791,6.6791,6.5405,6.0926,5.8979,0.0,5.4634,5.2739,5.257,5.5243,0.0,0.0,0.0,0.0,0.0,4.8545,0.0,4.6989,4.9172,4.9526,5.3534,6.2482,6.1738,6.485,7.3172,7.3578,7.3883,7.4289,7.4661,7.5811,7.7797,7.7933,7.8754,8.0209,8.0209,8.0209,8.0209,8.0209,8.0209,8.0209,8.0209,8.0547,8.1021,8.0581,8.1596,8.3219,8.278,8.2231,8.1534,4.4183,4.5898,4.7407,4.9072,5.1997,5.3967,5.3465,5.6507,5.8514,5.75,5.746,5.7494,5.7494,5.7712,5.79,5.79,5.79,5.79,5.79,5.79,5.79,5.79,5.79,5.79,5.79,5.79,5.5928,5.1859,4.7327,4.2624,3.777,3.4081,3.4994,3.9836,4.2095,4.7413,5.4786,5.69,5.9844,6.3207,6.485,6.5581,6.5764,6.644,6.6724,6.6791,6.6791,6.6791,6.6791,6.6791,6.6791,6.6791,6.6791,6.6791,6.6791,6.6791,6.6791,6.6791,6.6791,6.6791,6.6791,6.6791,6.6791,6.6791,6.6791,6.6791,6.6791,6.6791,6.6791,6.5405,6.0926,6.3193,6.3714,5.7509,5.8558,6.0723,6.2327,0.0,5.7983,5.9336,0.0,0.0,0.0,4.7312,4.6568,5.345,5.032,5.0861,5.7205,5.9235,6.3091,6.9417,7.0263,7.0331,6.9722,7.3646,7.6082,7.6995,7.7671,7.8754,8.0209,8.0209,8.0209,8.0209,8.0209,8.0209,8.0209,8.0209,8.0242,8.0344,8.0953,8.1731,8.2577,8.3186,8.1994,7.9986,4.9773,5.0097,5.1002,5.3595,5.471,5.5773,5.7412,5.8918,5.9768,5.9445,5.8943,5.8458,5.7954,5.79,5.79,5.79,5.79,5.79,5.79,5.79,5.79,5.79,5.79,5.79,5.79,5.8388,5.6808,5.3162,4.9331,4.5082,4.0557,3.9023,4.0747,4.5261,4.8617,5.2469,5.6596,5.9877,6.2651,6.4884,6.5459,6.5967,6.6406,6.669,6.6791,6.6791,6.6791,6.6791,6.6791,6.6791,6.6791,6.6791,6.6791,6.6791,6.6791,6.6791,6.6791,6.6791,6.6791,6.6791,6.6791,6.6791,6.6791,6.6791,6.6791,6.6791,6.6791,6.6791,6.6791,6.625,6.4444,6.3802,6.3362,6.2888,6.1975,6.2279,6.5067,6.4208,0.0,6.4072,0.0,5.9573,0.0,0.0,5.0322,5.2401,4.7579,4.8511,5.7627,5.8964,6.1603,6.6237,7.1007,7.2496,7.0466,7.3916,7.6318,7.7536,7.7865,7.8754,8.0209,8.0209,8.0209,8.0209,8.0209,8.0209,8.0209,8.0209,8.0445,8.0885,8.1156,8.1413,8.1749,8.3038,8.2533,8.1092,5.4425,5.4142,5.4703,5.7686,5.7749,5.8048,6.0114,6.0595,6.0655,6.0412,6.0086,5.9443,5.837,5.8493,5.844,5.7936,5.8119,5.8155,5.7918,5.79,5.79,5.79,5.79,5.79,5.79,5.8441,5.7713,5.5588,5.2392,4.9291,4.627,4.5223,4.6767,5.054,5.4008,5.6765,5.8998,6.2618,6.4749,6.5717,6.5933,6.6339,6.6791,6.6791,6.6791,6.6791,6.6791,6.6791,6.6791,6.6791,6.6791,6.6791,6.6791,6.6791,6.6791,6.6791,6.6791,6.6791,6.6791,6.6791,6.6791,6.6791,6.6791,6.6791,6.6791,6.6791,6.6859,6.7083,6.7096,6.7096,6.7096,6.4816,6.3565,6.5506,6.4377,6.3869,6.5574,6.6034,6.5912,6.5256,6.3159,0.0,6.0825,5.5953,5.3298,5.4431,4.9763,5.0541,5.8878,5.9757,6.1704,6.5459,7.1109,7.3071,7.1007,7.4119,7.6454,7.8,7.8,7.8754,8.0209,8.0209,8.0209,8.0209,8.0209,8.0209,8.0209,8.0209,8.0513,8.0987,8.1215,8.1103,8.1015,8.2825,8.2334,8.0674,5.7336,5.7923,5.8701,6.1114,6.1532,6.1279,6.0519,6.107,6.1286,6.0489,6.107,6.0932,5.9278,5.9864,5.9687,5.8029,5.8685,5.8823,5.7954,5.79,5.79,5.79,5.79,5.79,5.79,5.79,5.8686,6.0331,5.7029,5.583,5.6557,5.2683,5.2836,5.635,5.7405,5.9945,6.3511,6.5019,6.5683,6.5784,6.6508,6.6791,6.6791,6.6791,6.6791,6.6791,6.6791,6.6791,6.6791,6.6791,6.6791,6.6791,6.6791,6.6791,6.6791,6.6791,6.6791,6.6791,6.6791,6.6791,6.6791,6.6791,6.6791,6.6791,6.6791,6.6791,6.7015,6.7726,6.7895,6.7895,6.7895,6.7252,6.6013,6.3883,6.5967,6.6812,6.3951,6.4174,6.3835,6.1637,5.6089,0.0,6.1724,5.5615,5.4279,6.1724,5.9456,5.8407,6.0013,6.1535,6.4038,6.7726,6.9439,7.0251,7.0217,7.3849,7.6454,7.8,7.8,7.8754,8.0209,8.0209,8.0209,8.0209,8.0209,8.0209,8.0209,8.0209,8.0209,8.0276,8.1046,8.0768,8.0294,8.2623,8.0906,7.7612,6.1068,6.1251,6.152,6.2294,6.2438,6.2324,6.2099,6.2258,6.2542,6.2876,6.3159,6.3089,6.2498,6.1234,6.02,5.9674,5.9867,5.9658,5.8772,5.8703,5.8978,5.9581,5.9616,5.9839,6.0338,6.1474,6.1732,6.1079,5.8988,5.7761,5.7389,5.5742,5.7192,6.1261,6.1579,6.2956,6.5019,6.5514,6.5967,6.6474,6.669,6.6791,6.6791,6.6791,6.6791,6.6791,6.6791,6.6791,6.6791,6.6791,6.6791,6.6893,6.7387,6.7557,6.7455,6.6927,6.7535,6.8267,6.7692,6.7557,6.7692,6.8233,6.7963,6.7692,6.8233,6.8368,6.8436,6.8673,6.8707,6.8707,6.8707,6.8538,6.8132,6.7455,6.8098,6.8402,6.7455,6.7523,6.7421,6.6711,6.4918,6.4613,6.6745,6.2482,5.9926,6.0757,5.7629,5.6731,5.9235,6.3193,6.5493,6.5628,7.1041,7.2969,7.0973,7.4119,7.6454,7.8,7.8,7.8754,8.0209,8.0209,8.0209,8.0209,8.0209,8.0209,8.0099,7.9072,7.9228,8.0167,7.984,7.9143,7.8578,8.0987,7.9909,7.7387,6.3196,6.3013,6.2903,6.3246,6.3282,6.3282,6.3282,6.3527,6.393,6.4494,6.453,6.4522,6.448,6.3134,6.2,6.136,6.159,6.1246,6.0062,5.9994,6.0082,6.0285,6.0301,6.0508,6.0953,6.1995,6.2162,6.1414,6.1034,6.0693,6.0375,5.9968,6.1253,6.3937,6.4208,6.485,6.5717,6.6,6.6373,6.6791,6.6791,6.6791,6.6791,6.6791,6.6791,6.6791,6.6791,6.696,6.7197,6.7197,6.7421,6.776,6.8199,6.8538,6.8605,6.7895,6.8368,6.8977,6.8504,6.8335,6.847,6.8977,6.8707,6.847,6.8977,6.9316,6.9519,6.9519,6.9519,6.9519,6.9519,6.9282,6.9113,6.9113,6.9316,6.9417,6.9147,6.935,6.8876,6.7218,6.7015,0.0,0.0,6.529,6.4018,6.4309,6.2415,6.2212,6.4343,6.5134,6.6419,6.8301,7.3138,7.483,7.2969,7.4796,7.6454,7.8034,7.8551,7.9295,8.0209,8.0209,8.0209,8.0209,8.0209,8.0209,8.0074,7.8564,7.8452,7.9243,7.8157,7.7294,7.6883,7.9027,7.8362,7.6469,6.4016,6.3539,6.3233,6.4016,6.4176,6.4176,6.4176,6.4824,6.5325,6.5362,6.5362,6.5398,6.5472,6.5472,6.4817,6.3284,6.3708,6.3381,6.1777,6.1675,6.1309,6.0489,6.0433,6.0467,6.0535,6.0535,6.0905,6.1657,6.3077,6.4112,6.4802,6.4802,6.4759,6.4715,6.5392,6.5751,6.5797,6.6508,6.6791,6.6791,6.6791,6.6791,6.6791,6.6791,6.6791,6.6791,6.6859,6.732,6.7895,6.7963,6.847,6.9113,6.9147,6.9654,7.0082,6.9316,6.918,6.9248,6.918,6.918,6.918,6.9248,6.9248,6.9248,6.9248,6.9789,7.0285,7.0285,7.0285,7.0285,7.0285,6.9722,6.9248,6.9248,6.9823,7.0026,6.935,6.9823,6.8741,6.4525,6.4052,0.0,6.4986,6.5087,6.6711,7.0613,7.165,7.2394,7.3094,6.7286,6.7265,7.4458,7.5337,7.5709,7.5709,7.5709,7.6454,7.8034,7.9498,8.0209,8.0209,8.0209,8.0209,8.0209,8.0209,8.0158,7.9921,7.8372,7.7746,7.761,7.6038,7.5348,7.537,7.6942,7.6397,7.5112,6.4861,6.4848,6.4774,6.4971,6.5007,6.5007,6.5007,6.5178,6.5508,6.6145,6.6219,6.6439,6.7063,6.715,6.6979,6.659,6.5592,6.4539,6.3493,6.3397,6.3571,6.3993,6.3993,6.4298,6.4908,6.4908,6.4604,6.3995,6.3699,6.3932,6.4636,6.4636,6.4924,6.5446,6.5615,6.6,6.6542,6.6745,6.6791,6.6791,6.6791,6.6791,6.6791,6.6791,6.6791,6.6859,6.7455,6.776,6.7996,6.8605,6.8944,6.9214,6.9755,7.0082,7.0082,6.9316,6.9891,7.0669,7.0094,6.9925,7.006,7.0635,7.0804,7.0804,7.0804,7.0917,7.1041,7.1041,7.1041,7.1041,7.1041,7.0883,7.0804,7.0804,7.0939,7.0973,7.0782,7.0939,7.0669,6.9564,6.9429,6.9497,6.97,6.97,6.8977,0.0,6.8233,6.9045,6.9214,6.8842,7.0703,7.5303,7.5608,7.5709,7.5709,7.5709,7.6454,7.8034,7.9498,8.0209,8.0209,8.0209,8.0209,8.0209,8.0209,7.9521,7.8318,7.6804,7.6124,7.5981,7.4407,7.4376,7.5275,7.5652,7.5401,7.4937,6.5705,6.5545,6.5398,6.5778,6.5852,6.5852,6.5852,6.6145,6.6549,6.7003,6.704,6.7223,6.7664,6.77,6.77,6.77,6.688,6.6034,6.5142,6.5098,6.5115,6.511,6.5095,6.5294,6.5743,6.6137,6.6005,6.5366,6.4855,6.4809,6.5087,6.5087,6.5493,6.6203,6.6203,6.644,6.6791,6.6791,6.6791,6.6791,6.6791,6.6791,6.6791,6.6791,6.6791,6.6893,6.7658,6.8132,6.8571,6.935,6.9823,7.0195,7.0567,7.0703,7.0635,7.0229,7.0647,7.1188,7.0804,7.0703,7.0804,7.1188,7.1289,7.1289,7.1289,7.1289,7.1289,7.1289,7.1289,7.1289,7.1289,7.1289,7.1289,7.1289,7.1041,7.0906,7.1255,7.1007,7.0939,7.1255,7.1616,7.1819,7.1819,7.2124,7.1447,6.9439,7.0331,7.0973,7.0973,7.209,7.3612,7.5642,7.5709,7.5709,7.5709,7.6386,7.7164,7.8034,7.9498,8.0209,8.0209,8.0209,8.0209,8.0209,8.0209,7.934,7.7773,7.6237,7.5173,7.4347,7.2768,7.2996,7.4154,7.4154,7.4475,7.4903,6.6512,6.6145,6.5888,6.6549,6.6659,6.6659,6.6659,6.726,6.77,6.77,6.77,6.77,6.77,6.7811,6.7884,6.7884,6.7994,6.7648,6.6663,6.6691,6.6427,6.5617,6.5584,6.5656,6.5763,6.6325,6.6529,6.6408,6.6408,6.6278,6.6099,6.6099,6.6336,6.6791,6.6791,6.6791,6.6791,6.6791,6.6791,6.6791,6.6791,6.6791,6.6791,6.6791,6.6859,6.7083,6.7827,6.8605,6.9383,7.0128,7.077,7.1289,7.1289,7.1289,7.1289,7.1289,7.1289,7.1289,7.1289,7.1289,7.1289,7.1289,7.1289,7.1289,7.1289,7.1289,7.1289,7.1289,7.1289,7.1289,7.1289,7.1289,7.1086,7.0545,7.0398,7.0398,7.0466,7.05,7.077,7.1413,7.2124,7.2563,7.2563,7.3105,7.3567,7.3669,7.4255,7.4637,7.4739,7.5371,7.5709,7.5709,7.5709,7.5743,7.5879,7.7266,7.8,7.8034,7.9498,8.0141,8.004,8.0141,8.0209,8.0209,8.0209,7.9176,7.744,7.6124,7.4526,7.2706,7.1407,7.1667,7.2774,7.2864,7.3672,7.4753,6.737,6.7407,6.737,6.748,6.7517,6.7517,6.7517,6.7627,6.77,6.77,6.77,6.77,6.77,6.8311,6.8715,6.8715,6.9339,6.9077,6.7611,6.8147,6.8457,6.8309,6.8294,6.8601,6.9295,6.8732,6.832,6.8187,6.8187,6.8056,6.7817,6.7817,6.7459,6.6791,6.6791,6.6791,6.6791,6.6791,6.6791,6.6791,6.6791,6.6791,6.6791,6.6791,6.7184,6.7827,6.8639,6.9383,7.0128,7.0872,7.1188,7.1289,7.1289,7.1289,7.1289,7.1289,7.1289,7.1289,7.1289,7.1289,7.1289,7.1289,7.1289,7.1289,7.1289,7.1289,7.1289,7.1289,7.1289,7.1289,7.1289,7.1289,7.0263,6.7083,6.9147,7.006,6.6981,6.9722,7.209,7.2225,7.2868,7.3331,7.3331,7.3432,7.3747,7.439,7.4559,7.4864,7.5506,7.5642,7.5709,7.5709,7.5709,7.6014,7.6724,7.757,7.8,7.8034,7.9498,7.987,7.9295,7.9938,8.0209,8.0209,8.0209,7.8591,7.5924,7.5695,7.3899,7.1214,7.0986,7.1368,7.2116,7.2684,7.3402,7.4061,6.7627,6.77,6.77,6.77,6.77,6.77,6.77,6.77,6.77,6.77,6.77,6.77,6.77,6.8421,6.8885,6.8885,6.9633,6.9779,6.9059,6.9339,6.9559,6.9559,6.9559,6.9926,7.0734,7.0354,7.0077,6.9964,6.942,6.9123,6.8984,6.7945,6.7481,6.7521,6.7029,6.6791,6.6791,6.6791,6.6791,6.6791,6.6791,6.6791,6.6791,6.6791,6.7252,6.7996,6.8808,6.9553,7.0297,7.1075,7.1289,7.1289,7.1289,7.1289,7.1289,7.1289,7.1289,7.1289,7.1289,7.1289,7.1289,7.1289,7.1289,7.1289,7.1289,7.1289,7.1289,7.1289,7.1289,7.1289,7.1289,7.1289,7.0714,6.9011,6.9823,7.0364,6.9451,7.0737,7.209,7.2902,7.3646,7.4086,7.4086,7.4458,7.483,7.5168,7.5202,7.5337,7.5676,7.5709,7.5709,7.5709,7.5709,7.6082,7.6893,7.7638,7.8179,7.8619,7.9701,8.0006,7.9701,8.004,8.0209,8.0209,8.0209,7.8452,7.5608,7.5608,7.3748,7.0889,7.0889,7.1547,7.2475,7.2804,7.3343,7.3881,6.77,6.77,6.77,6.77,6.77,6.77,6.77,6.77,6.77,6.77,6.77,6.77,6.77,6.8568,6.9192,6.9192,7.0073,7.066,7.066,7.066,7.055,7.0403,7.055,7.0881,7.1307,7.149,7.1531,7.1448,7.0701,7.0127,6.9672,6.8161,6.7602,6.7847,6.712,6.6791,6.6791,6.6791,6.6791,6.6791,6.6791,6.6893,6.7083,6.7083,6.7624,6.8504,6.9113,6.9823,7.0534,7.1109,7.1289,7.1289,7.1289,7.1289,7.1289,7.1289,7.1289,7.1289,7.1289,7.1289,7.1289,7.1289,7.1289,7.1289,7.1289,7.1289,7.1289,7.1289,7.1289,7.1289,7.1289,7.1424,7.1255,7.0376,7.0669,7.1063,7.1312,7.1785,7.2496,7.3612,7.4424,7.4864,7.4864,7.5371,7.5709,7.5709,7.5709,7.5709,7.5709,7.5709,7.5709,7.5709,7.5709,7.6183,7.713,7.7705,7.8382,7.9126,7.987,8.0107,7.9938,7.9744,7.9836,8.0183,7.9811,7.8131,7.5608,7.5608,7.3748,7.0889,7.0889,7.1637,7.2684,7.2864,7.3343,7.3881,6.77,6.77,6.77,6.77,6.77,6.77,6.77,6.77,6.77,6.77,6.77,6.77,6.77,6.9096,7.0,7.0,7.1431,7.2312,7.2312,7.2312,7.1982,7.1233,7.1945,7.2004,7.1307,7.2041,7.2393,7.2409,7.2314,7.1401,6.9708,6.9565,6.855,6.6883,6.6833,6.6791,6.6791,6.6791,6.6791,6.6791,6.6791,6.7218,6.7827,6.7827,6.8741,7.0048,7.0116,7.0601,7.1244,7.1289,7.1289,7.1289,7.1289,7.1289,7.1289,7.1289,7.1289,7.1289,7.1289,7.1289,7.1289,7.1289,7.1289,7.1289,7.1289,7.1289,7.1289,7.1289,7.1289,7.1289,7.1289,7.1853,7.1176,6.7726,7.0567,7.2056,6.8707,7.1785,7.4424,7.4525,7.5168,7.5608,7.5608,7.5676,7.5709,7.5709,7.5709,7.5709,7.5709,7.5709,7.5709,7.5709,7.5709,7.642,7.7874,7.7942,7.8382,7.9126,7.987,7.9837,7.9178,7.8424,7.8829,8.0099,7.8697,7.7138,7.5608,7.5608,7.3748,7.0889,7.0889,7.1338,7.2026,7.2684,7.3343,7.3821,6.77,6.77,6.77,6.77,6.77,6.77,6.77,6.77,6.77,6.77,6.77,6.77,6.77,6.9132,7.011,7.011,7.1578,7.2496,7.2496,7.2496,7.2349,7.2041,7.2349,7.2349,7.2041,7.2349,7.2496,7.2496,7.1936,7.1557,7.1401,6.9619,6.8685,6.8566,6.7346,6.6791,6.6791,6.6791,6.6791,6.6791,6.6791,6.696,6.7286,6.7726,6.8571,6.9586,7.0048,7.0669,7.1289,7.1289,7.1289,7.1289,7.1289,7.1289,7.1289,7.1289,7.1289,7.1289,7.1289,7.1289,7.1289,7.1289,7.1289,7.1289,7.1289,7.1289,7.1289,7.1289,7.1289,7.1424,7.1921,7.2225,7.209,7.1109,7.2394,7.3138,7.2191,7.3544,7.4796,7.5236,7.554,7.5709,7.5709,7.5709,7.5709,7.5709,7.5709,7.5709,7.5709,7.5709,7.5709,7.5709,7.5709,7.6217,7.7299,7.7773,7.8382,7.9126,7.987,8.004,7.9752,7.8485,7.875,8.0048,7.7583,7.6124,7.5522,7.4587,7.2891,7.0889,7.0889,7.1577,7.2565,7.2834,7.3343,7.3851,6.77,6.77,6.77,6.77,6.77,6.7811,6.8031,6.8091,6.8091,6.8091,6.8288,6.8361,6.8091,6.9522,7.0477,7.0477,7.1725,7.2496,7.2496,7.2496,7.2496,7.2496,7.2496,7.2496,7.2496,7.2496,7.2496,7.2496,7.1854,7.1557,7.1594,6.9619,6.8704,6.872,6.7407,6.6791,6.6791,6.6791,6.6791,6.6791,6.6791,6.7096,6.759,6.8098,6.891,6.9857,7.0364,7.0872,7.1289,7.1289,7.1289,7.1289,7.1289,7.1289,7.1289,7.1289,7.1289,7.1289,7.1289,7.1289,7.1289,7.1289,7.1289,7.1289,7.1289,7.1289,7.1357,7.1616,7.165,7.1887,7.2597,7.2935,7.3274,7.3747,7.4018,7.4356,7.4864,7.4965,7.5134,7.5642,7.5709,7.5709,7.5709,7.5709,7.5709,7.5709,7.5709,7.5709,7.5709,7.5709,7.5508,7.5064,7.5484,7.5754,7.5845,7.7273,7.8382,7.9126,7.987,8.0209,8.0124,7.8104,7.8291,7.9998,7.6407,7.5144,7.5464,7.396,7.2361,7.0889,7.0889,7.1607,7.2624,7.2834,7.3343,7.3881,6.77,6.77,6.77,6.77,6.77,6.7958,6.8788,6.8885,6.8885,6.8898,6.9596,6.9816,6.9009,7.0353,7.1307,7.1307,7.2041,7.2496,7.2496,7.2496,7.2496,7.2496,7.2496,7.2496,7.2496,7.2496,7.2496,7.2496,7.2496,7.1526,6.9725,6.9708,6.8664,6.6812,6.6812,6.6791,6.6791,6.6791,6.6791,6.6791,6.6791,6.7726,6.9079,6.9113,7.0026,7.1289,7.1289,7.1289,7.1289,7.1289,7.1289,7.1289,7.1289,7.1289,7.1289,7.1289,7.1289,7.1289,7.1289,7.1289,7.1289,7.1289,7.1289,7.1289,7.1289,7.1289,7.1515,7.2259,7.2394,7.2631,7.3364,7.4119,7.4603,7.4627,7.5236,7.5709,7.5709,7.5709,7.5709,7.5709,7.5709,7.5709,7.5709,7.5709,7.5709,7.5709,7.5709,7.5709,7.5709,7.5709,7.5064,7.3643,7.4966,7.5015,7.3599,7.6525,7.8348,7.9101,7.9837,8.0209,8.0074,7.7027,7.7276,7.9921,7.529,7.414,7.5464,7.3899,7.233,7.0889,7.0889,7.1308,7.1966,7.2654,7.3343,7.3881,6.77,6.77,6.77,6.77,6.77,6.7958,6.8788,6.8885,6.9119,6.9669,6.9963,7.0,6.9779,7.0683,7.1307,7.1307,7.2041,7.2496,7.2496,7.2496,7.2496,7.2496,7.2496,7.2496,7.2496,7.2496,7.2496,7.2496,7.2496,7.1854,7.0668,7.0023,6.9002,6.7747,6.7078,6.6791,6.6791,6.6791,6.6791,6.6791,6.6791,6.7387,6.8335,6.8876,6.9688,7.0601,7.1109,7.1289,7.1289,7.1289,7.1289,7.1289,7.1289,7.1289,7.1289,7.1289,7.1289,7.1289,7.1289,7.1289,7.1289,7.1289,7.1289,7.1289,7.1289,7.1289,7.1515,7.2259,7.2394,7.2766,7.4052,7.4458,7.4796,7.5303,7.5574,7.5709,7.5709,7.5709,7.5709,7.5709,7.5709,7.5709,7.5709,7.5709,7.5709,7.5709,7.5709,7.5709,7.5709,7.477,7.403,7.3617,7.403,7.3997,7.3592,7.6549,7.8111,7.8348,7.96,8.0209,8.0074,7.7027,7.6688,7.8318,7.3657,7.2518,7.3839,7.2267,7.1311,7.0889,7.0889,7.1308,7.1906,7.2116,7.2924,7.3821,6.77,6.77,6.77,6.77,6.77,6.8068,6.9192,6.9376,6.9669,7.0477,7.0844,7.0917,7.0624,7.127,7.1784,7.1784,7.2224,7.2496,7.2496,7.2496,7.2496,7.2496,7.2496,7.2496,7.2496,7.2496,7.2314,7.1966,7.2314,7.1824,7.0535,6.9989,6.915,6.815,6.7223,6.6791,6.6791,6.6791,6.6791,6.6825,6.7117,6.7692,6.847,6.9248,6.9992,7.0703,7.112,7.1289,7.1289,7.1289,7.1289,7.1289,7.1289,7.1289,7.1289,7.1289,7.1289,7.1289,7.1289,7.1289,7.1289,7.1289,7.1289,7.1357,7.1684,7.1751,7.2022,7.3071,7.3274,7.3646,7.483,7.5033,7.5202,7.5642,7.5709,7.5709,7.5709,7.5709,7.5709,7.5709,7.5709,7.5709,7.5709,7.5709,7.5709,7.5709,7.5709,7.5709,7.5709,7.4893,7.393,7.2783,7.382,7.4003,7.3148,7.6107,7.7705,7.8034,7.9498,8.0209,8.0074,7.7027,7.6435,7.7637,7.2953,7.1792,7.3138,7.1537,7.0889,7.0889,7.0889,7.1158,7.1517,7.1787,7.2415,7.3073,6.77,6.7774,6.7774,6.77,6.77,6.8251,6.9853,7.011,7.0403,7.1307,7.2041,7.2224,7.149,7.2041,7.2496,7.2496,7.2496,7.2496,7.2496,7.2496,7.2496,7.2496,7.2496,7.2496,7.2496,7.2496,7.2041,7.1111,7.1966,7.1417,6.9583,6.9583,6.9021,6.8048,6.7182,6.6791,6.6791,6.6791,6.6791,6.6859,6.759,6.8368,6.918,6.9925,7.0669,7.1289,7.1289,7.1289,7.1289,7.1289,7.1289,7.1289,7.1289,7.1289,7.1289,7.1289,7.1289,7.1289,7.1289,7.1289,7.1289,7.1289,7.1357,7.156,7.2259,7.2462,7.2902,7.4299,7.4603,7.483,7.5574,7.5709,7.5709,7.5709,7.5709,7.5709,7.5709,7.5709,7.5709,7.5709,7.5709,7.5709,7.5709,7.5709,7.5709,7.5709,7.5709,7.5709,7.5709,7.558,7.4306,7.1659,7.4123,7.4581,7.2618,7.5455,7.7299,7.8111,7.9464,8.0031,7.9862,7.6944,7.6294,7.7248,7.283,7.1697,7.2892,7.1473,7.0889,7.0889,7.0889,7.0889,7.0979,7.1577,7.1846,7.1996,6.7811,6.8201,6.8458,6.7811,6.77,6.8251,6.9853,7.011,7.0624,7.2055,7.2386,7.2422,7.2275,7.2422,7.2496,7.2496,7.2496,7.2496,7.2496,7.2496,7.2496,7.2496,7.2496,7.2496,7.2496,7.2496,7.2041,7.1111,7.1302,7.0451,6.8604,6.8569,6.8044,6.7078,6.6883,6.6791,6.6791,6.6791,6.6791,6.6859,6.759,6.8368,6.918,6.9925,7.0669,7.1289,7.1289,7.1289,7.1289,7.1289,7.1289,7.1289,7.1289,7.1289,7.1289,7.1289,7.1289,7.1289,7.1289,7.1289,7.1289,7.1289,7.1729,7.2191,7.236,7.2834,7.351,7.44,7.4603,7.483,7.5574,7.5709,7.5709,7.5709,7.5709,7.5709,7.5709,7.5709,7.5709,7.5709,7.5709,7.5709,7.5709,7.5709,7.5709,7.5709,7.5709,7.5709,7.5709,7.4662,7.377,7.3147,7.3719,7.381,7.3358,7.5705,7.757,7.8889,7.9194,7.9009,7.8318,7.6435,7.5083,7.4077,7.1857,7.1083,7.1375,7.1051,7.0889,7.0889,7.0889,7.0889,7.0919,7.1068,7.1457,7.1996,6.8862,6.8862,6.8788,6.8348,6.8274,6.8678,6.9889,7.044,7.1101,7.2349,7.2496,7.2496,7.2496,7.2496,7.2496,7.2496,7.2496,7.2496,7.2496,7.2496,7.2496,7.2496,7.2496,7.2496,7.2496,7.2056,7.1386,7.0434,7.0865,7.0126,6.8243,6.8223,6.7931,6.744,6.7009,6.6791,6.6791,6.6791,6.6791,6.6893,6.803,6.8707,6.9214,7.0297,7.0973,7.1289,7.1289,7.1289,7.1289,7.1289,7.1289,7.1289,7.1289,7.1289,7.1289,7.1289,7.1289,7.1289,7.1289,7.1289,7.1289,7.1289,7.2124,7.2902,7.2902,7.3477,7.4221,7.4965,7.5134,7.5236,7.5642,7.5709,7.5709,7.5709,7.5709,7.5709,7.5709,7.5709,7.5709,7.5709,7.5709,7.5709,7.5709,7.5709,7.5709,7.5709,7.5709,7.5709,7.5709,7.5015,7.4281,7.3624,7.4256,7.4448,7.4119,7.5212,7.6894,7.9101,7.9101,7.8687,7.7855,7.6294,7.4733,7.3138,7.1569,7.0889,7.0889,7.0889,7.0889,7.0889,7.0889,7.0889,7.0889,7.0889,7.1128,7.1457,6.9779,6.9486,6.9082,6.8921,6.8885,6.9192,6.9963,7.077,7.16,7.2386,7.2496,7.2496,7.2496,7.2496,7.2496,7.2496,7.2496,7.2496,7.2496,7.2496,7.2496,7.2496,7.2496,7.2496,7.2496,7.1573,7.0635,6.9708,7.0297,6.969,6.795,6.795,6.795,6.7911,6.714,6.6791,6.6791,6.6791,6.6791,6.6927,6.8335,6.8977,6.9248,7.0601,7.1188,7.1289,7.1289,7.1289,7.1289,7.1289,7.1289,7.1289,7.1289,7.1289,7.1289,7.1289,7.1289,7.1289,7.1289,7.1289,7.1323,7.1458,7.2496,7.3534,7.3669,7.4255,7.4965,7.5574,7.5709,7.5709,7.5709,7.5709,7.5709,7.5709,7.5709,7.5709,7.5709,7.5709,7.5709,7.5709,7.5709,7.5709,7.5709,7.5709,7.5709,7.5709,7.5709,7.5709,7.5709,7.5484,7.4917,7.4013,7.4613,7.4805,7.4507,7.4268,7.5495,7.8143,7.8252,7.8025,7.744,7.5896,7.4318,7.2737,7.1441,7.0889,7.0889,7.0889,7.0889,7.0889,7.0889,7.0889,7.0889,7.0889,7.0889,7.0889,6.9192,6.9522,6.9706,6.9009,6.8885,6.9192,6.9963,7.077,7.16,7.2386,7.2496,7.2496,7.2496,7.2496,7.2496,7.2496,7.2496,7.2496,7.2496,7.2496,7.2496,7.2496,7.2496,7.2496,7.2496,7.1573,7.0635,6.9708,6.8965,6.8029,6.6988,6.6988,6.6988,6.6988,6.6875,6.6791,6.6791,6.6791,6.6791,6.6859,6.7726,6.847,6.918,7.0026,7.0737,7.1289,7.1289,7.1289,7.1289,7.1289,7.1289,7.1289,7.1289,7.1289,7.1289,7.1289,7.1289,7.1289,7.1289,7.1289,7.1424,7.209,7.2868,7.3646,7.4322,7.5033,7.5574,7.5676,7.5709,7.5709,7.5709,7.5709,7.5709,7.5709,7.5709,7.5709,7.5709,7.5709,7.5709,7.5709,7.5709,7.5709,7.5709,7.5709,7.5709,7.5709,7.5709,7.5709,7.5709,7.4563,7.4356,7.5388,7.3173,7.2526,7.3764,7.3026,7.3215,7.4268,7.4858,7.5391,7.5867,7.4258,7.2675,7.1182,7.0986,7.0889,7.0889,7.0889,7.0889,7.0889,7.0889,7.0889,7.0889,7.0889,7.0889,7.0889,7.0206,7.0536,7.0513,6.9706,6.9949,7.0206,7.011,7.1174,7.2078,7.2459,7.2496,7.2496,7.2496,7.2496,7.2496,7.2496,7.2496,7.2496,7.2496,7.2496,7.2496,7.2496,7.2496,7.2496,7.2496,7.1063,7.0092,6.9708,6.8685,6.7708,6.6791,6.6791,6.6791,6.6791,6.6791,6.6791,6.6791,6.6791,6.6791,6.6859,6.759,6.8368,6.918,6.9925,7.0669,7.1289,7.1289,7.1289,7.1289,7.1289,7.1289,7.1289,7.1289,7.1289,7.1289,7.1289,7.1289,7.1289,7.1289,7.1289,7.1458,7.2225,7.2935,7.368,7.4424,7.5168,7.5709,7.5709,7.5709,7.5709,7.5709,7.5709,7.5709,7.5709,7.5709,7.5709,7.5709,7.5709,7.5709,7.5709,7.5709,7.5709,7.5709,7.5709,7.5709,7.5709,7.5709,7.5709,7.5709,7.4356,7.3871,7.4505,7.2488,7.1718,7.2361,7.1565,7.1952,7.3468,7.2465,7.2792,7.4289,7.3566,7.2393,7.0889,7.0889,7.0889,7.0889,7.0889,7.0889,7.0889,7.0889,7.1128,7.1398,7.1038,7.1128,7.1398]}]]